<?xml version="1.0" encoding="UTF-8" standalone="no" ?>
<gpx xmlns="http://www.topografix.com/GPX/1/1" xmlns:xsi="http://www.w3.org/2001/XMLSchema-instance" xsi:schemaLocation="http://www.topografix.com/GPX/1/1 http://www.topografix.com/GPX/1/1/gpx.xsd" version="1.1" creator="VisuGPX - https://www.visugpx.com">
  <metadata>
    <name>Le Vénéon 2023 - J1/6</name>
    <desc><![CDATA[Le vénéon 2023-J1]]></desc>
  </metadata>
  <trk>
    <name><![CDATA[23/07/2023 12:08]]></name>
    <trkseg>
      <trkpt lat="44.94032" lon="6.19087">
        <ele>1445</ele>
        <time>2023-07-23T10:08:34Z</time>
      </trkpt>
      <trkpt lat="44.94032" lon="6.19087">
        <ele>1445</ele>
        <time>2023-07-23T10:08:35Z</time>
      </trkpt>
      <trkpt lat="44.94032" lon="6.19087">
        <ele>1443.4</ele>
        <time>2023-07-23T10:08:40Z</time>
      </trkpt>
      <trkpt lat="44.94031" lon="6.19086">
        <ele>1444.5</ele>
        <time>2023-07-23T10:08:43Z</time>
      </trkpt>
      <trkpt lat="44.94031" lon="6.19086">
        <ele>1444.7</ele>
        <time>2023-07-23T10:08:44Z</time>
      </trkpt>
      <trkpt lat="44.94034" lon="6.19088">
        <ele>1441.7</ele>
        <time>2023-07-23T10:09:11Z</time>
      </trkpt>
      <trkpt lat="44.94035" lon="6.19087">
        <ele>1440.8</ele>
        <time>2023-07-23T10:09:18Z</time>
      </trkpt>
      <trkpt lat="44.94035" lon="6.19087">
        <ele>1440.6</ele>
        <time>2023-07-23T10:09:21Z</time>
      </trkpt>
      <trkpt lat="44.94035" lon="6.19087">
        <ele>1440.9</ele>
        <time>2023-07-23T10:09:37Z</time>
      </trkpt>
      <trkpt lat="44.94035" lon="6.19087">
        <ele>1440.9</ele>
        <time>2023-07-23T10:09:38Z</time>
      </trkpt>
      <trkpt lat="44.94035" lon="6.19084">
        <ele>1440.1</ele>
        <time>2023-07-23T10:09:55Z</time>
      </trkpt>
      <trkpt lat="44.94035" lon="6.19084">
        <ele>1440.7</ele>
        <time>2023-07-23T10:09:58Z</time>
      </trkpt>
      <trkpt lat="44.94032" lon="6.19079">
        <ele>1441.8</ele>
        <time>2023-07-23T10:10:07Z</time>
      </trkpt>
      <trkpt lat="44.94032" lon="6.19081">
        <ele>1439.1</ele>
        <time>2023-07-23T10:10:14Z</time>
      </trkpt>
      <trkpt lat="44.94031" lon="6.19082">
        <ele>1438.6</ele>
        <time>2023-07-23T10:10:21Z</time>
      </trkpt>
      <trkpt lat="44.94031" lon="6.19082">
        <ele>1438.7</ele>
        <time>2023-07-23T10:10:22Z</time>
      </trkpt>
      <trkpt lat="44.94026" lon="6.19083">
        <ele>1435.6</ele>
        <time>2023-07-23T10:10:46Z</time>
      </trkpt>
      <trkpt lat="44.94019" lon="6.19088">
        <ele>1437.5</ele>
        <time>2023-07-23T10:10:53Z</time>
      </trkpt>
      <trkpt lat="44.94014" lon="6.19091">
        <ele>1439.9</ele>
        <time>2023-07-23T10:11:00Z</time>
      </trkpt>
      <trkpt lat="44.94007" lon="6.19096">
        <ele>1435.7</ele>
        <time>2023-07-23T10:11:06Z</time>
      </trkpt>
      <trkpt lat="44.93999" lon="6.19102">
        <ele>1434.5</ele>
        <time>2023-07-23T10:11:12Z</time>
      </trkpt>
      <trkpt lat="44.93993" lon="6.19106">
        <ele>1434.3</ele>
        <time>2023-07-23T10:11:19Z</time>
      </trkpt>
      <trkpt lat="44.93987" lon="6.19112">
        <ele>1432.4</ele>
        <time>2023-07-23T10:11:25Z</time>
      </trkpt>
      <trkpt lat="44.93981" lon="6.19119">
        <ele>1431.9</ele>
        <time>2023-07-23T10:11:32Z</time>
      </trkpt>
      <trkpt lat="44.93974" lon="6.19122">
        <ele>1432.3</ele>
        <time>2023-07-23T10:11:39Z</time>
      </trkpt>
      <trkpt lat="44.93966" lon="6.19124">
        <ele>1433.3</ele>
        <time>2023-07-23T10:11:45Z</time>
      </trkpt>
      <trkpt lat="44.93962" lon="6.19131">
        <ele>1433.6</ele>
        <time>2023-07-23T10:11:52Z</time>
      </trkpt>
      <trkpt lat="44.93956" lon="6.19139">
        <ele>1430.5</ele>
        <time>2023-07-23T10:11:59Z</time>
      </trkpt>
      <trkpt lat="44.93948" lon="6.19142">
        <ele>1431.6</ele>
        <time>2023-07-23T10:12:05Z</time>
      </trkpt>
      <trkpt lat="44.93942" lon="6.19148">
        <ele>1430.7</ele>
        <time>2023-07-23T10:12:11Z</time>
      </trkpt>
      <trkpt lat="44.93936" lon="6.19156">
        <ele>1427.8</ele>
        <time>2023-07-23T10:12:17Z</time>
      </trkpt>
      <trkpt lat="44.93933" lon="6.19165">
        <ele>1429.2</ele>
        <time>2023-07-23T10:12:23Z</time>
      </trkpt>
      <trkpt lat="44.93928" lon="6.19175">
        <ele>1432.8</ele>
        <time>2023-07-23T10:12:30Z</time>
      </trkpt>
      <trkpt lat="44.93925" lon="6.19185">
        <ele>1433.1</ele>
        <time>2023-07-23T10:12:37Z</time>
      </trkpt>
      <trkpt lat="44.9392" lon="6.19193">
        <ele>1433.2</ele>
        <time>2023-07-23T10:12:43Z</time>
      </trkpt>
      <trkpt lat="44.93917" lon="6.19197">
        <ele>1436.3</ele>
        <time>2023-07-23T10:12:50Z</time>
      </trkpt>
      <trkpt lat="44.93913" lon="6.19199">
        <ele>1437.8</ele>
        <time>2023-07-23T10:12:57Z</time>
      </trkpt>
      <trkpt lat="44.93908" lon="6.19203">
        <ele>1434.8</ele>
        <time>2023-07-23T10:13:04Z</time>
      </trkpt>
      <trkpt lat="44.939" lon="6.19205">
        <ele>1433.8</ele>
        <time>2023-07-23T10:13:10Z</time>
      </trkpt>
      <trkpt lat="44.93895" lon="6.19209">
        <ele>1435.1</ele>
        <time>2023-07-23T10:13:17Z</time>
      </trkpt>
      <trkpt lat="44.9389" lon="6.19215">
        <ele>1437.6</ele>
        <time>2023-07-23T10:13:24Z</time>
      </trkpt>
      <trkpt lat="44.9389" lon="6.19218">
        <ele>1439.4</ele>
        <time>2023-07-23T10:13:31Z</time>
      </trkpt>
      <trkpt lat="44.93886" lon="6.19219">
        <ele>1441.2</ele>
        <time>2023-07-23T10:13:38Z</time>
      </trkpt>
      <trkpt lat="44.93884" lon="6.19228">
        <ele>1443.8</ele>
        <time>2023-07-23T10:13:45Z</time>
      </trkpt>
      <trkpt lat="44.93884" lon="6.19228">
        <ele>1446</ele>
        <time>2023-07-23T10:13:52Z</time>
      </trkpt>
      <trkpt lat="44.93878" lon="6.19232">
        <ele>1443.5</ele>
        <time>2023-07-23T10:14:10Z</time>
      </trkpt>
      <trkpt lat="44.93871" lon="6.19234">
        <ele>1444.2</ele>
        <time>2023-07-23T10:14:17Z</time>
      </trkpt>
      <trkpt lat="44.93869" lon="6.19234">
        <ele>1444.4</ele>
        <time>2023-07-23T10:14:24Z</time>
      </trkpt>
      <trkpt lat="44.93869" lon="6.19234">
        <ele>1444.3</ele>
        <time>2023-07-23T10:14:26Z</time>
      </trkpt>
      <trkpt lat="44.93867" lon="6.19235">
        <ele>1446.6</ele>
        <time>2023-07-23T10:14:33Z</time>
      </trkpt>
      <trkpt lat="44.93867" lon="6.19236">
        <ele>1447.9</ele>
        <time>2023-07-23T10:14:34Z</time>
      </trkpt>
      <trkpt lat="44.93862" lon="6.19237">
        <ele>1450.1</ele>
        <time>2023-07-23T10:14:41Z</time>
      </trkpt>
      <trkpt lat="44.93856" lon="6.19238">
        <ele>1453.6</ele>
        <time>2023-07-23T10:14:48Z</time>
      </trkpt>
      <trkpt lat="44.93853" lon="6.19242">
        <ele>1454.9</ele>
        <time>2023-07-23T10:14:55Z</time>
      </trkpt>
      <trkpt lat="44.93852" lon="6.19247">
        <ele>1454.6</ele>
        <time>2023-07-23T10:15:02Z</time>
      </trkpt>
      <trkpt lat="44.93848" lon="6.19251">
        <ele>1450.5</ele>
        <time>2023-07-23T10:15:09Z</time>
      </trkpt>
      <trkpt lat="44.93842" lon="6.19251">
        <ele>1449.2</ele>
        <time>2023-07-23T10:15:16Z</time>
      </trkpt>
      <trkpt lat="44.93836" lon="6.1925">
        <ele>1447.7</ele>
        <time>2023-07-23T10:15:23Z</time>
      </trkpt>
      <trkpt lat="44.9383" lon="6.1925">
        <ele>1446.3</ele>
        <time>2023-07-23T10:15:30Z</time>
      </trkpt>
      <trkpt lat="44.93822" lon="6.19251">
        <ele>1447.6</ele>
        <time>2023-07-23T10:15:37Z</time>
      </trkpt>
      <trkpt lat="44.93814" lon="6.19253">
        <ele>1442.6</ele>
        <time>2023-07-23T10:15:42Z</time>
      </trkpt>
      <trkpt lat="44.93806" lon="6.19251">
        <ele>1438.2</ele>
        <time>2023-07-23T10:15:49Z</time>
      </trkpt>
      <trkpt lat="44.93799" lon="6.19254">
        <ele>1439.6</ele>
        <time>2023-07-23T10:15:56Z</time>
      </trkpt>
      <trkpt lat="44.93792" lon="6.19257">
        <ele>1439.9</ele>
        <time>2023-07-23T10:16:03Z</time>
      </trkpt>
      <trkpt lat="44.93786" lon="6.19259">
        <ele>1440.6</ele>
        <time>2023-07-23T10:16:10Z</time>
      </trkpt>
      <trkpt lat="44.93784" lon="6.19267">
        <ele>1440.1</ele>
        <time>2023-07-23T10:16:17Z</time>
      </trkpt>
      <trkpt lat="44.93781" lon="6.19272">
        <ele>1439.7</ele>
        <time>2023-07-23T10:16:24Z</time>
      </trkpt>
      <trkpt lat="44.93779" lon="6.19278">
        <ele>1439.3</ele>
        <time>2023-07-23T10:16:31Z</time>
      </trkpt>
      <trkpt lat="44.93779" lon="6.19282">
        <ele>1440.4</ele>
        <time>2023-07-23T10:16:38Z</time>
      </trkpt>
      <trkpt lat="44.93775" lon="6.19283">
        <ele>1441.9</ele>
        <time>2023-07-23T10:16:45Z</time>
      </trkpt>
      <trkpt lat="44.93771" lon="6.19282">
        <ele>1441.6</ele>
        <time>2023-07-23T10:16:52Z</time>
      </trkpt>
      <trkpt lat="44.93769" lon="6.19285">
        <ele>1438.8</ele>
        <time>2023-07-23T10:16:59Z</time>
      </trkpt>
      <trkpt lat="44.93769" lon="6.19286">
        <ele>1438.5</ele>
        <time>2023-07-23T10:17:05Z</time>
      </trkpt>
      <trkpt lat="44.93765" lon="6.19288">
        <ele>1435.3</ele>
        <time>2023-07-23T10:17:14Z</time>
      </trkpt>
      <trkpt lat="44.93757" lon="6.19286">
        <ele>1437.2</ele>
        <time>2023-07-23T10:17:19Z</time>
      </trkpt>
      <trkpt lat="44.9375" lon="6.19285">
        <ele>1437.4</ele>
        <time>2023-07-23T10:17:26Z</time>
      </trkpt>
      <trkpt lat="44.93749" lon="6.19284">
        <ele>1437.9</ele>
        <time>2023-07-23T10:17:33Z</time>
      </trkpt>
      <trkpt lat="44.93748" lon="6.19284">
        <ele>1437</ele>
        <time>2023-07-23T10:17:40Z</time>
      </trkpt>
      <trkpt lat="44.93749" lon="6.19286">
        <ele>1436.8</ele>
        <time>2023-07-23T10:17:47Z</time>
      </trkpt>
      <trkpt lat="44.93749" lon="6.19287">
        <ele>1436.6</ele>
        <time>2023-07-23T10:17:49Z</time>
      </trkpt>
      <trkpt lat="44.93746" lon="6.1929">
        <ele>1437.4</ele>
        <time>2023-07-23T10:17:57Z</time>
      </trkpt>
      <trkpt lat="44.93741" lon="6.19292">
        <ele>1438.1</ele>
        <time>2023-07-23T10:18:04Z</time>
      </trkpt>
      <trkpt lat="44.93738" lon="6.1929">
        <ele>1437.3</ele>
        <time>2023-07-23T10:18:11Z</time>
      </trkpt>
      <trkpt lat="44.93738" lon="6.19292">
        <ele>1435.8</ele>
        <time>2023-07-23T10:18:18Z</time>
      </trkpt>
      <trkpt lat="44.93739" lon="6.1929">
        <ele>1431.8</ele>
        <time>2023-07-23T10:18:25Z</time>
      </trkpt>
      <trkpt lat="44.93735" lon="6.19295">
        <ele>1431</ele>
        <time>2023-07-23T10:18:32Z</time>
      </trkpt>
      <trkpt lat="44.93736" lon="6.19298">
        <ele>1428.9</ele>
        <time>2023-07-23T10:18:39Z</time>
      </trkpt>
      <trkpt lat="44.93738" lon="6.19305">
        <ele>1426.2</ele>
        <time>2023-07-23T10:18:46Z</time>
      </trkpt>
      <trkpt lat="44.93737" lon="6.19309">
        <ele>1425</ele>
        <time>2023-07-23T10:18:53Z</time>
      </trkpt>
      <trkpt lat="44.93738" lon="6.1931">
        <ele>1425</ele>
        <time>2023-07-23T10:18:56Z</time>
      </trkpt>
      <trkpt lat="44.93736" lon="6.19314">
        <ele>1424</ele>
        <time>2023-07-23T10:19:06Z</time>
      </trkpt>
      <trkpt lat="44.93732" lon="6.19316">
        <ele>1420.1</ele>
        <time>2023-07-23T10:19:13Z</time>
      </trkpt>
      <trkpt lat="44.93728" lon="6.1931">
        <ele>1420.3</ele>
        <time>2023-07-23T10:19:20Z</time>
      </trkpt>
      <trkpt lat="44.93732" lon="6.19315">
        <ele>1419.9</ele>
        <time>2023-07-23T10:19:27Z</time>
      </trkpt>
      <trkpt lat="44.93736" lon="6.19316">
        <ele>1420.4</ele>
        <time>2023-07-23T10:19:34Z</time>
      </trkpt>
      <trkpt lat="44.93736" lon="6.19316">
        <ele>1420.4</ele>
        <time>2023-07-23T10:19:40Z</time>
      </trkpt>
      <trkpt lat="44.93733" lon="6.19306">
        <ele>1415.5</ele>
        <time>2023-07-23T10:19:50Z</time>
      </trkpt>
      <trkpt lat="44.93737" lon="6.19307">
        <ele>1407.9</ele>
        <time>2023-07-23T10:19:57Z</time>
      </trkpt>
      <trkpt lat="44.93742" lon="6.19299">
        <ele>1408.8</ele>
        <time>2023-07-23T10:20:02Z</time>
      </trkpt>
      <trkpt lat="44.93741" lon="6.19298">
        <ele>1409.8</ele>
        <time>2023-07-23T10:20:09Z</time>
      </trkpt>
      <trkpt lat="44.93741" lon="6.19297">
        <ele>1410.4</ele>
        <time>2023-07-23T10:20:10Z</time>
      </trkpt>
      <trkpt lat="44.93736" lon="6.19293">
        <ele>1413</ele>
        <time>2023-07-23T10:20:18Z</time>
      </trkpt>
      <trkpt lat="44.93736" lon="6.19291">
        <ele>1411.1</ele>
        <time>2023-07-23T10:20:25Z</time>
      </trkpt>
      <trkpt lat="44.93736" lon="6.19291">
        <ele>1410.9</ele>
        <time>2023-07-23T10:20:32Z</time>
      </trkpt>
      <trkpt lat="44.93736" lon="6.19291">
        <ele>1411</ele>
        <time>2023-07-23T10:20:33Z</time>
      </trkpt>
      <trkpt lat="44.93735" lon="6.19288">
        <ele>1412</ele>
        <time>2023-07-23T10:20:40Z</time>
      </trkpt>
      <trkpt lat="44.93735" lon="6.19288">
        <ele>1412</ele>
        <time>2023-07-23T10:20:41Z</time>
      </trkpt>
      <trkpt lat="44.93734" lon="6.19287">
        <ele>1410.6</ele>
        <time>2023-07-23T10:20:51Z</time>
      </trkpt>
      <trkpt lat="44.93734" lon="6.19287">
        <ele>1409.4</ele>
        <time>2023-07-23T10:20:54Z</time>
      </trkpt>
      <trkpt lat="44.93733" lon="6.19288">
        <ele>1408</ele>
        <time>2023-07-23T10:21:02Z</time>
      </trkpt>
      <trkpt lat="44.93733" lon="6.19288">
        <ele>1407.2</ele>
        <time>2023-07-23T10:21:09Z</time>
      </trkpt>
      <trkpt lat="44.93735" lon="6.19288">
        <ele>1407.5</ele>
        <time>2023-07-23T10:21:16Z</time>
      </trkpt>
      <trkpt lat="44.93735" lon="6.19287">
        <ele>1407.5</ele>
        <time>2023-07-23T10:21:19Z</time>
      </trkpt>
      <trkpt lat="44.93735" lon="6.19291">
        <ele>1406.5</ele>
        <time>2023-07-23T10:21:34Z</time>
      </trkpt>
      <trkpt lat="44.9373" lon="6.19284">
        <ele>1406.4</ele>
        <time>2023-07-23T10:21:40Z</time>
      </trkpt>
      <trkpt lat="44.93725" lon="6.19279">
        <ele>1405.1</ele>
        <time>2023-07-23T10:21:47Z</time>
      </trkpt>
      <trkpt lat="44.93726" lon="6.19283">
        <ele>1403.6</ele>
        <time>2023-07-23T10:21:54Z</time>
      </trkpt>
      <trkpt lat="44.9373" lon="6.19291">
        <ele>1402.1</ele>
        <time>2023-07-23T10:22:01Z</time>
      </trkpt>
      <trkpt lat="44.93732" lon="6.19301">
        <ele>1400.3</ele>
        <time>2023-07-23T10:22:08Z</time>
      </trkpt>
      <trkpt lat="44.93726" lon="6.19304">
        <ele>1398.7</ele>
        <time>2023-07-23T10:22:15Z</time>
      </trkpt>
      <trkpt lat="44.93722" lon="6.1931">
        <ele>1399.8</ele>
        <time>2023-07-23T10:22:22Z</time>
      </trkpt>
      <trkpt lat="44.93724" lon="6.19313">
        <ele>1397.1</ele>
        <time>2023-07-23T10:22:29Z</time>
      </trkpt>
      <trkpt lat="44.93724" lon="6.19313">
        <ele>1396.6</ele>
        <time>2023-07-23T10:22:35Z</time>
      </trkpt>
      <trkpt lat="44.93724" lon="6.19314">
        <ele>1398.3</ele>
        <time>2023-07-23T10:22:54Z</time>
      </trkpt>
      <trkpt lat="44.93724" lon="6.19314">
        <ele>1398.3</ele>
        <time>2023-07-23T10:22:59Z</time>
      </trkpt>
      <trkpt lat="44.93726" lon="6.19314">
        <ele>1394.9</ele>
        <time>2023-07-23T10:23:09Z</time>
      </trkpt>
      <trkpt lat="44.93726" lon="6.19314">
        <ele>1394.8</ele>
        <time>2023-07-23T10:23:10Z</time>
      </trkpt>
      <trkpt lat="44.9373" lon="6.19315">
        <ele>1395.2</ele>
        <time>2023-07-23T10:23:24Z</time>
      </trkpt>
      <trkpt lat="44.9373" lon="6.19315">
        <ele>1394.9</ele>
        <time>2023-07-23T10:23:29Z</time>
      </trkpt>
      <trkpt lat="44.93729" lon="6.19314">
        <ele>1396.3</ele>
        <time>2023-07-23T10:23:41Z</time>
      </trkpt>
      <trkpt lat="44.9373" lon="6.19315">
        <ele>1398</ele>
        <time>2023-07-23T10:23:48Z</time>
      </trkpt>
      <trkpt lat="44.93729" lon="6.19316">
        <ele>1397.1</ele>
        <time>2023-07-23T10:23:54Z</time>
      </trkpt>
      <trkpt lat="44.93727" lon="6.19319">
        <ele>1396.3</ele>
        <time>2023-07-23T10:24:06Z</time>
      </trkpt>
      <trkpt lat="44.93731" lon="6.1932">
        <ele>1399.7</ele>
        <time>2023-07-23T10:24:13Z</time>
      </trkpt>
      <trkpt lat="44.93733" lon="6.19323">
        <ele>1399.1</ele>
        <time>2023-07-23T10:24:20Z</time>
      </trkpt>
      <trkpt lat="44.93734" lon="6.19325">
        <ele>1400.2</ele>
        <time>2023-07-23T10:24:27Z</time>
      </trkpt>
      <trkpt lat="44.93736" lon="6.19333">
        <ele>1403.4</ele>
        <time>2023-07-23T10:24:34Z</time>
      </trkpt>
      <trkpt lat="44.93734" lon="6.19335">
        <ele>1403.6</ele>
        <time>2023-07-23T10:24:41Z</time>
      </trkpt>
      <trkpt lat="44.93732" lon="6.19334">
        <ele>1403.5</ele>
        <time>2023-07-23T10:24:48Z</time>
      </trkpt>
      <trkpt lat="44.93732" lon="6.19334">
        <ele>1403.5</ele>
        <time>2023-07-23T10:24:49Z</time>
      </trkpt>
      <trkpt lat="44.93729" lon="6.19332">
        <ele>1403.6</ele>
        <time>2023-07-23T10:25:08Z</time>
      </trkpt>
      <trkpt lat="44.93729" lon="6.19332">
        <ele>1403.5</ele>
        <time>2023-07-23T10:25:09Z</time>
      </trkpt>
      <trkpt lat="44.93728" lon="6.19321">
        <ele>1408</ele>
        <time>2023-07-23T10:25:18Z</time>
      </trkpt>
      <trkpt lat="44.9372" lon="6.19318">
        <ele>1410.7</ele>
        <time>2023-07-23T10:25:24Z</time>
      </trkpt>
      <trkpt lat="44.93716" lon="6.19314">
        <ele>1410.7</ele>
        <time>2023-07-23T10:25:31Z</time>
      </trkpt>
      <trkpt lat="44.93721" lon="6.19312">
        <ele>1410.7</ele>
        <time>2023-07-23T10:25:38Z</time>
      </trkpt>
      <trkpt lat="44.93728" lon="6.1931">
        <ele>1409.4</ele>
        <time>2023-07-23T10:25:45Z</time>
      </trkpt>
      <trkpt lat="44.93734" lon="6.19317">
        <ele>1412.8</ele>
        <time>2023-07-23T10:25:49Z</time>
      </trkpt>
      <trkpt lat="44.93739" lon="6.19319">
        <ele>1414</ele>
        <time>2023-07-23T10:25:56Z</time>
      </trkpt>
      <trkpt lat="44.93741" lon="6.19315">
        <ele>1410.3</ele>
        <time>2023-07-23T10:26:03Z</time>
      </trkpt>
      <trkpt lat="44.93742" lon="6.19312">
        <ele>1409.1</ele>
        <time>2023-07-23T10:26:10Z</time>
      </trkpt>
      <trkpt lat="44.93742" lon="6.19303">
        <ele>1414.6</ele>
        <time>2023-07-23T10:26:17Z</time>
      </trkpt>
      <trkpt lat="44.93749" lon="6.19304">
        <ele>1416.6</ele>
        <time>2023-07-23T10:26:24Z</time>
      </trkpt>
      <trkpt lat="44.93754" lon="6.19303">
        <ele>1418.1</ele>
        <time>2023-07-23T10:26:31Z</time>
      </trkpt>
      <trkpt lat="44.9375" lon="6.19297">
        <ele>1418.4</ele>
        <time>2023-07-23T10:26:38Z</time>
      </trkpt>
      <trkpt lat="44.93743" lon="6.19293">
        <ele>1417.9</ele>
        <time>2023-07-23T10:26:44Z</time>
      </trkpt>
      <trkpt lat="44.93738" lon="6.19292">
        <ele>1418.7</ele>
        <time>2023-07-23T10:26:51Z</time>
      </trkpt>
      <trkpt lat="44.93733" lon="6.19291">
        <ele>1420.2</ele>
        <time>2023-07-23T10:26:58Z</time>
      </trkpt>
      <trkpt lat="44.93734" lon="6.19287">
        <ele>1422.9</ele>
        <time>2023-07-23T10:27:05Z</time>
      </trkpt>
      <trkpt lat="44.93736" lon="6.19283">
        <ele>1423.6</ele>
        <time>2023-07-23T10:27:12Z</time>
      </trkpt>
      <trkpt lat="44.93737" lon="6.19282">
        <ele>1422.8</ele>
        <time>2023-07-23T10:27:19Z</time>
      </trkpt>
      <trkpt lat="44.93737" lon="6.19282">
        <ele>1423.4</ele>
        <time>2023-07-23T10:27:20Z</time>
      </trkpt>
      <trkpt lat="44.93738" lon="6.19278">
        <ele>1429.3</ele>
        <time>2023-07-23T10:27:27Z</time>
      </trkpt>
      <trkpt lat="44.93744" lon="6.19279">
        <ele>1431.2</ele>
        <time>2023-07-23T10:27:34Z</time>
      </trkpt>
      <trkpt lat="44.93748" lon="6.19283">
        <ele>1435.5</ele>
        <time>2023-07-23T10:27:41Z</time>
      </trkpt>
      <trkpt lat="44.93753" lon="6.19282">
        <ele>1438.4</ele>
        <time>2023-07-23T10:27:48Z</time>
      </trkpt>
      <trkpt lat="44.93756" lon="6.19282">
        <ele>1441.8</ele>
        <time>2023-07-23T10:27:55Z</time>
      </trkpt>
      <trkpt lat="44.93754" lon="6.19281">
        <ele>1443.2</ele>
        <time>2023-07-23T10:28:02Z</time>
      </trkpt>
      <trkpt lat="44.93753" lon="6.1928">
        <ele>1443.8</ele>
        <time>2023-07-23T10:28:09Z</time>
      </trkpt>
      <trkpt lat="44.93748" lon="6.1928">
        <ele>1445.3</ele>
        <time>2023-07-23T10:28:16Z</time>
      </trkpt>
      <trkpt lat="44.93744" lon="6.19276">
        <ele>1442.1</ele>
        <time>2023-07-23T10:28:23Z</time>
      </trkpt>
      <trkpt lat="44.93739" lon="6.19268">
        <ele>1442.6</ele>
        <time>2023-07-23T10:28:30Z</time>
      </trkpt>
      <trkpt lat="44.93737" lon="6.19264">
        <ele>1444.8</ele>
        <time>2023-07-23T10:28:37Z</time>
      </trkpt>
      <trkpt lat="44.93739" lon="6.19263">
        <ele>1446.4</ele>
        <time>2023-07-23T10:28:44Z</time>
      </trkpt>
      <trkpt lat="44.93738" lon="6.19264">
        <ele>1445.6</ele>
        <time>2023-07-23T10:28:51Z</time>
      </trkpt>
      <trkpt lat="44.93738" lon="6.19264">
        <ele>1445.4</ele>
        <time>2023-07-23T10:28:53Z</time>
      </trkpt>
      <trkpt lat="44.93739" lon="6.19263">
        <ele>1445.8</ele>
        <time>2023-07-23T10:29:01Z</time>
      </trkpt>
      <trkpt lat="44.93739" lon="6.19263">
        <ele>1447.1</ele>
        <time>2023-07-23T10:29:03Z</time>
      </trkpt>
      <trkpt lat="44.93735" lon="6.19264">
        <ele>1446.2</ele>
        <time>2023-07-23T10:29:26Z</time>
      </trkpt>
      <trkpt lat="44.93735" lon="6.19263">
        <ele>1446.5</ele>
        <time>2023-07-23T10:29:33Z</time>
      </trkpt>
      <trkpt lat="44.93734" lon="6.19262">
        <ele>1447.2</ele>
        <time>2023-07-23T10:29:45Z</time>
      </trkpt>
      <trkpt lat="44.93734" lon="6.19262">
        <ele>1447.2</ele>
        <time>2023-07-23T10:29:46Z</time>
      </trkpt>
      <trkpt lat="44.93733" lon="6.1926">
        <ele>1446.6</ele>
        <time>2023-07-23T10:29:53Z</time>
      </trkpt>
      <trkpt lat="44.93736" lon="6.19259">
        <ele>1446.9</ele>
        <time>2023-07-23T10:30:00Z</time>
      </trkpt>
      <trkpt lat="44.93735" lon="6.19257">
        <ele>1446.2</ele>
        <time>2023-07-23T10:30:07Z</time>
      </trkpt>
      <trkpt lat="44.93736" lon="6.19265">
        <ele>1449</ele>
        <time>2023-07-23T10:30:14Z</time>
      </trkpt>
      <trkpt lat="44.93733" lon="6.19267">
        <ele>1452.2</ele>
        <time>2023-07-23T10:30:21Z</time>
      </trkpt>
      <trkpt lat="44.93729" lon="6.19263">
        <ele>1452.6</ele>
        <time>2023-07-23T10:30:28Z</time>
      </trkpt>
      <trkpt lat="44.93726" lon="6.19259">
        <ele>1452.4</ele>
        <time>2023-07-23T10:30:35Z</time>
      </trkpt>
      <trkpt lat="44.93726" lon="6.19259">
        <ele>1452.5</ele>
        <time>2023-07-23T10:30:39Z</time>
      </trkpt>
      <trkpt lat="44.93728" lon="6.1926">
        <ele>1452.3</ele>
        <time>2023-07-23T10:31:13Z</time>
      </trkpt>
      <trkpt lat="44.93729" lon="6.19257">
        <ele>1451.8</ele>
        <time>2023-07-23T10:31:20Z</time>
      </trkpt>
      <trkpt lat="44.9373" lon="6.19255">
        <ele>1449.7</ele>
        <time>2023-07-23T10:31:27Z</time>
      </trkpt>
      <trkpt lat="44.93729" lon="6.19255">
        <ele>1448.1</ele>
        <time>2023-07-23T10:31:34Z</time>
      </trkpt>
      <trkpt lat="44.93728" lon="6.19253">
        <ele>1448</ele>
        <time>2023-07-23T10:31:41Z</time>
      </trkpt>
      <trkpt lat="44.93734" lon="6.19245">
        <ele>1443.7</ele>
        <time>2023-07-23T10:31:48Z</time>
      </trkpt>
      <trkpt lat="44.93735" lon="6.19242">
        <ele>1441.9</ele>
        <time>2023-07-23T10:31:55Z</time>
      </trkpt>
      <trkpt lat="44.93733" lon="6.1924">
        <ele>1440.4</ele>
        <time>2023-07-23T10:32:02Z</time>
      </trkpt>
      <trkpt lat="44.93733" lon="6.19239">
        <ele>1439.7</ele>
        <time>2023-07-23T10:32:07Z</time>
      </trkpt>
      <trkpt lat="44.93734" lon="6.19239">
        <ele>1439.5</ele>
        <time>2023-07-23T10:32:16Z</time>
      </trkpt>
      <trkpt lat="44.93734" lon="6.19239">
        <ele>1439.5</ele>
        <time>2023-07-23T10:32:17Z</time>
      </trkpt>
      <trkpt lat="44.93732" lon="6.19236">
        <ele>1439.4</ele>
        <time>2023-07-23T10:33:30Z</time>
      </trkpt>
      <trkpt lat="44.93731" lon="6.19237">
        <ele>1439.1</ele>
        <time>2023-07-23T10:33:37Z</time>
      </trkpt>
      <trkpt lat="44.93731" lon="6.19237">
        <ele>1439.1</ele>
        <time>2023-07-23T10:33:38Z</time>
      </trkpt>
      <trkpt lat="44.93731" lon="6.19237">
        <ele>1439.1</ele>
        <time>2023-07-23T10:34:25Z</time>
      </trkpt>
      <trkpt lat="44.93734" lon="6.19229">
        <ele>1439.3</ele>
        <time>2023-07-23T10:34:32Z</time>
      </trkpt>
      <trkpt lat="44.93729" lon="6.19221">
        <ele>1440.1</ele>
        <time>2023-07-23T10:34:38Z</time>
      </trkpt>
      <trkpt lat="44.93735" lon="6.19218">
        <ele>1440.7</ele>
        <time>2023-07-23T10:34:45Z</time>
      </trkpt>
      <trkpt lat="44.93736" lon="6.19217">
        <ele>1441.2</ele>
        <time>2023-07-23T10:34:52Z</time>
      </trkpt>
      <trkpt lat="44.93737" lon="6.19215">
        <ele>1441.8</ele>
        <time>2023-07-23T10:34:59Z</time>
      </trkpt>
      <trkpt lat="44.93739" lon="6.19213">
        <ele>1439.3</ele>
        <time>2023-07-23T10:35:06Z</time>
      </trkpt>
      <trkpt lat="44.93742" lon="6.19205">
        <ele>1434.7</ele>
        <time>2023-07-23T10:35:13Z</time>
      </trkpt>
      <trkpt lat="44.93746" lon="6.19195">
        <ele>1432.7</ele>
        <time>2023-07-23T10:35:20Z</time>
      </trkpt>
      <trkpt lat="44.93741" lon="6.19187">
        <ele>1435.7</ele>
        <time>2023-07-23T10:35:26Z</time>
      </trkpt>
      <trkpt lat="44.93743" lon="6.19177">
        <ele>1439</ele>
        <time>2023-07-23T10:35:32Z</time>
      </trkpt>
      <trkpt lat="44.93748" lon="6.19171">
        <ele>1441.7</ele>
        <time>2023-07-23T10:35:39Z</time>
      </trkpt>
      <trkpt lat="44.93754" lon="6.19172">
        <ele>1443.2</ele>
        <time>2023-07-23T10:35:46Z</time>
      </trkpt>
      <trkpt lat="44.93757" lon="6.19169">
        <ele>1443.5</ele>
        <time>2023-07-23T10:35:53Z</time>
      </trkpt>
      <trkpt lat="44.9376" lon="6.19167">
        <ele>1451.3</ele>
        <time>2023-07-23T10:36:00Z</time>
      </trkpt>
      <trkpt lat="44.93761" lon="6.19167">
        <ele>1452.8</ele>
        <time>2023-07-23T10:36:06Z</time>
      </trkpt>
      <trkpt lat="44.93765" lon="6.19158">
        <ele>1447.1</ele>
        <time>2023-07-23T10:36:14Z</time>
      </trkpt>
      <trkpt lat="44.93766" lon="6.19149">
        <ele>1447</ele>
        <time>2023-07-23T10:36:21Z</time>
      </trkpt>
      <trkpt lat="44.93769" lon="6.19142">
        <ele>1447.1</ele>
        <time>2023-07-23T10:36:28Z</time>
      </trkpt>
      <trkpt lat="44.93774" lon="6.19138">
        <ele>1451.4</ele>
        <time>2023-07-23T10:36:35Z</time>
      </trkpt>
      <trkpt lat="44.93779" lon="6.19133">
        <ele>1449</ele>
        <time>2023-07-23T10:36:42Z</time>
      </trkpt>
      <trkpt lat="44.93784" lon="6.19126">
        <ele>1442.3</ele>
        <time>2023-07-23T10:36:49Z</time>
      </trkpt>
      <trkpt lat="44.93791" lon="6.1912">
        <ele>1439.6</ele>
        <time>2023-07-23T10:36:55Z</time>
      </trkpt>
      <trkpt lat="44.93799" lon="6.19115">
        <ele>1440.5</ele>
        <time>2023-07-23T10:37:00Z</time>
      </trkpt>
      <trkpt lat="44.93798" lon="6.19114">
        <ele>1440.9</ele>
        <time>2023-07-23T10:37:07Z</time>
      </trkpt>
      <trkpt lat="44.938" lon="6.19106">
        <ele>1436.7</ele>
        <time>2023-07-23T10:37:14Z</time>
      </trkpt>
      <trkpt lat="44.93805" lon="6.19103">
        <ele>1433.2</ele>
        <time>2023-07-23T10:37:21Z</time>
      </trkpt>
      <trkpt lat="44.93812" lon="6.191">
        <ele>1435.7</ele>
        <time>2023-07-23T10:37:28Z</time>
      </trkpt>
      <trkpt lat="44.93813" lon="6.19089">
        <ele>1434.5</ele>
        <time>2023-07-23T10:37:35Z</time>
      </trkpt>
      <trkpt lat="44.93817" lon="6.19081">
        <ele>1435.1</ele>
        <time>2023-07-23T10:37:42Z</time>
      </trkpt>
      <trkpt lat="44.9382" lon="6.19075">
        <ele>1437.2</ele>
        <time>2023-07-23T10:37:49Z</time>
      </trkpt>
      <trkpt lat="44.93821" lon="6.19069">
        <ele>1434.4</ele>
        <time>2023-07-23T10:37:56Z</time>
      </trkpt>
      <trkpt lat="44.93819" lon="6.19063">
        <ele>1435.7</ele>
        <time>2023-07-23T10:38:03Z</time>
      </trkpt>
      <trkpt lat="44.9382" lon="6.1906">
        <ele>1433.6</ele>
        <time>2023-07-23T10:38:10Z</time>
      </trkpt>
      <trkpt lat="44.93822" lon="6.19057">
        <ele>1434.5</ele>
        <time>2023-07-23T10:38:17Z</time>
      </trkpt>
      <trkpt lat="44.93824" lon="6.19049">
        <ele>1434.5</ele>
        <time>2023-07-23T10:38:24Z</time>
      </trkpt>
      <trkpt lat="44.93824" lon="6.19043">
        <ele>1434.7</ele>
        <time>2023-07-23T10:38:31Z</time>
      </trkpt>
      <trkpt lat="44.93828" lon="6.19034">
        <ele>1440.5</ele>
        <time>2023-07-23T10:38:38Z</time>
      </trkpt>
      <trkpt lat="44.93824" lon="6.19032">
        <ele>1442.7</ele>
        <time>2023-07-23T10:38:45Z</time>
      </trkpt>
      <trkpt lat="44.93821" lon="6.19033">
        <ele>1443.1</ele>
        <time>2023-07-23T10:38:52Z</time>
      </trkpt>
      <trkpt lat="44.93815" lon="6.19024">
        <ele>1444.3</ele>
        <time>2023-07-23T10:38:59Z</time>
      </trkpt>
      <trkpt lat="44.93817" lon="6.19018">
        <ele>1444.3</ele>
        <time>2023-07-23T10:39:06Z</time>
      </trkpt>
      <trkpt lat="44.93819" lon="6.19015">
        <ele>1444.7</ele>
        <time>2023-07-23T10:39:13Z</time>
      </trkpt>
      <trkpt lat="44.93819" lon="6.19015">
        <ele>1444.6</ele>
        <time>2023-07-23T10:39:17Z</time>
      </trkpt>
      <trkpt lat="44.93817" lon="6.19015">
        <ele>1444</ele>
        <time>2023-07-23T10:39:29Z</time>
      </trkpt>
      <trkpt lat="44.93815" lon="6.19016">
        <ele>1449.2</ele>
        <time>2023-07-23T10:39:36Z</time>
      </trkpt>
      <trkpt lat="44.93815" lon="6.19016">
        <ele>1449.2</ele>
        <time>2023-07-23T10:39:42Z</time>
      </trkpt>
      <trkpt lat="44.93811" lon="6.19005">
        <ele>1446.5</ele>
        <time>2023-07-23T10:39:50Z</time>
      </trkpt>
      <trkpt lat="44.93813" lon="6.19009">
        <ele>1444.5</ele>
        <time>2023-07-23T10:39:57Z</time>
      </trkpt>
      <trkpt lat="44.93812" lon="6.19011">
        <ele>1441.8</ele>
        <time>2023-07-23T10:40:04Z</time>
      </trkpt>
      <trkpt lat="44.93812" lon="6.19011">
        <ele>1441.7</ele>
        <time>2023-07-23T10:40:09Z</time>
      </trkpt>
      <trkpt lat="44.93808" lon="6.19005">
        <ele>1447.8</ele>
        <time>2023-07-23T10:40:31Z</time>
      </trkpt>
      <trkpt lat="44.93808" lon="6.19005">
        <ele>1447.7</ele>
        <time>2023-07-23T10:40:33Z</time>
      </trkpt>
      <trkpt lat="44.93808" lon="6.19003">
        <ele>1449.2</ele>
        <time>2023-07-23T10:40:42Z</time>
      </trkpt>
      <trkpt lat="44.93808" lon="6.19003">
        <ele>1449.5</ele>
        <time>2023-07-23T10:40:43Z</time>
      </trkpt>
      <trkpt lat="44.93809" lon="6.19004">
        <ele>1447.6</ele>
        <time>2023-07-23T10:41:06Z</time>
      </trkpt>
      <trkpt lat="44.93809" lon="6.19004">
        <ele>1448</ele>
        <time>2023-07-23T10:41:08Z</time>
      </trkpt>
      <trkpt lat="44.9381" lon="6.19009">
        <ele>1448.4</ele>
        <time>2023-07-23T10:41:58Z</time>
      </trkpt>
      <trkpt lat="44.9381" lon="6.19009">
        <ele>1448.5</ele>
        <time>2023-07-23T10:42:00Z</time>
      </trkpt>
      <trkpt lat="44.93811" lon="6.19009">
        <ele>1448.4</ele>
        <time>2023-07-23T10:42:23Z</time>
      </trkpt>
      <trkpt lat="44.93811" lon="6.19009">
        <ele>1448.3</ele>
        <time>2023-07-23T10:42:24Z</time>
      </trkpt>
      <trkpt lat="44.93814" lon="6.19017">
        <ele>1447</ele>
        <time>2023-07-23T10:42:37Z</time>
      </trkpt>
      <trkpt lat="44.93815" lon="6.19021">
        <ele>1444.6</ele>
        <time>2023-07-23T10:42:44Z</time>
      </trkpt>
      <trkpt lat="44.9382" lon="6.19019">
        <ele>1443.6</ele>
        <time>2023-07-23T10:42:51Z</time>
      </trkpt>
      <trkpt lat="44.93825" lon="6.19018">
        <ele>1442.8</ele>
        <time>2023-07-23T10:42:58Z</time>
      </trkpt>
      <trkpt lat="44.93829" lon="6.19023">
        <ele>1444.1</ele>
        <time>2023-07-23T10:43:05Z</time>
      </trkpt>
      <trkpt lat="44.93836" lon="6.19023">
        <ele>1443.7</ele>
        <time>2023-07-23T10:43:12Z</time>
      </trkpt>
      <trkpt lat="44.93843" lon="6.19021">
        <ele>1448.2</ele>
        <time>2023-07-23T10:43:19Z</time>
      </trkpt>
      <trkpt lat="44.93843" lon="6.19021">
        <ele>1447.4</ele>
        <time>2023-07-23T10:43:26Z</time>
      </trkpt>
      <trkpt lat="44.93843" lon="6.19021">
        <ele>1447.2</ele>
        <time>2023-07-23T10:43:27Z</time>
      </trkpt>
      <trkpt lat="44.93844" lon="6.19017">
        <ele>1442.7</ele>
        <time>2023-07-23T10:44:03Z</time>
      </trkpt>
      <trkpt lat="44.9384" lon="6.1902">
        <ele>1440.4</ele>
        <time>2023-07-23T10:44:10Z</time>
      </trkpt>
      <trkpt lat="44.93844" lon="6.19014">
        <ele>1440.6</ele>
        <time>2023-07-23T10:44:17Z</time>
      </trkpt>
      <trkpt lat="44.9385" lon="6.19006">
        <ele>1441.1</ele>
        <time>2023-07-23T10:44:22Z</time>
      </trkpt>
      <trkpt lat="44.93852" lon="6.19003">
        <ele>1440.3</ele>
        <time>2023-07-23T10:44:29Z</time>
      </trkpt>
      <trkpt lat="44.93852" lon="6.19003">
        <ele>1439.7</ele>
        <time>2023-07-23T10:44:31Z</time>
      </trkpt>
      <trkpt lat="44.93853" lon="6.19002">
        <ele>1441.5</ele>
        <time>2023-07-23T10:44:57Z</time>
      </trkpt>
      <trkpt lat="44.93857" lon="6.19006">
        <ele>1437</ele>
        <time>2023-07-23T10:45:04Z</time>
      </trkpt>
      <trkpt lat="44.93859" lon="6.19006">
        <ele>1437.2</ele>
        <time>2023-07-23T10:45:11Z</time>
      </trkpt>
      <trkpt lat="44.93859" lon="6.19006">
        <ele>1436.7</ele>
        <time>2023-07-23T10:45:13Z</time>
      </trkpt>
      <trkpt lat="44.93856" lon="6.19002">
        <ele>1436.1</ele>
        <time>2023-07-23T10:45:28Z</time>
      </trkpt>
      <trkpt lat="44.9385" lon="6.19018">
        <ele>1443.6</ele>
        <time>2023-07-23T11:35:21Z</time>
      </trkpt>
      <trkpt lat="44.93852" lon="6.19022">
        <ele>1441.2</ele>
        <time>2023-07-23T11:35:28Z</time>
      </trkpt>
      <trkpt lat="44.93853" lon="6.19026">
        <ele>1438.5</ele>
        <time>2023-07-23T11:35:35Z</time>
      </trkpt>
      <trkpt lat="44.93852" lon="6.19027">
        <ele>1438.2</ele>
        <time>2023-07-23T11:35:38Z</time>
      </trkpt>
      <trkpt lat="44.93855" lon="6.19029">
        <ele>1436.9</ele>
        <time>2023-07-23T11:35:46Z</time>
      </trkpt>
      <trkpt lat="44.93856" lon="6.1903">
        <ele>1437.7</ele>
        <time>2023-07-23T11:35:51Z</time>
      </trkpt>
      <trkpt lat="44.93859" lon="6.19028">
        <ele>1433.5</ele>
        <time>2023-07-23T11:36:00Z</time>
      </trkpt>
      <trkpt lat="44.93864" lon="6.19027">
        <ele>1431.2</ele>
        <time>2023-07-23T11:36:07Z</time>
      </trkpt>
      <trkpt lat="44.93869" lon="6.1902">
        <ele>1427.1</ele>
        <time>2023-07-23T11:36:14Z</time>
      </trkpt>
      <trkpt lat="44.93874" lon="6.19016">
        <ele>1424.2</ele>
        <time>2023-07-23T11:36:21Z</time>
      </trkpt>
      <trkpt lat="44.9388" lon="6.19014">
        <ele>1426.7</ele>
        <time>2023-07-23T11:36:28Z</time>
      </trkpt>
      <trkpt lat="44.93885" lon="6.19011">
        <ele>1427.2</ele>
        <time>2023-07-23T11:36:35Z</time>
      </trkpt>
      <trkpt lat="44.9389" lon="6.19005">
        <ele>1426.9</ele>
        <time>2023-07-23T11:36:42Z</time>
      </trkpt>
      <trkpt lat="44.93894" lon="6.19">
        <ele>1426.8</ele>
        <time>2023-07-23T11:36:49Z</time>
      </trkpt>
      <trkpt lat="44.93898" lon="6.18999">
        <ele>1426.5</ele>
        <time>2023-07-23T11:36:56Z</time>
      </trkpt>
      <trkpt lat="44.93903" lon="6.18999">
        <ele>1426.4</ele>
        <time>2023-07-23T11:37:03Z</time>
      </trkpt>
      <trkpt lat="44.93909" lon="6.19">
        <ele>1426.6</ele>
        <time>2023-07-23T11:37:10Z</time>
      </trkpt>
      <trkpt lat="44.93917" lon="6.18998">
        <ele>1427.2</ele>
        <time>2023-07-23T11:37:16Z</time>
      </trkpt>
      <trkpt lat="44.93923" lon="6.1899">
        <ele>1426.6</ele>
        <time>2023-07-23T11:37:23Z</time>
      </trkpt>
      <trkpt lat="44.93923" lon="6.18985">
        <ele>1426.4</ele>
        <time>2023-07-23T11:37:30Z</time>
      </trkpt>
      <trkpt lat="44.93919" lon="6.18981">
        <ele>1426.3</ele>
        <time>2023-07-23T11:37:37Z</time>
      </trkpt>
      <trkpt lat="44.93923" lon="6.18973">
        <ele>1429.2</ele>
        <time>2023-07-23T11:37:44Z</time>
      </trkpt>
      <trkpt lat="44.93928" lon="6.18962">
        <ele>1431.9</ele>
        <time>2023-07-23T11:37:47Z</time>
      </trkpt>
      <trkpt lat="44.93933" lon="6.18954">
        <ele>1430</ele>
        <time>2023-07-23T11:37:53Z</time>
      </trkpt>
      <trkpt lat="44.93936" lon="6.18949">
        <ele>1430.1</ele>
        <time>2023-07-23T11:38:00Z</time>
      </trkpt>
      <trkpt lat="44.93939" lon="6.18943">
        <ele>1428.7</ele>
        <time>2023-07-23T11:38:07Z</time>
      </trkpt>
      <trkpt lat="44.93941" lon="6.18939">
        <ele>1428.1</ele>
        <time>2023-07-23T11:38:14Z</time>
      </trkpt>
      <trkpt lat="44.93943" lon="6.18935">
        <ele>1427.3</ele>
        <time>2023-07-23T11:38:21Z</time>
      </trkpt>
      <trkpt lat="44.93946" lon="6.18933">
        <ele>1426.5</ele>
        <time>2023-07-23T11:38:28Z</time>
      </trkpt>
      <trkpt lat="44.9395" lon="6.18932">
        <ele>1425.8</ele>
        <time>2023-07-23T11:38:35Z</time>
      </trkpt>
      <trkpt lat="44.93964" lon="6.18952">
        <ele>1427</ele>
        <time>2023-07-23T11:38:40Z</time>
      </trkpt>
      <trkpt lat="44.93964" lon="6.18947">
        <ele>1423.4</ele>
        <time>2023-07-23T11:38:47Z</time>
      </trkpt>
      <trkpt lat="44.93972" lon="6.18945">
        <ele>1425.5</ele>
        <time>2023-07-23T11:38:53Z</time>
      </trkpt>
      <trkpt lat="44.93978" lon="6.18943">
        <ele>1425.4</ele>
        <time>2023-07-23T11:39:00Z</time>
      </trkpt>
      <trkpt lat="44.9398" lon="6.18936">
        <ele>1425.2</ele>
        <time>2023-07-23T11:39:07Z</time>
      </trkpt>
      <trkpt lat="44.93983" lon="6.18932">
        <ele>1425.2</ele>
        <time>2023-07-23T11:39:14Z</time>
      </trkpt>
      <trkpt lat="44.93987" lon="6.18931">
        <ele>1425.2</ele>
        <time>2023-07-23T11:39:21Z</time>
      </trkpt>
      <trkpt lat="44.9399" lon="6.18927">
        <ele>1425</ele>
        <time>2023-07-23T11:39:28Z</time>
      </trkpt>
      <trkpt lat="44.93993" lon="6.18923">
        <ele>1424.9</ele>
        <time>2023-07-23T11:39:35Z</time>
      </trkpt>
      <trkpt lat="44.93994" lon="6.1892">
        <ele>1429.6</ele>
        <time>2023-07-23T11:39:42Z</time>
      </trkpt>
      <trkpt lat="44.93999" lon="6.18917">
        <ele>1431.4</ele>
        <time>2023-07-23T11:39:49Z</time>
      </trkpt>
      <trkpt lat="44.94006" lon="6.18915">
        <ele>1431.8</ele>
        <time>2023-07-23T11:39:56Z</time>
      </trkpt>
      <trkpt lat="44.9401" lon="6.18917">
        <ele>1437.5</ele>
        <time>2023-07-23T11:40:03Z</time>
      </trkpt>
      <trkpt lat="44.94014" lon="6.1892">
        <ele>1436.3</ele>
        <time>2023-07-23T11:40:10Z</time>
      </trkpt>
      <trkpt lat="44.94017" lon="6.18917">
        <ele>1434.5</ele>
        <time>2023-07-23T11:40:17Z</time>
      </trkpt>
      <trkpt lat="44.94021" lon="6.18914">
        <ele>1434.2</ele>
        <time>2023-07-23T11:40:24Z</time>
      </trkpt>
      <trkpt lat="44.94026" lon="6.18913">
        <ele>1436.5</ele>
        <time>2023-07-23T11:40:31Z</time>
      </trkpt>
      <trkpt lat="44.94032" lon="6.18913">
        <ele>1436.3</ele>
        <time>2023-07-23T11:40:38Z</time>
      </trkpt>
      <trkpt lat="44.94036" lon="6.18915">
        <ele>1434.3</ele>
        <time>2023-07-23T11:40:45Z</time>
      </trkpt>
      <trkpt lat="44.94042" lon="6.1891">
        <ele>1433.9</ele>
        <time>2023-07-23T11:40:52Z</time>
      </trkpt>
      <trkpt lat="44.94049" lon="6.18907">
        <ele>1431.9</ele>
        <time>2023-07-23T11:40:59Z</time>
      </trkpt>
      <trkpt lat="44.94057" lon="6.18902">
        <ele>1427</ele>
        <time>2023-07-23T11:41:06Z</time>
      </trkpt>
      <trkpt lat="44.94059" lon="6.18894">
        <ele>1425.6</ele>
        <time>2023-07-23T11:41:13Z</time>
      </trkpt>
      <trkpt lat="44.94066" lon="6.18892">
        <ele>1425.4</ele>
        <time>2023-07-23T11:41:20Z</time>
      </trkpt>
      <trkpt lat="44.94071" lon="6.18891">
        <ele>1424.3</ele>
        <time>2023-07-23T11:41:27Z</time>
      </trkpt>
      <trkpt lat="44.94073" lon="6.18887">
        <ele>1422.7</ele>
        <time>2023-07-23T11:41:34Z</time>
      </trkpt>
      <trkpt lat="44.94073" lon="6.18887">
        <ele>1422.8</ele>
        <time>2023-07-23T11:41:38Z</time>
      </trkpt>
      <trkpt lat="44.94077" lon="6.18885">
        <ele>1421.1</ele>
        <time>2023-07-23T11:41:49Z</time>
      </trkpt>
      <trkpt lat="44.94081" lon="6.18883">
        <ele>1417.1</ele>
        <time>2023-07-23T11:41:56Z</time>
      </trkpt>
      <trkpt lat="44.94084" lon="6.18885">
        <ele>1415.5</ele>
        <time>2023-07-23T11:42:03Z</time>
      </trkpt>
      <trkpt lat="44.94086" lon="6.1889">
        <ele>1415.9</ele>
        <time>2023-07-23T11:42:10Z</time>
      </trkpt>
      <trkpt lat="44.94091" lon="6.18882">
        <ele>1407</ele>
        <time>2023-07-23T11:42:17Z</time>
      </trkpt>
      <trkpt lat="44.94094" lon="6.18876">
        <ele>1403</ele>
        <time>2023-07-23T11:42:24Z</time>
      </trkpt>
      <trkpt lat="44.94098" lon="6.18873">
        <ele>1400.6</ele>
        <time>2023-07-23T11:42:31Z</time>
      </trkpt>
      <trkpt lat="44.94102" lon="6.18876">
        <ele>1398.8</ele>
        <time>2023-07-23T11:42:38Z</time>
      </trkpt>
      <trkpt lat="44.94102" lon="6.18876">
        <ele>1398.1</ele>
        <time>2023-07-23T11:42:45Z</time>
      </trkpt>
      <trkpt lat="44.94104" lon="6.18872">
        <ele>1398.7</ele>
        <time>2023-07-23T11:43:02Z</time>
      </trkpt>
      <trkpt lat="44.94104" lon="6.18872">
        <ele>1398.9</ele>
        <time>2023-07-23T11:43:03Z</time>
      </trkpt>
      <trkpt lat="44.94104" lon="6.18868">
        <ele>1399.1</ele>
        <time>2023-07-23T11:43:21Z</time>
      </trkpt>
      <trkpt lat="44.94104" lon="6.18868">
        <ele>1399.2</ele>
        <time>2023-07-23T11:43:22Z</time>
      </trkpt>
      <trkpt lat="44.94104" lon="6.18868">
        <ele>1397.9</ele>
        <time>2023-07-23T11:43:39Z</time>
      </trkpt>
      <trkpt lat="44.94104" lon="6.18868">
        <ele>1397.5</ele>
        <time>2023-07-23T11:43:40Z</time>
      </trkpt>
      <trkpt lat="44.94105" lon="6.18869">
        <ele>1397.6</ele>
        <time>2023-07-23T11:44:04Z</time>
      </trkpt>
      <trkpt lat="44.94106" lon="6.18868">
        <ele>1397.7</ele>
        <time>2023-07-23T11:44:05Z</time>
      </trkpt>
      <trkpt lat="44.94107" lon="6.18869">
        <ele>1398.6</ele>
        <time>2023-07-23T11:44:13Z</time>
      </trkpt>
      <trkpt lat="44.94108" lon="6.18869">
        <ele>1398.5</ele>
        <time>2023-07-23T11:44:15Z</time>
      </trkpt>
      <trkpt lat="44.94111" lon="6.18869">
        <ele>1399.8</ele>
        <time>2023-07-23T11:44:23Z</time>
      </trkpt>
      <trkpt lat="44.94113" lon="6.18869">
        <ele>1402.6</ele>
        <time>2023-07-23T11:44:30Z</time>
      </trkpt>
      <trkpt lat="44.94117" lon="6.18875">
        <ele>1402.2</ele>
        <time>2023-07-23T11:44:37Z</time>
      </trkpt>
      <trkpt lat="44.94119" lon="6.1887">
        <ele>1404.1</ele>
        <time>2023-07-23T11:44:44Z</time>
      </trkpt>
      <trkpt lat="44.94119" lon="6.18867">
        <ele>1406.5</ele>
        <time>2023-07-23T11:44:51Z</time>
      </trkpt>
      <trkpt lat="44.94123" lon="6.18863">
        <ele>1404.9</ele>
        <time>2023-07-23T11:44:58Z</time>
      </trkpt>
      <trkpt lat="44.94127" lon="6.18859">
        <ele>1410.2</ele>
        <time>2023-07-23T11:45:05Z</time>
      </trkpt>
      <trkpt lat="44.94132" lon="6.18855">
        <ele>1407.7</ele>
        <time>2023-07-23T11:45:12Z</time>
      </trkpt>
      <trkpt lat="44.94133" lon="6.18852">
        <ele>1407.2</ele>
        <time>2023-07-23T11:45:19Z</time>
      </trkpt>
      <trkpt lat="44.94133" lon="6.18851">
        <ele>1409.1</ele>
        <time>2023-07-23T11:45:26Z</time>
      </trkpt>
      <trkpt lat="44.94137" lon="6.18853">
        <ele>1412.3</ele>
        <time>2023-07-23T11:45:34Z</time>
      </trkpt>
      <trkpt lat="44.9414" lon="6.18851">
        <ele>1412.5</ele>
        <time>2023-07-23T11:45:41Z</time>
      </trkpt>
      <trkpt lat="44.94144" lon="6.18851">
        <ele>1412.8</ele>
        <time>2023-07-23T11:45:48Z</time>
      </trkpt>
      <trkpt lat="44.94149" lon="6.18849">
        <ele>1412.8</ele>
        <time>2023-07-23T11:45:55Z</time>
      </trkpt>
      <trkpt lat="44.94154" lon="6.18846">
        <ele>1407.7</ele>
        <time>2023-07-23T11:46:02Z</time>
      </trkpt>
      <trkpt lat="44.94158" lon="6.18844">
        <ele>1405.6</ele>
        <time>2023-07-23T11:46:09Z</time>
      </trkpt>
      <trkpt lat="44.94158" lon="6.18841">
        <ele>1405.1</ele>
        <time>2023-07-23T11:46:16Z</time>
      </trkpt>
      <trkpt lat="44.94163" lon="6.18842">
        <ele>1400.9</ele>
        <time>2023-07-23T11:46:23Z</time>
      </trkpt>
      <trkpt lat="44.94167" lon="6.18842">
        <ele>1397.2</ele>
        <time>2023-07-23T11:46:30Z</time>
      </trkpt>
      <trkpt lat="44.9417" lon="6.1884">
        <ele>1393.1</ele>
        <time>2023-07-23T11:46:37Z</time>
      </trkpt>
      <trkpt lat="44.94175" lon="6.18834">
        <ele>1388.1</ele>
        <time>2023-07-23T11:46:44Z</time>
      </trkpt>
      <trkpt lat="44.94175" lon="6.18834">
        <ele>1388.5</ele>
        <time>2023-07-23T11:46:49Z</time>
      </trkpt>
      <trkpt lat="44.94175" lon="6.18829">
        <ele>1389.2</ele>
        <time>2023-07-23T11:47:00Z</time>
      </trkpt>
      <trkpt lat="44.94175" lon="6.18829">
        <ele>1389.2</ele>
        <time>2023-07-23T11:47:01Z</time>
      </trkpt>
      <trkpt lat="44.94176" lon="6.18829">
        <ele>1390.5</ele>
        <time>2023-07-23T11:47:18Z</time>
      </trkpt>
      <trkpt lat="44.94178" lon="6.18826">
        <ele>1390.3</ele>
        <time>2023-07-23T11:47:25Z</time>
      </trkpt>
      <trkpt lat="44.94178" lon="6.18826">
        <ele>1391.8</ele>
        <time>2023-07-23T11:47:28Z</time>
      </trkpt>
      <trkpt lat="44.94178" lon="6.18824">
        <ele>1392.8</ele>
        <time>2023-07-23T11:47:55Z</time>
      </trkpt>
      <trkpt lat="44.94178" lon="6.18824">
        <ele>1392.8</ele>
        <time>2023-07-23T11:47:57Z</time>
      </trkpt>
      <trkpt lat="44.94178" lon="6.18824">
        <ele>1391.8</ele>
        <time>2023-07-23T11:48:50Z</time>
      </trkpt>
      <trkpt lat="44.94178" lon="6.18824">
        <ele>1391.8</ele>
        <time>2023-07-23T11:48:51Z</time>
      </trkpt>
      <trkpt lat="44.94178" lon="6.18819">
        <ele>1393.8</ele>
        <time>2023-07-23T11:50:15Z</time>
      </trkpt>
      <trkpt lat="44.9418" lon="6.18812">
        <ele>1392.7</ele>
        <time>2023-07-23T11:50:22Z</time>
      </trkpt>
      <trkpt lat="44.94184" lon="6.18807">
        <ele>1391</ele>
        <time>2023-07-23T11:50:29Z</time>
      </trkpt>
      <trkpt lat="44.94186" lon="6.18804">
        <ele>1393.2</ele>
        <time>2023-07-23T11:50:36Z</time>
      </trkpt>
      <trkpt lat="44.94191" lon="6.18801">
        <ele>1392.3</ele>
        <time>2023-07-23T11:50:43Z</time>
      </trkpt>
      <trkpt lat="44.94192" lon="6.18797">
        <ele>1392.5</ele>
        <time>2023-07-23T11:50:50Z</time>
      </trkpt>
      <trkpt lat="44.94195" lon="6.18795">
        <ele>1401.7</ele>
        <time>2023-07-23T11:50:57Z</time>
      </trkpt>
      <trkpt lat="44.94192" lon="6.18793">
        <ele>1399.7</ele>
        <time>2023-07-23T11:51:04Z</time>
      </trkpt>
      <trkpt lat="44.94191" lon="6.1879">
        <ele>1402</ele>
        <time>2023-07-23T11:51:11Z</time>
      </trkpt>
      <trkpt lat="44.94192" lon="6.18791">
        <ele>1402.9</ele>
        <time>2023-07-23T11:51:18Z</time>
      </trkpt>
      <trkpt lat="44.94193" lon="6.18791">
        <ele>1403.7</ele>
        <time>2023-07-23T11:51:22Z</time>
      </trkpt>
      <trkpt lat="44.94193" lon="6.18789">
        <ele>1410.4</ele>
        <time>2023-07-23T11:51:31Z</time>
      </trkpt>
      <trkpt lat="44.94191" lon="6.18789">
        <ele>1412.5</ele>
        <time>2023-07-23T11:51:36Z</time>
      </trkpt>
      <trkpt lat="44.94194" lon="6.1879">
        <ele>1412</ele>
        <time>2023-07-23T11:51:45Z</time>
      </trkpt>
      <trkpt lat="44.94196" lon="6.18786">
        <ele>1412</ele>
        <time>2023-07-23T11:51:52Z</time>
      </trkpt>
      <trkpt lat="44.94196" lon="6.18786">
        <ele>1409.6</ele>
        <time>2023-07-23T11:51:59Z</time>
      </trkpt>
      <trkpt lat="44.94198" lon="6.18784">
        <ele>1408.9</ele>
        <time>2023-07-23T11:52:06Z</time>
      </trkpt>
      <trkpt lat="44.94201" lon="6.1878">
        <ele>1413.5</ele>
        <time>2023-07-23T11:52:13Z</time>
      </trkpt>
      <trkpt lat="44.94204" lon="6.18779">
        <ele>1413.3</ele>
        <time>2023-07-23T11:52:20Z</time>
      </trkpt>
      <trkpt lat="44.94203" lon="6.18779">
        <ele>1411.8</ele>
        <time>2023-07-23T11:52:26Z</time>
      </trkpt>
      <trkpt lat="44.94204" lon="6.18774">
        <ele>1413.1</ele>
        <time>2023-07-23T11:52:33Z</time>
      </trkpt>
      <trkpt lat="44.94207" lon="6.18772">
        <ele>1413.6</ele>
        <time>2023-07-23T11:52:40Z</time>
      </trkpt>
      <trkpt lat="44.94209" lon="6.18767">
        <ele>1416.2</ele>
        <time>2023-07-23T11:52:47Z</time>
      </trkpt>
      <trkpt lat="44.94211" lon="6.18762">
        <ele>1413.2</ele>
        <time>2023-07-23T11:52:54Z</time>
      </trkpt>
      <trkpt lat="44.94214" lon="6.18753">
        <ele>1409.5</ele>
        <time>2023-07-23T11:53:01Z</time>
      </trkpt>
      <trkpt lat="44.9422" lon="6.18746">
        <ele>1414.6</ele>
        <time>2023-07-23T11:53:08Z</time>
      </trkpt>
      <trkpt lat="44.94222" lon="6.18745">
        <ele>1415.6</ele>
        <time>2023-07-23T11:53:15Z</time>
      </trkpt>
      <trkpt lat="44.94225" lon="6.18745">
        <ele>1414.4</ele>
        <time>2023-07-23T11:53:22Z</time>
      </trkpt>
      <trkpt lat="44.94231" lon="6.18742">
        <ele>1411.7</ele>
        <time>2023-07-23T11:53:29Z</time>
      </trkpt>
      <trkpt lat="44.94236" lon="6.18735">
        <ele>1407.9</ele>
        <time>2023-07-23T11:53:36Z</time>
      </trkpt>
      <trkpt lat="44.94243" lon="6.18731">
        <ele>1408.1</ele>
        <time>2023-07-23T11:53:43Z</time>
      </trkpt>
      <trkpt lat="44.94247" lon="6.18727">
        <ele>1404.7</ele>
        <time>2023-07-23T11:53:50Z</time>
      </trkpt>
      <trkpt lat="44.94249" lon="6.18725">
        <ele>1407.3</ele>
        <time>2023-07-23T11:53:57Z</time>
      </trkpt>
      <trkpt lat="44.9425" lon="6.18725">
        <ele>1406.9</ele>
        <time>2023-07-23T11:54:04Z</time>
      </trkpt>
      <trkpt lat="44.9425" lon="6.18724">
        <ele>1406.9</ele>
        <time>2023-07-23T11:54:11Z</time>
      </trkpt>
      <trkpt lat="44.94254" lon="6.18714">
        <ele>1406.7</ele>
        <time>2023-07-23T11:54:17Z</time>
      </trkpt>
      <trkpt lat="44.94256" lon="6.18704">
        <ele>1406.6</ele>
        <time>2023-07-23T11:54:23Z</time>
      </trkpt>
      <trkpt lat="44.94254" lon="6.18694">
        <ele>1404</ele>
        <time>2023-07-23T11:54:28Z</time>
      </trkpt>
      <trkpt lat="44.94258" lon="6.18687">
        <ele>1408.6</ele>
        <time>2023-07-23T11:54:35Z</time>
      </trkpt>
      <trkpt lat="44.94262" lon="6.18683">
        <ele>1408.2</ele>
        <time>2023-07-23T11:54:42Z</time>
      </trkpt>
      <trkpt lat="44.94268" lon="6.1868">
        <ele>1409.4</ele>
        <time>2023-07-23T11:54:49Z</time>
      </trkpt>
      <trkpt lat="44.94277" lon="6.18678">
        <ele>1409.4</ele>
        <time>2023-07-23T11:54:53Z</time>
      </trkpt>
      <trkpt lat="44.94284" lon="6.18678">
        <ele>1410.2</ele>
        <time>2023-07-23T11:55:00Z</time>
      </trkpt>
      <trkpt lat="44.94287" lon="6.18677">
        <ele>1405.6</ele>
        <time>2023-07-23T11:55:07Z</time>
      </trkpt>
      <trkpt lat="44.9429" lon="6.18674">
        <ele>1404.9</ele>
        <time>2023-07-23T11:55:14Z</time>
      </trkpt>
      <trkpt lat="44.94287" lon="6.18673">
        <ele>1407.2</ele>
        <time>2023-07-23T11:55:21Z</time>
      </trkpt>
      <trkpt lat="44.94288" lon="6.18668">
        <ele>1406.6</ele>
        <time>2023-07-23T11:55:28Z</time>
      </trkpt>
      <trkpt lat="44.94294" lon="6.18665">
        <ele>1407</ele>
        <time>2023-07-23T11:55:35Z</time>
      </trkpt>
      <trkpt lat="44.94299" lon="6.18659">
        <ele>1407.9</ele>
        <time>2023-07-23T11:55:42Z</time>
      </trkpt>
      <trkpt lat="44.94306" lon="6.18653">
        <ele>1407.3</ele>
        <time>2023-07-23T11:55:48Z</time>
      </trkpt>
      <trkpt lat="44.94307" lon="6.18646">
        <ele>1409.6</ele>
        <time>2023-07-23T11:55:55Z</time>
      </trkpt>
      <trkpt lat="44.94301" lon="6.18638">
        <ele>1408.7</ele>
        <time>2023-07-23T11:55:58Z</time>
      </trkpt>
      <trkpt lat="44.94296" lon="6.1863">
        <ele>1410.9</ele>
        <time>2023-07-23T11:56:03Z</time>
      </trkpt>
      <trkpt lat="44.94287" lon="6.18621">
        <ele>1410.9</ele>
        <time>2023-07-23T11:56:08Z</time>
      </trkpt>
      <trkpt lat="44.94288" lon="6.18615">
        <ele>1410.9</ele>
        <time>2023-07-23T11:56:15Z</time>
      </trkpt>
      <trkpt lat="44.94289" lon="6.18612">
        <ele>1410.9</ele>
        <time>2023-07-23T11:56:22Z</time>
      </trkpt>
      <trkpt lat="44.94289" lon="6.18612">
        <ele>1410.9</ele>
        <time>2023-07-23T11:56:26Z</time>
      </trkpt>
      <trkpt lat="44.94291" lon="6.18611">
        <ele>1423.4</ele>
        <time>2023-07-23T11:57:52Z</time>
      </trkpt>
      <trkpt lat="44.94291" lon="6.18611">
        <ele>1423.5</ele>
        <time>2023-07-23T11:57:55Z</time>
      </trkpt>
      <trkpt lat="44.94294" lon="6.18607">
        <ele>1426.3</ele>
        <time>2023-07-23T12:01:16Z</time>
      </trkpt>
      <trkpt lat="44.94298" lon="6.186">
        <ele>1421.7</ele>
        <time>2023-07-23T12:01:23Z</time>
      </trkpt>
      <trkpt lat="44.94301" lon="6.18593">
        <ele>1420.6</ele>
        <time>2023-07-23T12:01:30Z</time>
      </trkpt>
      <trkpt lat="44.94297" lon="6.18587">
        <ele>1418.8</ele>
        <time>2023-07-23T12:01:37Z</time>
      </trkpt>
      <trkpt lat="44.94294" lon="6.18587">
        <ele>1419</ele>
        <time>2023-07-23T12:01:44Z</time>
      </trkpt>
      <trkpt lat="44.94291" lon="6.18581">
        <ele>1413.4</ele>
        <time>2023-07-23T12:01:51Z</time>
      </trkpt>
      <trkpt lat="44.94284" lon="6.18577">
        <ele>1413.9</ele>
        <time>2023-07-23T12:01:57Z</time>
      </trkpt>
      <trkpt lat="44.94284" lon="6.1857">
        <ele>1413.2</ele>
        <time>2023-07-23T12:02:04Z</time>
      </trkpt>
      <trkpt lat="44.94287" lon="6.18563">
        <ele>1415.7</ele>
        <time>2023-07-23T12:02:11Z</time>
      </trkpt>
      <trkpt lat="44.94291" lon="6.18558">
        <ele>1417.9</ele>
        <time>2023-07-23T12:02:18Z</time>
      </trkpt>
      <trkpt lat="44.94289" lon="6.18549">
        <ele>1419</ele>
        <time>2023-07-23T12:02:25Z</time>
      </trkpt>
      <trkpt lat="44.94289" lon="6.18542">
        <ele>1417.7</ele>
        <time>2023-07-23T12:02:32Z</time>
      </trkpt>
      <trkpt lat="44.94288" lon="6.18537">
        <ele>1418.8</ele>
        <time>2023-07-23T12:02:39Z</time>
      </trkpt>
      <trkpt lat="44.94295" lon="6.18533">
        <ele>1419.2</ele>
        <time>2023-07-23T12:02:44Z</time>
      </trkpt>
      <trkpt lat="44.94301" lon="6.18536">
        <ele>1421.1</ele>
        <time>2023-07-23T12:02:51Z</time>
      </trkpt>
      <trkpt lat="44.94304" lon="6.18539">
        <ele>1421.4</ele>
        <time>2023-07-23T12:02:58Z</time>
      </trkpt>
      <trkpt lat="44.94301" lon="6.18535">
        <ele>1425.4</ele>
        <time>2023-07-23T12:03:05Z</time>
      </trkpt>
      <trkpt lat="44.94309" lon="6.18533">
        <ele>1424</ele>
        <time>2023-07-23T12:03:10Z</time>
      </trkpt>
      <trkpt lat="44.94305" lon="6.18532">
        <ele>1422</ele>
        <time>2023-07-23T12:03:17Z</time>
      </trkpt>
      <trkpt lat="44.94304" lon="6.1853">
        <ele>1423.8</ele>
        <time>2023-07-23T12:03:24Z</time>
      </trkpt>
      <trkpt lat="44.94299" lon="6.18529">
        <ele>1421.7</ele>
        <time>2023-07-23T12:03:31Z</time>
      </trkpt>
      <trkpt lat="44.94297" lon="6.18521">
        <ele>1424.8</ele>
        <time>2023-07-23T12:03:38Z</time>
      </trkpt>
      <trkpt lat="44.94292" lon="6.18512">
        <ele>1423.7</ele>
        <time>2023-07-23T12:03:45Z</time>
      </trkpt>
      <trkpt lat="44.94301" lon="6.18509">
        <ele>1428.4</ele>
        <time>2023-07-23T12:03:52Z</time>
      </trkpt>
      <trkpt lat="44.94307" lon="6.18504">
        <ele>1427.4</ele>
        <time>2023-07-23T12:03:59Z</time>
      </trkpt>
      <trkpt lat="44.94311" lon="6.185">
        <ele>1423.6</ele>
        <time>2023-07-23T12:04:06Z</time>
      </trkpt>
      <trkpt lat="44.94306" lon="6.18492">
        <ele>1420.1</ele>
        <time>2023-07-23T12:04:12Z</time>
      </trkpt>
      <trkpt lat="44.94308" lon="6.18486">
        <ele>1422.9</ele>
        <time>2023-07-23T12:04:19Z</time>
      </trkpt>
      <trkpt lat="44.94313" lon="6.18478">
        <ele>1425.7</ele>
        <time>2023-07-23T12:04:26Z</time>
      </trkpt>
      <trkpt lat="44.94318" lon="6.18478">
        <ele>1422.1</ele>
        <time>2023-07-23T12:04:33Z</time>
      </trkpt>
      <trkpt lat="44.94318" lon="6.18471">
        <ele>1420.4</ele>
        <time>2023-07-23T12:04:40Z</time>
      </trkpt>
      <trkpt lat="44.94322" lon="6.18462">
        <ele>1421.5</ele>
        <time>2023-07-23T12:04:46Z</time>
      </trkpt>
      <trkpt lat="44.94324" lon="6.18461">
        <ele>1423.6</ele>
        <time>2023-07-23T12:04:53Z</time>
      </trkpt>
      <trkpt lat="44.9433" lon="6.18458">
        <ele>1424.8</ele>
        <time>2023-07-23T12:05:00Z</time>
      </trkpt>
      <trkpt lat="44.94333" lon="6.18454">
        <ele>1425.1</ele>
        <time>2023-07-23T12:05:07Z</time>
      </trkpt>
      <trkpt lat="44.94339" lon="6.18446">
        <ele>1425.1</ele>
        <time>2023-07-23T12:05:14Z</time>
      </trkpt>
      <trkpt lat="44.94343" lon="6.18437">
        <ele>1424</ele>
        <time>2023-07-23T12:05:21Z</time>
      </trkpt>
      <trkpt lat="44.94346" lon="6.18433">
        <ele>1424.7</ele>
        <time>2023-07-23T12:05:28Z</time>
      </trkpt>
      <trkpt lat="44.94346" lon="6.18432">
        <ele>1425</ele>
        <time>2023-07-23T12:05:35Z</time>
      </trkpt>
      <trkpt lat="44.94346" lon="6.18432">
        <ele>1425.7</ele>
        <time>2023-07-23T12:05:39Z</time>
      </trkpt>
      <trkpt lat="44.94347" lon="6.18432">
        <ele>1426</ele>
        <time>2023-07-23T12:05:46Z</time>
      </trkpt>
      <trkpt lat="44.94347" lon="6.18432">
        <ele>1426.7</ele>
        <time>2023-07-23T12:05:52Z</time>
      </trkpt>
      <trkpt lat="44.9435" lon="6.18427">
        <ele>1429.4</ele>
        <time>2023-07-23T12:06:48Z</time>
      </trkpt>
      <trkpt lat="44.94349" lon="6.18425">
        <ele>1429.4</ele>
        <time>2023-07-23T12:06:54Z</time>
      </trkpt>
      <trkpt lat="44.94351" lon="6.18427">
        <ele>1429.8</ele>
        <time>2023-07-23T12:07:01Z</time>
      </trkpt>
      <trkpt lat="44.94353" lon="6.18429">
        <ele>1429.8</ele>
        <time>2023-07-23T12:07:08Z</time>
      </trkpt>
      <trkpt lat="44.94354" lon="6.18427">
        <ele>1429.3</ele>
        <time>2023-07-23T12:07:15Z</time>
      </trkpt>
      <trkpt lat="44.94355" lon="6.18423">
        <ele>1429.7</ele>
        <time>2023-07-23T12:07:22Z</time>
      </trkpt>
      <trkpt lat="44.94355" lon="6.18423">
        <ele>1429.4</ele>
        <time>2023-07-23T12:07:25Z</time>
      </trkpt>
      <trkpt lat="44.94353" lon="6.18425">
        <ele>1430.4</ele>
        <time>2023-07-23T12:07:32Z</time>
      </trkpt>
      <trkpt lat="44.94353" lon="6.18425">
        <ele>1430</ele>
        <time>2023-07-23T12:07:33Z</time>
      </trkpt>
      <trkpt lat="44.94355" lon="6.18427">
        <ele>1430.3</ele>
        <time>2023-07-23T12:07:42Z</time>
      </trkpt>
      <trkpt lat="44.94356" lon="6.18425">
        <ele>1428</ele>
        <time>2023-07-23T12:07:49Z</time>
      </trkpt>
      <trkpt lat="44.94356" lon="6.18423">
        <ele>1427.4</ele>
        <time>2023-07-23T12:07:56Z</time>
      </trkpt>
      <trkpt lat="44.94355" lon="6.18423">
        <ele>1427.4</ele>
        <time>2023-07-23T12:07:59Z</time>
      </trkpt>
      <trkpt lat="44.94359" lon="6.18416">
        <ele>1425.5</ele>
        <time>2023-07-23T12:08:07Z</time>
      </trkpt>
      <trkpt lat="44.94362" lon="6.18406">
        <ele>1425.2</ele>
        <time>2023-07-23T12:08:14Z</time>
      </trkpt>
      <trkpt lat="44.94364" lon="6.184">
        <ele>1425.1</ele>
        <time>2023-07-23T12:08:21Z</time>
      </trkpt>
      <trkpt lat="44.94367" lon="6.18398">
        <ele>1425</ele>
        <time>2023-07-23T12:08:28Z</time>
      </trkpt>
      <trkpt lat="44.9437" lon="6.18398">
        <ele>1422.5</ele>
        <time>2023-07-23T12:08:35Z</time>
      </trkpt>
      <trkpt lat="44.94377" lon="6.18393">
        <ele>1412.9</ele>
        <time>2023-07-23T12:08:40Z</time>
      </trkpt>
      <trkpt lat="44.94384" lon="6.18386">
        <ele>1412.8</ele>
        <time>2023-07-23T12:08:46Z</time>
      </trkpt>
      <trkpt lat="44.94379" lon="6.1838">
        <ele>1407.3</ele>
        <time>2023-07-23T12:08:53Z</time>
      </trkpt>
      <trkpt lat="44.94377" lon="6.18372">
        <ele>1409.5</ele>
        <time>2023-07-23T12:09:00Z</time>
      </trkpt>
      <trkpt lat="44.94381" lon="6.18367">
        <ele>1413.8</ele>
        <time>2023-07-23T12:09:07Z</time>
      </trkpt>
      <trkpt lat="44.94381" lon="6.18367">
        <ele>1416.8</ele>
        <time>2023-07-23T12:09:13Z</time>
      </trkpt>
      <trkpt lat="44.94384" lon="6.18362">
        <ele>1414.6</ele>
        <time>2023-07-23T12:09:20Z</time>
      </trkpt>
      <trkpt lat="44.94391" lon="6.18357">
        <ele>1410.7</ele>
        <time>2023-07-23T12:09:27Z</time>
      </trkpt>
      <trkpt lat="44.94397" lon="6.18351">
        <ele>1407.1</ele>
        <time>2023-07-23T12:09:32Z</time>
      </trkpt>
      <trkpt lat="44.94401" lon="6.18344">
        <ele>1407.8</ele>
        <time>2023-07-23T12:09:39Z</time>
      </trkpt>
      <trkpt lat="44.94406" lon="6.1834">
        <ele>1408</ele>
        <time>2023-07-23T12:09:46Z</time>
      </trkpt>
      <trkpt lat="44.94413" lon="6.18336">
        <ele>1410.8</ele>
        <time>2023-07-23T12:09:53Z</time>
      </trkpt>
      <trkpt lat="44.94416" lon="6.18331">
        <ele>1408.2</ele>
        <time>2023-07-23T12:10:00Z</time>
      </trkpt>
      <trkpt lat="44.94419" lon="6.18326">
        <ele>1413.4</ele>
        <time>2023-07-23T12:10:07Z</time>
      </trkpt>
      <trkpt lat="44.94424" lon="6.18317">
        <ele>1406.2</ele>
        <time>2023-07-23T12:10:14Z</time>
      </trkpt>
      <trkpt lat="44.94429" lon="6.18309">
        <ele>1407.3</ele>
        <time>2023-07-23T12:10:20Z</time>
      </trkpt>
      <trkpt lat="44.94431" lon="6.183">
        <ele>1406.7</ele>
        <time>2023-07-23T12:10:27Z</time>
      </trkpt>
      <trkpt lat="44.94436" lon="6.18297">
        <ele>1415.1</ele>
        <time>2023-07-23T12:10:34Z</time>
      </trkpt>
      <trkpt lat="44.94439" lon="6.183">
        <ele>1413.7</ele>
        <time>2023-07-23T12:10:41Z</time>
      </trkpt>
      <trkpt lat="44.94442" lon="6.18296">
        <ele>1408.7</ele>
        <time>2023-07-23T12:10:48Z</time>
      </trkpt>
      <trkpt lat="44.94447" lon="6.18288">
        <ele>1405.9</ele>
        <time>2023-07-23T12:10:54Z</time>
      </trkpt>
      <trkpt lat="44.94453" lon="6.18286">
        <ele>1405.8</ele>
        <time>2023-07-23T12:11:01Z</time>
      </trkpt>
      <trkpt lat="44.94457" lon="6.18288">
        <ele>1400.6</ele>
        <time>2023-07-23T12:11:08Z</time>
      </trkpt>
      <trkpt lat="44.9446" lon="6.18287">
        <ele>1397</ele>
        <time>2023-07-23T12:11:15Z</time>
      </trkpt>
      <trkpt lat="44.94465" lon="6.18278">
        <ele>1398.1</ele>
        <time>2023-07-23T12:11:22Z</time>
      </trkpt>
      <trkpt lat="44.94467" lon="6.18268">
        <ele>1397.6</ele>
        <time>2023-07-23T12:11:29Z</time>
      </trkpt>
      <trkpt lat="44.94471" lon="6.1826">
        <ele>1396.8</ele>
        <time>2023-07-23T12:11:36Z</time>
      </trkpt>
      <trkpt lat="44.94474" lon="6.18252">
        <ele>1396.7</ele>
        <time>2023-07-23T12:11:43Z</time>
      </trkpt>
      <trkpt lat="44.94476" lon="6.18245">
        <ele>1399.6</ele>
        <time>2023-07-23T12:11:50Z</time>
      </trkpt>
      <trkpt lat="44.94477" lon="6.1824">
        <ele>1399.5</ele>
        <time>2023-07-23T12:11:57Z</time>
      </trkpt>
      <trkpt lat="44.9448" lon="6.18236">
        <ele>1399.8</ele>
        <time>2023-07-23T12:12:04Z</time>
      </trkpt>
      <trkpt lat="44.94484" lon="6.18233">
        <ele>1401.6</ele>
        <time>2023-07-23T12:12:11Z</time>
      </trkpt>
      <trkpt lat="44.94489" lon="6.18234">
        <ele>1407.3</ele>
        <time>2023-07-23T12:12:18Z</time>
      </trkpt>
      <trkpt lat="44.94494" lon="6.1823">
        <ele>1405.7</ele>
        <time>2023-07-23T12:12:25Z</time>
      </trkpt>
      <trkpt lat="44.94496" lon="6.18235">
        <ele>1406</ele>
        <time>2023-07-23T12:12:32Z</time>
      </trkpt>
      <trkpt lat="44.94496" lon="6.18236">
        <ele>1404.5</ele>
        <time>2023-07-23T12:12:34Z</time>
      </trkpt>
      <trkpt lat="44.94499" lon="6.18236">
        <ele>1405.9</ele>
        <time>2023-07-23T12:12:42Z</time>
      </trkpt>
      <trkpt lat="44.94502" lon="6.18232">
        <ele>1405.5</ele>
        <time>2023-07-23T12:12:49Z</time>
      </trkpt>
      <trkpt lat="44.94503" lon="6.18231">
        <ele>1405.4</ele>
        <time>2023-07-23T12:12:56Z</time>
      </trkpt>
      <trkpt lat="44.94503" lon="6.18231">
        <ele>1405.4</ele>
        <time>2023-07-23T12:12:58Z</time>
      </trkpt>
      <trkpt lat="44.94504" lon="6.1823">
        <ele>1406.7</ele>
        <time>2023-07-23T12:13:48Z</time>
      </trkpt>
      <trkpt lat="44.94504" lon="6.1823">
        <ele>1406.7</ele>
        <time>2023-07-23T12:13:49Z</time>
      </trkpt>
      <trkpt lat="44.94504" lon="6.18228">
        <ele>1406.9</ele>
        <time>2023-07-23T12:14:07Z</time>
      </trkpt>
      <trkpt lat="44.94504" lon="6.18228">
        <ele>1406.9</ele>
        <time>2023-07-23T12:14:08Z</time>
      </trkpt>
      <trkpt lat="44.94505" lon="6.18227">
        <ele>1406.9</ele>
        <time>2023-07-23T12:15:12Z</time>
      </trkpt>
      <trkpt lat="44.94505" lon="6.18227">
        <ele>1406.9</ele>
        <time>2023-07-23T12:15:13Z</time>
      </trkpt>
      <trkpt lat="44.94505" lon="6.18226">
        <ele>1407</ele>
        <time>2023-07-23T12:15:30Z</time>
      </trkpt>
      <trkpt lat="44.94505" lon="6.18226">
        <ele>1407</ele>
        <time>2023-07-23T12:15:31Z</time>
      </trkpt>
      <trkpt lat="44.94505" lon="6.18226">
        <ele>1407</ele>
        <time>2023-07-23T12:16:11Z</time>
      </trkpt>
      <trkpt lat="44.94505" lon="6.18226">
        <ele>1407</ele>
        <time>2023-07-23T12:16:12Z</time>
      </trkpt>
      <trkpt lat="44.9451" lon="6.1822">
        <ele>1407</ele>
        <time>2023-07-23T12:16:21Z</time>
      </trkpt>
      <trkpt lat="44.94516" lon="6.18219">
        <ele>1407.6</ele>
        <time>2023-07-23T12:16:28Z</time>
      </trkpt>
      <trkpt lat="44.94523" lon="6.1822">
        <ele>1401</ele>
        <time>2023-07-23T12:16:31Z</time>
      </trkpt>
      <trkpt lat="44.9453" lon="6.18217">
        <ele>1402.2</ele>
        <time>2023-07-23T12:16:38Z</time>
      </trkpt>
      <trkpt lat="44.94534" lon="6.18214">
        <ele>1397.8</ele>
        <time>2023-07-23T12:16:45Z</time>
      </trkpt>
      <trkpt lat="44.9454" lon="6.18209">
        <ele>1398</ele>
        <time>2023-07-23T12:16:52Z</time>
      </trkpt>
      <trkpt lat="44.94545" lon="6.18209">
        <ele>1400</ele>
        <time>2023-07-23T12:16:59Z</time>
      </trkpt>
      <trkpt lat="44.94546" lon="6.18206">
        <ele>1399.6</ele>
        <time>2023-07-23T12:17:06Z</time>
      </trkpt>
      <trkpt lat="44.94546" lon="6.18206">
        <ele>1399.6</ele>
        <time>2023-07-23T12:17:09Z</time>
      </trkpt>
      <trkpt lat="44.94546" lon="6.18208">
        <ele>1399.1</ele>
        <time>2023-07-23T12:17:44Z</time>
      </trkpt>
      <trkpt lat="44.94548" lon="6.1821">
        <ele>1402.3</ele>
        <time>2023-07-23T12:17:51Z</time>
      </trkpt>
      <trkpt lat="44.94549" lon="6.18208">
        <ele>1403.4</ele>
        <time>2023-07-23T12:17:58Z</time>
      </trkpt>
      <trkpt lat="44.94548" lon="6.18204">
        <ele>1398.6</ele>
        <time>2023-07-23T12:18:05Z</time>
      </trkpt>
      <trkpt lat="44.94548" lon="6.18203">
        <ele>1397.6</ele>
        <time>2023-07-23T12:18:12Z</time>
      </trkpt>
      <trkpt lat="44.94545" lon="6.18201">
        <ele>1400</ele>
        <time>2023-07-23T12:18:19Z</time>
      </trkpt>
      <trkpt lat="44.94548" lon="6.18195">
        <ele>1396.2</ele>
        <time>2023-07-23T12:18:26Z</time>
      </trkpt>
      <trkpt lat="44.94551" lon="6.18192">
        <ele>1396.1</ele>
        <time>2023-07-23T12:18:33Z</time>
      </trkpt>
      <trkpt lat="44.94554" lon="6.18187">
        <ele>1396.8</ele>
        <time>2023-07-23T12:18:40Z</time>
      </trkpt>
      <trkpt lat="44.94557" lon="6.18185">
        <ele>1396</ele>
        <time>2023-07-23T12:18:47Z</time>
      </trkpt>
      <trkpt lat="44.94559" lon="6.18183">
        <ele>1395.5</ele>
        <time>2023-07-23T12:18:54Z</time>
      </trkpt>
      <trkpt lat="44.94563" lon="6.18173">
        <ele>1396.7</ele>
        <time>2023-07-23T12:19:01Z</time>
      </trkpt>
      <trkpt lat="44.94567" lon="6.1817">
        <ele>1391.2</ele>
        <time>2023-07-23T12:19:08Z</time>
      </trkpt>
      <trkpt lat="44.9457" lon="6.18169">
        <ele>1391.7</ele>
        <time>2023-07-23T12:19:15Z</time>
      </trkpt>
      <trkpt lat="44.94572" lon="6.1817">
        <ele>1391.6</ele>
        <time>2023-07-23T12:19:22Z</time>
      </trkpt>
      <trkpt lat="44.94581" lon="6.18173">
        <ele>1393.6</ele>
        <time>2023-07-23T12:19:28Z</time>
      </trkpt>
      <trkpt lat="44.94585" lon="6.18172">
        <ele>1392.5</ele>
        <time>2023-07-23T12:19:35Z</time>
      </trkpt>
      <trkpt lat="44.94586" lon="6.18165">
        <ele>1382.9</ele>
        <time>2023-07-23T12:19:42Z</time>
      </trkpt>
      <trkpt lat="44.94587" lon="6.1816">
        <ele>1381.8</ele>
        <time>2023-07-23T12:19:49Z</time>
      </trkpt>
      <trkpt lat="44.94587" lon="6.1816">
        <ele>1382.3</ele>
        <time>2023-07-23T12:19:51Z</time>
      </trkpt>
      <trkpt lat="44.94589" lon="6.18152">
        <ele>1379</ele>
        <time>2023-07-23T12:20:00Z</time>
      </trkpt>
      <trkpt lat="44.94589" lon="6.18143">
        <ele>1378.6</ele>
        <time>2023-07-23T12:20:07Z</time>
      </trkpt>
      <trkpt lat="44.9459" lon="6.18138">
        <ele>1375.5</ele>
        <time>2023-07-23T12:20:14Z</time>
      </trkpt>
      <trkpt lat="44.94592" lon="6.18127">
        <ele>1376.7</ele>
        <time>2023-07-23T12:20:21Z</time>
      </trkpt>
      <trkpt lat="44.94592" lon="6.18118">
        <ele>1378.4</ele>
        <time>2023-07-23T12:20:28Z</time>
      </trkpt>
      <trkpt lat="44.94592" lon="6.18116">
        <ele>1378.3</ele>
        <time>2023-07-23T12:20:35Z</time>
      </trkpt>
      <trkpt lat="44.94593" lon="6.18112">
        <ele>1380</ele>
        <time>2023-07-23T12:20:42Z</time>
      </trkpt>
      <trkpt lat="44.94597" lon="6.1811">
        <ele>1386.4</ele>
        <time>2023-07-23T12:20:49Z</time>
      </trkpt>
      <trkpt lat="44.946" lon="6.18106">
        <ele>1385.7</ele>
        <time>2023-07-23T12:20:56Z</time>
      </trkpt>
      <trkpt lat="44.94602" lon="6.18103">
        <ele>1387.8</ele>
        <time>2023-07-23T12:21:03Z</time>
      </trkpt>
      <trkpt lat="44.94607" lon="6.18099">
        <ele>1386.6</ele>
        <time>2023-07-23T12:21:10Z</time>
      </trkpt>
      <trkpt lat="44.9461" lon="6.18099">
        <ele>1390.1</ele>
        <time>2023-07-23T12:21:17Z</time>
      </trkpt>
      <trkpt lat="44.94617" lon="6.18103">
        <ele>1394.3</ele>
        <time>2023-07-23T12:21:24Z</time>
      </trkpt>
      <trkpt lat="44.94619" lon="6.18101">
        <ele>1394.4</ele>
        <time>2023-07-23T12:21:31Z</time>
      </trkpt>
      <trkpt lat="44.94625" lon="6.18099">
        <ele>1393</ele>
        <time>2023-07-23T12:21:38Z</time>
      </trkpt>
      <trkpt lat="44.94627" lon="6.18097">
        <ele>1391.7</ele>
        <time>2023-07-23T12:21:45Z</time>
      </trkpt>
      <trkpt lat="44.94629" lon="6.18093">
        <ele>1387</ele>
        <time>2023-07-23T12:21:52Z</time>
      </trkpt>
      <trkpt lat="44.94629" lon="6.18089">
        <ele>1386.1</ele>
        <time>2023-07-23T12:21:59Z</time>
      </trkpt>
      <trkpt lat="44.94629" lon="6.18089">
        <ele>1383.7</ele>
        <time>2023-07-23T12:22:06Z</time>
      </trkpt>
      <trkpt lat="44.94631" lon="6.18078">
        <ele>1379</ele>
        <time>2023-07-23T12:23:13Z</time>
      </trkpt>
      <trkpt lat="44.94632" lon="6.18077">
        <ele>1376.3</ele>
        <time>2023-07-23T12:23:20Z</time>
      </trkpt>
      <trkpt lat="44.94632" lon="6.18077">
        <ele>1376.7</ele>
        <time>2023-07-23T12:23:24Z</time>
      </trkpt>
      <trkpt lat="44.94633" lon="6.18076">
        <ele>1376.6</ele>
        <time>2023-07-23T12:23:39Z</time>
      </trkpt>
      <trkpt lat="44.94633" lon="6.18076">
        <ele>1376.6</ele>
        <time>2023-07-23T12:23:40Z</time>
      </trkpt>
      <trkpt lat="44.94633" lon="6.18075">
        <ele>1377.4</ele>
        <time>2023-07-23T12:24:08Z</time>
      </trkpt>
      <trkpt lat="44.94633" lon="6.18075">
        <ele>1377.3</ele>
        <time>2023-07-23T12:24:09Z</time>
      </trkpt>
      <trkpt lat="44.94635" lon="6.18071">
        <ele>1376.1</ele>
        <time>2023-07-23T12:26:14Z</time>
      </trkpt>
      <trkpt lat="44.94635" lon="6.18071">
        <ele>1376.1</ele>
        <time>2023-07-23T12:26:15Z</time>
      </trkpt>
      <trkpt lat="44.94641" lon="6.18067">
        <ele>1376.8</ele>
        <time>2023-07-23T12:26:54Z</time>
      </trkpt>
      <trkpt lat="44.94644" lon="6.18068">
        <ele>1380</ele>
        <time>2023-07-23T12:27:01Z</time>
      </trkpt>
      <trkpt lat="44.94648" lon="6.1807">
        <ele>1378.1</ele>
        <time>2023-07-23T12:27:08Z</time>
      </trkpt>
      <trkpt lat="44.94655" lon="6.18067">
        <ele>1385</ele>
        <time>2023-07-23T12:27:15Z</time>
      </trkpt>
      <trkpt lat="44.94659" lon="6.18065">
        <ele>1388.9</ele>
        <time>2023-07-23T12:27:22Z</time>
      </trkpt>
      <trkpt lat="44.94662" lon="6.18061">
        <ele>1382.8</ele>
        <time>2023-07-23T12:27:29Z</time>
      </trkpt>
      <trkpt lat="44.94668" lon="6.18056">
        <ele>1378</ele>
        <time>2023-07-23T12:27:36Z</time>
      </trkpt>
      <trkpt lat="44.94673" lon="6.18049">
        <ele>1375.6</ele>
        <time>2023-07-23T12:27:43Z</time>
      </trkpt>
      <trkpt lat="44.94676" lon="6.18048">
        <ele>1376.2</ele>
        <time>2023-07-23T12:27:50Z</time>
      </trkpt>
      <trkpt lat="44.94679" lon="6.18042">
        <ele>1371.6</ele>
        <time>2023-07-23T12:27:57Z</time>
      </trkpt>
      <trkpt lat="44.94684" lon="6.18038">
        <ele>1372.8</ele>
        <time>2023-07-23T12:28:04Z</time>
      </trkpt>
      <trkpt lat="44.94688" lon="6.18035">
        <ele>1374.1</ele>
        <time>2023-07-23T12:28:11Z</time>
      </trkpt>
      <trkpt lat="44.94694" lon="6.18033">
        <ele>1373.7</ele>
        <time>2023-07-23T12:28:18Z</time>
      </trkpt>
      <trkpt lat="44.94702" lon="6.18031">
        <ele>1370.5</ele>
        <time>2023-07-23T12:28:25Z</time>
      </trkpt>
      <trkpt lat="44.94708" lon="6.18032">
        <ele>1370.3</ele>
        <time>2023-07-23T12:28:32Z</time>
      </trkpt>
      <trkpt lat="44.94713" lon="6.18031">
        <ele>1370</ele>
        <time>2023-07-23T12:28:39Z</time>
      </trkpt>
      <trkpt lat="44.94716" lon="6.18028">
        <ele>1369.4</ele>
        <time>2023-07-23T12:28:46Z</time>
      </trkpt>
      <trkpt lat="44.9472" lon="6.18024">
        <ele>1370</ele>
        <time>2023-07-23T12:28:53Z</time>
      </trkpt>
      <trkpt lat="44.94723" lon="6.1802">
        <ele>1368.3</ele>
        <time>2023-07-23T12:29:00Z</time>
      </trkpt>
      <trkpt lat="44.94728" lon="6.18018">
        <ele>1369.3</ele>
        <time>2023-07-23T12:29:07Z</time>
      </trkpt>
      <trkpt lat="44.94731" lon="6.18014">
        <ele>1367.1</ele>
        <time>2023-07-23T12:29:14Z</time>
      </trkpt>
      <trkpt lat="44.94737" lon="6.18011">
        <ele>1367.5</ele>
        <time>2023-07-23T12:29:21Z</time>
      </trkpt>
      <trkpt lat="44.94741" lon="6.18008">
        <ele>1365.7</ele>
        <time>2023-07-23T12:29:28Z</time>
      </trkpt>
      <trkpt lat="44.94746" lon="6.18007">
        <ele>1366.1</ele>
        <time>2023-07-23T12:29:35Z</time>
      </trkpt>
      <trkpt lat="44.94751" lon="6.18007">
        <ele>1366.2</ele>
        <time>2023-07-23T12:29:42Z</time>
      </trkpt>
      <trkpt lat="44.94756" lon="6.18005">
        <ele>1364.9</ele>
        <time>2023-07-23T12:29:49Z</time>
      </trkpt>
      <trkpt lat="44.94761" lon="6.18004">
        <ele>1363.1</ele>
        <time>2023-07-23T12:29:56Z</time>
      </trkpt>
      <trkpt lat="44.94767" lon="6.18001">
        <ele>1360.5</ele>
        <time>2023-07-23T12:30:03Z</time>
      </trkpt>
      <trkpt lat="44.94772" lon="6.17997">
        <ele>1359.8</ele>
        <time>2023-07-23T12:30:10Z</time>
      </trkpt>
      <trkpt lat="44.94778" lon="6.17993">
        <ele>1357.6</ele>
        <time>2023-07-23T12:30:17Z</time>
      </trkpt>
      <trkpt lat="44.94784" lon="6.17988">
        <ele>1360.1</ele>
        <time>2023-07-23T12:30:24Z</time>
      </trkpt>
      <trkpt lat="44.9479" lon="6.17982">
        <ele>1357.7</ele>
        <time>2023-07-23T12:30:31Z</time>
      </trkpt>
      <trkpt lat="44.94795" lon="6.17973">
        <ele>1354.2</ele>
        <time>2023-07-23T12:30:38Z</time>
      </trkpt>
      <trkpt lat="44.94797" lon="6.17963">
        <ele>1359.1</ele>
        <time>2023-07-23T12:30:45Z</time>
      </trkpt>
      <trkpt lat="44.94794" lon="6.17955">
        <ele>1359.5</ele>
        <time>2023-07-23T12:30:52Z</time>
      </trkpt>
      <trkpt lat="44.94793" lon="6.17946">
        <ele>1359.2</ele>
        <time>2023-07-23T12:30:59Z</time>
      </trkpt>
      <trkpt lat="44.94792" lon="6.17936">
        <ele>1358.4</ele>
        <time>2023-07-23T12:31:05Z</time>
      </trkpt>
      <trkpt lat="44.94791" lon="6.17925">
        <ele>1360.5</ele>
        <time>2023-07-23T12:31:11Z</time>
      </trkpt>
      <trkpt lat="44.94792" lon="6.17916">
        <ele>1361.7</ele>
        <time>2023-07-23T12:31:18Z</time>
      </trkpt>
      <trkpt lat="44.94794" lon="6.1791">
        <ele>1362.2</ele>
        <time>2023-07-23T12:31:25Z</time>
      </trkpt>
      <trkpt lat="44.94802" lon="6.17909">
        <ele>1366.5</ele>
        <time>2023-07-23T12:31:32Z</time>
      </trkpt>
      <trkpt lat="44.94809" lon="6.17906">
        <ele>1368.7</ele>
        <time>2023-07-23T12:31:38Z</time>
      </trkpt>
      <trkpt lat="44.94815" lon="6.17904">
        <ele>1372.7</ele>
        <time>2023-07-23T12:31:45Z</time>
      </trkpt>
      <trkpt lat="44.9482" lon="6.17902">
        <ele>1378.9</ele>
        <time>2023-07-23T12:31:52Z</time>
      </trkpt>
      <trkpt lat="44.94824" lon="6.179">
        <ele>1382.4</ele>
        <time>2023-07-23T12:31:59Z</time>
      </trkpt>
      <trkpt lat="44.94829" lon="6.17898">
        <ele>1384.8</ele>
        <time>2023-07-23T12:32:06Z</time>
      </trkpt>
      <trkpt lat="44.9483" lon="6.17896">
        <ele>1385.9</ele>
        <time>2023-07-23T12:32:13Z</time>
      </trkpt>
      <trkpt lat="44.94833" lon="6.17895">
        <ele>1384.5</ele>
        <time>2023-07-23T12:32:20Z</time>
      </trkpt>
      <trkpt lat="44.94836" lon="6.17894">
        <ele>1378.8</ele>
        <time>2023-07-23T12:32:27Z</time>
      </trkpt>
      <trkpt lat="44.94843" lon="6.1789">
        <ele>1373.3</ele>
        <time>2023-07-23T12:32:31Z</time>
      </trkpt>
      <trkpt lat="44.94849" lon="6.17884">
        <ele>1369.9</ele>
        <time>2023-07-23T12:32:35Z</time>
      </trkpt>
      <trkpt lat="44.94856" lon="6.17879">
        <ele>1368.4</ele>
        <time>2023-07-23T12:32:39Z</time>
      </trkpt>
      <trkpt lat="44.94863" lon="6.17874">
        <ele>1367.8</ele>
        <time>2023-07-23T12:32:46Z</time>
      </trkpt>
      <trkpt lat="44.94867" lon="6.17876">
        <ele>1367.5</ele>
        <time>2023-07-23T12:32:53Z</time>
      </trkpt>
      <trkpt lat="44.94874" lon="6.17876">
        <ele>1364.8</ele>
        <time>2023-07-23T12:33:00Z</time>
      </trkpt>
      <trkpt lat="44.94876" lon="6.17868">
        <ele>1360.1</ele>
        <time>2023-07-23T12:33:07Z</time>
      </trkpt>
      <trkpt lat="44.94882" lon="6.17868">
        <ele>1359.1</ele>
        <time>2023-07-23T12:33:14Z</time>
      </trkpt>
      <trkpt lat="44.94885" lon="6.17868">
        <ele>1360.3</ele>
        <time>2023-07-23T12:33:21Z</time>
      </trkpt>
      <trkpt lat="44.94888" lon="6.17867">
        <ele>1357.9</ele>
        <time>2023-07-23T12:33:28Z</time>
      </trkpt>
      <trkpt lat="44.94895" lon="6.17861">
        <ele>1357.1</ele>
        <time>2023-07-23T12:33:35Z</time>
      </trkpt>
      <trkpt lat="44.94902" lon="6.17857">
        <ele>1354.9</ele>
        <time>2023-07-23T12:33:42Z</time>
      </trkpt>
      <trkpt lat="44.94906" lon="6.17854">
        <ele>1353.4</ele>
        <time>2023-07-23T12:33:49Z</time>
      </trkpt>
      <trkpt lat="44.94911" lon="6.17846">
        <ele>1352.6</ele>
        <time>2023-07-23T12:33:56Z</time>
      </trkpt>
      <trkpt lat="44.94916" lon="6.17841">
        <ele>1350.9</ele>
        <time>2023-07-23T12:34:03Z</time>
      </trkpt>
      <trkpt lat="44.94921" lon="6.17835">
        <ele>1349</ele>
        <time>2023-07-23T12:34:10Z</time>
      </trkpt>
      <trkpt lat="44.94927" lon="6.17831">
        <ele>1345.9</ele>
        <time>2023-07-23T12:34:17Z</time>
      </trkpt>
      <trkpt lat="44.94931" lon="6.17823">
        <ele>1348.2</ele>
        <time>2023-07-23T12:34:24Z</time>
      </trkpt>
      <trkpt lat="44.94936" lon="6.17814">
        <ele>1345.8</ele>
        <time>2023-07-23T12:34:31Z</time>
      </trkpt>
      <trkpt lat="44.94939" lon="6.17809">
        <ele>1344.5</ele>
        <time>2023-07-23T12:34:38Z</time>
      </trkpt>
      <trkpt lat="44.94941" lon="6.1781">
        <ele>1344.9</ele>
        <time>2023-07-23T12:34:45Z</time>
      </trkpt>
      <trkpt lat="44.94941" lon="6.17811">
        <ele>1344.7</ele>
        <time>2023-07-23T12:34:52Z</time>
      </trkpt>
      <trkpt lat="44.94941" lon="6.17811">
        <ele>1345.2</ele>
        <time>2023-07-23T12:34:53Z</time>
      </trkpt>
      <trkpt lat="44.94942" lon="6.17809">
        <ele>1347.6</ele>
        <time>2023-07-23T12:35:02Z</time>
      </trkpt>
      <trkpt lat="44.94942" lon="6.17809">
        <ele>1348.5</ele>
        <time>2023-07-23T12:35:06Z</time>
      </trkpt>
      <trkpt lat="44.94943" lon="6.17808">
        <ele>1350.2</ele>
        <time>2023-07-23T12:35:21Z</time>
      </trkpt>
      <trkpt lat="44.94947" lon="6.17806">
        <ele>1351.2</ele>
        <time>2023-07-23T12:35:28Z</time>
      </trkpt>
      <trkpt lat="44.94948" lon="6.17804">
        <ele>1352.8</ele>
        <time>2023-07-23T12:35:35Z</time>
      </trkpt>
      <trkpt lat="44.94952" lon="6.17798">
        <ele>1354.6</ele>
        <time>2023-07-23T12:35:42Z</time>
      </trkpt>
      <trkpt lat="44.94956" lon="6.17793">
        <ele>1357.4</ele>
        <time>2023-07-23T12:35:49Z</time>
      </trkpt>
      <trkpt lat="44.94959" lon="6.17795">
        <ele>1358.2</ele>
        <time>2023-07-23T12:35:56Z</time>
      </trkpt>
      <trkpt lat="44.94964" lon="6.17792">
        <ele>1355.8</ele>
        <time>2023-07-23T12:36:03Z</time>
      </trkpt>
      <trkpt lat="44.94972" lon="6.1779">
        <ele>1352.3</ele>
        <time>2023-07-23T12:36:10Z</time>
      </trkpt>
      <trkpt lat="44.94979" lon="6.17786">
        <ele>1351.4</ele>
        <time>2023-07-23T12:36:17Z</time>
      </trkpt>
      <trkpt lat="44.94987" lon="6.17783">
        <ele>1352.6</ele>
        <time>2023-07-23T12:36:23Z</time>
      </trkpt>
      <trkpt lat="44.94993" lon="6.17786">
        <ele>1353.3</ele>
        <time>2023-07-23T12:36:30Z</time>
      </trkpt>
      <trkpt lat="44.94997" lon="6.17787">
        <ele>1352.3</ele>
        <time>2023-07-23T12:36:37Z</time>
      </trkpt>
      <trkpt lat="44.95003" lon="6.17786">
        <ele>1350.9</ele>
        <time>2023-07-23T12:36:44Z</time>
      </trkpt>
      <trkpt lat="44.95008" lon="6.17782">
        <ele>1348</ele>
        <time>2023-07-23T12:36:51Z</time>
      </trkpt>
      <trkpt lat="44.95013" lon="6.17776">
        <ele>1346.4</ele>
        <time>2023-07-23T12:36:58Z</time>
      </trkpt>
      <trkpt lat="44.95015" lon="6.17776">
        <ele>1346.3</ele>
        <time>2023-07-23T12:37:05Z</time>
      </trkpt>
      <trkpt lat="44.95016" lon="6.17781">
        <ele>1344.6</ele>
        <time>2023-07-23T12:37:12Z</time>
      </trkpt>
      <trkpt lat="44.95013" lon="6.17779">
        <ele>1341.7</ele>
        <time>2023-07-23T12:37:19Z</time>
      </trkpt>
      <trkpt lat="44.95016" lon="6.17778">
        <ele>1340.4</ele>
        <time>2023-07-23T12:37:26Z</time>
      </trkpt>
      <trkpt lat="44.95021" lon="6.17777">
        <ele>1340.9</ele>
        <time>2023-07-23T12:37:33Z</time>
      </trkpt>
      <trkpt lat="44.95029" lon="6.17777">
        <ele>1337</ele>
        <time>2023-07-23T12:37:40Z</time>
      </trkpt>
      <trkpt lat="44.95031" lon="6.17778">
        <ele>1337.3</ele>
        <time>2023-07-23T12:37:47Z</time>
      </trkpt>
      <trkpt lat="44.95032" lon="6.17779">
        <ele>1336.4</ele>
        <time>2023-07-23T12:37:49Z</time>
      </trkpt>
      <trkpt lat="44.95033" lon="6.1778">
        <ele>1333.4</ele>
        <time>2023-07-23T12:37:56Z</time>
      </trkpt>
      <trkpt lat="44.95033" lon="6.1778">
        <ele>1333.1</ele>
        <time>2023-07-23T12:37:57Z</time>
      </trkpt>
      <trkpt lat="44.95035" lon="6.17777">
        <ele>1333.5</ele>
        <time>2023-07-23T12:38:27Z</time>
      </trkpt>
      <trkpt lat="44.95035" lon="6.17777">
        <ele>1333</ele>
        <time>2023-07-23T12:38:33Z</time>
      </trkpt>
      <trkpt lat="44.95035" lon="6.17775">
        <ele>1333.2</ele>
        <time>2023-07-23T12:38:42Z</time>
      </trkpt>
      <trkpt lat="44.95035" lon="6.17775">
        <ele>1333.2</ele>
        <time>2023-07-23T12:38:43Z</time>
      </trkpt>
      <trkpt lat="44.95035" lon="6.17775">
        <ele>1332.6</ele>
        <time>2023-07-23T12:39:00Z</time>
      </trkpt>
      <trkpt lat="44.95035" lon="6.17775">
        <ele>1332.3</ele>
        <time>2023-07-23T12:39:01Z</time>
      </trkpt>
      <trkpt lat="44.95035" lon="6.17775">
        <ele>1331.4</ele>
        <time>2023-07-23T12:40:12Z</time>
      </trkpt>
      <trkpt lat="44.95035" lon="6.17775">
        <ele>1331.2</ele>
        <time>2023-07-23T12:40:13Z</time>
      </trkpt>
      <trkpt lat="44.95035" lon="6.17775">
        <ele>1331.5</ele>
        <time>2023-07-23T12:40:25Z</time>
      </trkpt>
      <trkpt lat="44.95035" lon="6.17775">
        <ele>1331.5</ele>
        <time>2023-07-23T12:40:26Z</time>
      </trkpt>
      <trkpt lat="44.95032" lon="6.1777">
        <ele>1333.8</ele>
        <time>2023-07-23T12:41:04Z</time>
      </trkpt>
      <trkpt lat="44.95033" lon="6.17769">
        <ele>1332.1</ele>
        <time>2023-07-23T12:41:11Z</time>
      </trkpt>
      <trkpt lat="44.95039" lon="6.17764">
        <ele>1332.9</ele>
        <time>2023-07-23T12:41:18Z</time>
      </trkpt>
      <trkpt lat="44.95046" lon="6.17761">
        <ele>1335.6</ele>
        <time>2023-07-23T12:41:25Z</time>
      </trkpt>
      <trkpt lat="44.95051" lon="6.17763">
        <ele>1337.8</ele>
        <time>2023-07-23T12:41:32Z</time>
      </trkpt>
      <trkpt lat="44.95059" lon="6.17762">
        <ele>1334.8</ele>
        <time>2023-07-23T12:41:39Z</time>
      </trkpt>
      <trkpt lat="44.95065" lon="6.1776">
        <ele>1334.4</ele>
        <time>2023-07-23T12:41:46Z</time>
      </trkpt>
      <trkpt lat="44.95066" lon="6.17756">
        <ele>1336</ele>
        <time>2023-07-23T12:41:53Z</time>
      </trkpt>
      <trkpt lat="44.95068" lon="6.17754">
        <ele>1334.6</ele>
        <time>2023-07-23T12:42:00Z</time>
      </trkpt>
      <trkpt lat="44.95067" lon="6.17751">
        <ele>1333.8</ele>
        <time>2023-07-23T12:42:07Z</time>
      </trkpt>
      <trkpt lat="44.95066" lon="6.17748">
        <ele>1334.5</ele>
        <time>2023-07-23T12:42:14Z</time>
      </trkpt>
      <trkpt lat="44.95065" lon="6.17748">
        <ele>1334.5</ele>
        <time>2023-07-23T12:42:15Z</time>
      </trkpt>
      <trkpt lat="44.95065" lon="6.17747">
        <ele>1334.6</ele>
        <time>2023-07-23T12:43:10Z</time>
      </trkpt>
      <trkpt lat="44.95065" lon="6.17747">
        <ele>1334.6</ele>
        <time>2023-07-23T12:43:11Z</time>
      </trkpt>
      <trkpt lat="44.95065" lon="6.17747">
        <ele>1334</ele>
        <time>2023-07-23T12:47:05Z</time>
      </trkpt>
      <trkpt lat="44.95065" lon="6.17747">
        <ele>1334</ele>
        <time>2023-07-23T12:47:06Z</time>
      </trkpt>
      <trkpt lat="44.95067" lon="6.17747">
        <ele>1334.6</ele>
        <time>2023-07-23T12:48:16Z</time>
      </trkpt>
      <trkpt lat="44.95066" lon="6.17747">
        <ele>1335.8</ele>
        <time>2023-07-23T12:48:20Z</time>
      </trkpt>
      <trkpt lat="44.95065" lon="6.17748">
        <ele>1333.3</ele>
        <time>2023-07-23T12:48:39Z</time>
      </trkpt>
      <trkpt lat="44.95066" lon="6.17749">
        <ele>1337.6</ele>
        <time>2023-07-23T12:48:46Z</time>
      </trkpt>
      <trkpt lat="44.95065" lon="6.17745">
        <ele>1336.5</ele>
        <time>2023-07-23T12:48:53Z</time>
      </trkpt>
      <trkpt lat="44.95065" lon="6.17744">
        <ele>1335.9</ele>
        <time>2023-07-23T12:48:55Z</time>
      </trkpt>
      <trkpt lat="44.95067" lon="6.17744">
        <ele>1333.2</ele>
        <time>2023-07-23T12:49:03Z</time>
      </trkpt>
      <trkpt lat="44.95067" lon="6.17744">
        <ele>1333.2</ele>
        <time>2023-07-23T12:49:04Z</time>
      </trkpt>
      <trkpt lat="44.95067" lon="6.17745">
        <ele>1333.4</ele>
        <time>2023-07-23T12:52:47Z</time>
      </trkpt>
      <trkpt lat="44.95067" lon="6.17745">
        <ele>1333.4</ele>
        <time>2023-07-23T12:52:48Z</time>
      </trkpt>
      <trkpt lat="44.95067" lon="6.17746">
        <ele>1334</ele>
        <time>2023-07-23T12:55:25Z</time>
      </trkpt>
      <trkpt lat="44.95067" lon="6.17746">
        <ele>1334</ele>
        <time>2023-07-23T12:55:26Z</time>
      </trkpt>
      <trkpt lat="44.95068" lon="6.17745">
        <ele>1336.6</ele>
        <time>2023-07-23T12:57:26Z</time>
      </trkpt>
      <trkpt lat="44.95068" lon="6.17745">
        <ele>1337</ele>
        <time>2023-07-23T12:57:28Z</time>
      </trkpt>
      <trkpt lat="44.95068" lon="6.17741">
        <ele>1337</ele>
        <time>2023-07-23T12:57:50Z</time>
      </trkpt>
      <trkpt lat="44.95065" lon="6.17737">
        <ele>1336.9</ele>
        <time>2023-07-23T12:57:57Z</time>
      </trkpt>
      <trkpt lat="44.95065" lon="6.17736">
        <ele>1337.4</ele>
        <time>2023-07-23T12:58:03Z</time>
      </trkpt>
      <trkpt lat="44.95069" lon="6.17735">
        <ele>1334</ele>
        <time>2023-07-23T12:58:14Z</time>
      </trkpt>
      <trkpt lat="44.9507" lon="6.17734">
        <ele>1329.6</ele>
        <time>2023-07-23T12:58:21Z</time>
      </trkpt>
      <trkpt lat="44.95067" lon="6.17726">
        <ele>1330.9</ele>
        <time>2023-07-23T12:58:28Z</time>
      </trkpt>
      <trkpt lat="44.95062" lon="6.17724">
        <ele>1336.8</ele>
        <time>2023-07-23T12:58:35Z</time>
      </trkpt>
      <trkpt lat="44.95055" lon="6.17721">
        <ele>1341.1</ele>
        <time>2023-07-23T12:58:41Z</time>
      </trkpt>
      <trkpt lat="44.95056" lon="6.17724">
        <ele>1340.2</ele>
        <time>2023-07-23T12:58:48Z</time>
      </trkpt>
      <trkpt lat="44.95059" lon="6.17725">
        <ele>1340.1</ele>
        <time>2023-07-23T12:58:55Z</time>
      </trkpt>
      <trkpt lat="44.95058" lon="6.17725">
        <ele>1339.6</ele>
        <time>2023-07-23T12:59:01Z</time>
      </trkpt>
      <trkpt lat="44.95057" lon="6.17725">
        <ele>1338.1</ele>
        <time>2023-07-23T12:59:08Z</time>
      </trkpt>
      <trkpt lat="44.95057" lon="6.17725">
        <ele>1338.2</ele>
        <time>2023-07-23T12:59:15Z</time>
      </trkpt>
      <trkpt lat="44.95054" lon="6.17724">
        <ele>1342</ele>
        <time>2023-07-23T12:59:23Z</time>
      </trkpt>
      <trkpt lat="44.95053" lon="6.17719">
        <ele>1344.2</ele>
        <time>2023-07-23T12:59:30Z</time>
      </trkpt>
      <trkpt lat="44.95053" lon="6.17719">
        <ele>1341.1</ele>
        <time>2023-07-23T12:59:36Z</time>
      </trkpt>
      <trkpt lat="44.95056" lon="6.17722">
        <ele>1339.9</ele>
        <time>2023-07-23T12:59:44Z</time>
      </trkpt>
      <trkpt lat="44.95058" lon="6.17723">
        <ele>1338.3</ele>
        <time>2023-07-23T12:59:51Z</time>
      </trkpt>
      <trkpt lat="44.95061" lon="6.17719">
        <ele>1340.8</ele>
        <time>2023-07-23T12:59:58Z</time>
      </trkpt>
      <trkpt lat="44.95056" lon="6.17716">
        <ele>1344.3</ele>
        <time>2023-07-23T13:00:05Z</time>
      </trkpt>
      <trkpt lat="44.95055" lon="6.17712">
        <ele>1347.8</ele>
        <time>2023-07-23T13:00:12Z</time>
      </trkpt>
      <trkpt lat="44.95057" lon="6.17711">
        <ele>1347.4</ele>
        <time>2023-07-23T13:00:19Z</time>
      </trkpt>
      <trkpt lat="44.95057" lon="6.17706">
        <ele>1349.9</ele>
        <time>2023-07-23T13:00:26Z</time>
      </trkpt>
      <trkpt lat="44.95057" lon="6.17705">
        <ele>1350.3</ele>
        <time>2023-07-23T13:00:33Z</time>
      </trkpt>
      <trkpt lat="44.95058" lon="6.177">
        <ele>1348.9</ele>
        <time>2023-07-23T13:00:40Z</time>
      </trkpt>
      <trkpt lat="44.95056" lon="6.17697">
        <ele>1347.5</ele>
        <time>2023-07-23T13:00:47Z</time>
      </trkpt>
      <trkpt lat="44.95056" lon="6.17696">
        <ele>1349.1</ele>
        <time>2023-07-23T13:00:52Z</time>
      </trkpt>
      <trkpt lat="44.95057" lon="6.17694">
        <ele>1347.6</ele>
        <time>2023-07-23T13:01:01Z</time>
      </trkpt>
      <trkpt lat="44.95058" lon="6.17693">
        <ele>1347.7</ele>
        <time>2023-07-23T13:01:02Z</time>
      </trkpt>
      <trkpt lat="44.95058" lon="6.1769">
        <ele>1350.4</ele>
        <time>2023-07-23T13:01:09Z</time>
      </trkpt>
      <trkpt lat="44.9506" lon="6.17685">
        <ele>1350.9</ele>
        <time>2023-07-23T13:01:16Z</time>
      </trkpt>
      <trkpt lat="44.95058" lon="6.1768">
        <ele>1351.3</ele>
        <time>2023-07-23T13:01:23Z</time>
      </trkpt>
      <trkpt lat="44.95058" lon="6.17678">
        <ele>1353.4</ele>
        <time>2023-07-23T13:01:30Z</time>
      </trkpt>
      <trkpt lat="44.95058" lon="6.17678">
        <ele>1353.6</ele>
        <time>2023-07-23T13:01:31Z</time>
      </trkpt>
      <trkpt lat="44.95054" lon="6.17674">
        <ele>1356.7</ele>
        <time>2023-07-23T13:01:38Z</time>
      </trkpt>
      <trkpt lat="44.95049" lon="6.17672">
        <ele>1358.4</ele>
        <time>2023-07-23T13:01:45Z</time>
      </trkpt>
      <trkpt lat="44.9505" lon="6.17674">
        <ele>1361.4</ele>
        <time>2023-07-23T13:01:52Z</time>
      </trkpt>
      <trkpt lat="44.95051" lon="6.17673">
        <ele>1362.9</ele>
        <time>2023-07-23T13:01:59Z</time>
      </trkpt>
      <trkpt lat="44.95051" lon="6.17672">
        <ele>1362.3</ele>
        <time>2023-07-23T13:02:01Z</time>
      </trkpt>
      <trkpt lat="44.95051" lon="6.17669">
        <ele>1363.4</ele>
        <time>2023-07-23T13:02:08Z</time>
      </trkpt>
      <trkpt lat="44.95053" lon="6.17666">
        <ele>1360.7</ele>
        <time>2023-07-23T13:02:15Z</time>
      </trkpt>
      <trkpt lat="44.95054" lon="6.17663">
        <ele>1358.4</ele>
        <time>2023-07-23T13:02:22Z</time>
      </trkpt>
      <trkpt lat="44.95056" lon="6.17661">
        <ele>1358.1</ele>
        <time>2023-07-23T13:02:29Z</time>
      </trkpt>
      <trkpt lat="44.95057" lon="6.17655">
        <ele>1356.1</ele>
        <time>2023-07-23T13:02:36Z</time>
      </trkpt>
      <trkpt lat="44.9506" lon="6.1765">
        <ele>1356.7</ele>
        <time>2023-07-23T13:02:43Z</time>
      </trkpt>
      <trkpt lat="44.95062" lon="6.17647">
        <ele>1358.6</ele>
        <time>2023-07-23T13:02:50Z</time>
      </trkpt>
      <trkpt lat="44.95065" lon="6.17642">
        <ele>1357.6</ele>
        <time>2023-07-23T13:02:57Z</time>
      </trkpt>
      <trkpt lat="44.95064" lon="6.17634">
        <ele>1357.3</ele>
        <time>2023-07-23T13:03:04Z</time>
      </trkpt>
      <trkpt lat="44.9506" lon="6.17636">
        <ele>1361.6</ele>
        <time>2023-07-23T13:03:11Z</time>
      </trkpt>
      <trkpt lat="44.95056" lon="6.17634">
        <ele>1366.5</ele>
        <time>2023-07-23T13:03:18Z</time>
      </trkpt>
      <trkpt lat="44.95053" lon="6.17631">
        <ele>1368.7</ele>
        <time>2023-07-23T13:03:25Z</time>
      </trkpt>
      <trkpt lat="44.95051" lon="6.17629">
        <ele>1369.9</ele>
        <time>2023-07-23T13:03:32Z</time>
      </trkpt>
      <trkpt lat="44.95046" lon="6.17627">
        <ele>1368.1</ele>
        <time>2023-07-23T13:03:39Z</time>
      </trkpt>
      <trkpt lat="44.95042" lon="6.17625">
        <ele>1368.7</ele>
        <time>2023-07-23T13:03:46Z</time>
      </trkpt>
      <trkpt lat="44.9504" lon="6.17628">
        <ele>1370.2</ele>
        <time>2023-07-23T13:03:53Z</time>
      </trkpt>
      <trkpt lat="44.95038" lon="6.17632">
        <ele>1369</ele>
        <time>2023-07-23T13:04:00Z</time>
      </trkpt>
      <trkpt lat="44.95033" lon="6.17632">
        <ele>1372.4</ele>
        <time>2023-07-23T13:04:07Z</time>
      </trkpt>
      <trkpt lat="44.95027" lon="6.17633">
        <ele>1372.7</ele>
        <time>2023-07-23T13:04:14Z</time>
      </trkpt>
      <trkpt lat="44.95022" lon="6.17633">
        <ele>1374.2</ele>
        <time>2023-07-23T13:04:21Z</time>
      </trkpt>
      <trkpt lat="44.95021" lon="6.17635">
        <ele>1373.4</ele>
        <time>2023-07-23T13:04:28Z</time>
      </trkpt>
      <trkpt lat="44.95027" lon="6.17636">
        <ele>1373.9</ele>
        <time>2023-07-23T13:04:35Z</time>
      </trkpt>
      <trkpt lat="44.95028" lon="6.17635">
        <ele>1374.2</ele>
        <time>2023-07-23T13:04:42Z</time>
      </trkpt>
      <trkpt lat="44.95028" lon="6.17633">
        <ele>1378.1</ele>
        <time>2023-07-23T13:04:50Z</time>
      </trkpt>
      <trkpt lat="44.95031" lon="6.17634">
        <ele>1380.7</ele>
        <time>2023-07-23T13:04:57Z</time>
      </trkpt>
      <trkpt lat="44.95032" lon="6.1763">
        <ele>1383.6</ele>
        <time>2023-07-23T13:05:04Z</time>
      </trkpt>
      <trkpt lat="44.95034" lon="6.17629">
        <ele>1388.1</ele>
        <time>2023-07-23T13:05:11Z</time>
      </trkpt>
      <trkpt lat="44.95037" lon="6.17628">
        <ele>1387.8</ele>
        <time>2023-07-23T13:05:18Z</time>
      </trkpt>
      <trkpt lat="44.95037" lon="6.17628">
        <ele>1388.2</ele>
        <time>2023-07-23T13:05:22Z</time>
      </trkpt>
      <trkpt lat="44.95037" lon="6.17624">
        <ele>1383.4</ele>
        <time>2023-07-23T13:05:32Z</time>
      </trkpt>
      <trkpt lat="44.95037" lon="6.17619">
        <ele>1383</ele>
        <time>2023-07-23T13:05:39Z</time>
      </trkpt>
      <trkpt lat="44.95035" lon="6.17614">
        <ele>1384.9</ele>
        <time>2023-07-23T13:05:46Z</time>
      </trkpt>
      <trkpt lat="44.95035" lon="6.17611">
        <ele>1385.1</ele>
        <time>2023-07-23T13:05:53Z</time>
      </trkpt>
      <trkpt lat="44.95035" lon="6.17609">
        <ele>1383.7</ele>
        <time>2023-07-23T13:05:57Z</time>
      </trkpt>
      <trkpt lat="44.95037" lon="6.17605">
        <ele>1383.5</ele>
        <time>2023-07-23T13:06:05Z</time>
      </trkpt>
      <trkpt lat="44.95035" lon="6.17605">
        <ele>1383.7</ele>
        <time>2023-07-23T13:06:06Z</time>
      </trkpt>
      <trkpt lat="44.95033" lon="6.17605">
        <ele>1384.9</ele>
        <time>2023-07-23T13:06:13Z</time>
      </trkpt>
      <trkpt lat="44.95033" lon="6.17605">
        <ele>1384.8</ele>
        <time>2023-07-23T13:06:17Z</time>
      </trkpt>
      <trkpt lat="44.95032" lon="6.17606">
        <ele>1383.6</ele>
        <time>2023-07-23T13:07:16Z</time>
      </trkpt>
      <trkpt lat="44.95032" lon="6.17606">
        <ele>1383.6</ele>
        <time>2023-07-23T13:07:17Z</time>
      </trkpt>
      <trkpt lat="44.95035" lon="6.17606">
        <ele>1384.6</ele>
        <time>2023-07-23T13:07:26Z</time>
      </trkpt>
      <trkpt lat="44.95035" lon="6.17602">
        <ele>1382.9</ele>
        <time>2023-07-23T13:07:33Z</time>
      </trkpt>
      <trkpt lat="44.95039" lon="6.17598">
        <ele>1382.7</ele>
        <time>2023-07-23T13:07:40Z</time>
      </trkpt>
      <trkpt lat="44.9504" lon="6.17598">
        <ele>1384.3</ele>
        <time>2023-07-23T13:07:45Z</time>
      </trkpt>
      <trkpt lat="44.95035" lon="6.17603">
        <ele>1382.5</ele>
        <time>2023-07-23T13:07:53Z</time>
      </trkpt>
      <trkpt lat="44.95034" lon="6.17601">
        <ele>1382.7</ele>
        <time>2023-07-23T13:08:00Z</time>
      </trkpt>
      <trkpt lat="44.9503" lon="6.17599">
        <ele>1384.3</ele>
        <time>2023-07-23T13:08:07Z</time>
      </trkpt>
      <trkpt lat="44.95027" lon="6.17599">
        <ele>1386.2</ele>
        <time>2023-07-23T13:08:14Z</time>
      </trkpt>
      <trkpt lat="44.95026" lon="6.17599">
        <ele>1386.5</ele>
        <time>2023-07-23T13:08:21Z</time>
      </trkpt>
      <trkpt lat="44.95025" lon="6.17597">
        <ele>1388.3</ele>
        <time>2023-07-23T13:08:27Z</time>
      </trkpt>
      <trkpt lat="44.95025" lon="6.17599">
        <ele>1388.8</ele>
        <time>2023-07-23T13:08:34Z</time>
      </trkpt>
      <trkpt lat="44.95025" lon="6.17599">
        <ele>1388.9</ele>
        <time>2023-07-23T13:08:35Z</time>
      </trkpt>
      <trkpt lat="44.95022" lon="6.17601">
        <ele>1393.9</ele>
        <time>2023-07-23T13:08:42Z</time>
      </trkpt>
      <trkpt lat="44.95019" lon="6.17599">
        <ele>1396.7</ele>
        <time>2023-07-23T13:08:49Z</time>
      </trkpt>
      <trkpt lat="44.95018" lon="6.17599">
        <ele>1397.9</ele>
        <time>2023-07-23T13:08:53Z</time>
      </trkpt>
      <trkpt lat="44.9502" lon="6.17601">
        <ele>1398.6</ele>
        <time>2023-07-23T13:09:02Z</time>
      </trkpt>
      <trkpt lat="44.9502" lon="6.17601">
        <ele>1400.2</ele>
        <time>2023-07-23T13:09:06Z</time>
      </trkpt>
      <trkpt lat="44.9502" lon="6.17603">
        <ele>1396.2</ele>
        <time>2023-07-23T13:09:14Z</time>
      </trkpt>
      <trkpt lat="44.9502" lon="6.17601">
        <ele>1397</ele>
        <time>2023-07-23T13:09:21Z</time>
      </trkpt>
      <trkpt lat="44.95016" lon="6.17601">
        <ele>1397.4</ele>
        <time>2023-07-23T13:09:28Z</time>
      </trkpt>
      <trkpt lat="44.95011" lon="6.17598">
        <ele>1402.7</ele>
        <time>2023-07-23T13:09:35Z</time>
      </trkpt>
      <trkpt lat="44.95013" lon="6.176">
        <ele>1405.2</ele>
        <time>2023-07-23T13:09:42Z</time>
      </trkpt>
      <trkpt lat="44.95013" lon="6.176">
        <ele>1406.5</ele>
        <time>2023-07-23T13:09:45Z</time>
      </trkpt>
      <trkpt lat="44.95017" lon="6.17601">
        <ele>1406.9</ele>
        <time>2023-07-23T13:10:14Z</time>
      </trkpt>
      <trkpt lat="44.95018" lon="6.17599">
        <ele>1411.7</ele>
        <time>2023-07-23T13:10:20Z</time>
      </trkpt>
      <trkpt lat="44.95016" lon="6.17596">
        <ele>1414</ele>
        <time>2023-07-23T13:10:31Z</time>
      </trkpt>
      <trkpt lat="44.95016" lon="6.17593">
        <ele>1410</ele>
        <time>2023-07-23T13:10:38Z</time>
      </trkpt>
      <trkpt lat="44.95016" lon="6.17592">
        <ele>1408.1</ele>
        <time>2023-07-23T13:10:45Z</time>
      </trkpt>
      <trkpt lat="44.95014" lon="6.17592">
        <ele>1407.7</ele>
        <time>2023-07-23T13:10:52Z</time>
      </trkpt>
      <trkpt lat="44.9501" lon="6.17591">
        <ele>1409.7</ele>
        <time>2023-07-23T13:10:59Z</time>
      </trkpt>
      <trkpt lat="44.95006" lon="6.1759">
        <ele>1410.6</ele>
        <time>2023-07-23T13:11:06Z</time>
      </trkpt>
      <trkpt lat="44.95008" lon="6.1759">
        <ele>1411.6</ele>
        <time>2023-07-23T13:11:13Z</time>
      </trkpt>
      <trkpt lat="44.95009" lon="6.1759">
        <ele>1411.3</ele>
        <time>2023-07-23T13:11:20Z</time>
      </trkpt>
      <trkpt lat="44.95008" lon="6.17589">
        <ele>1411.4</ele>
        <time>2023-07-23T13:11:29Z</time>
      </trkpt>
      <trkpt lat="44.95008" lon="6.17589">
        <ele>1411.7</ele>
        <time>2023-07-23T13:11:30Z</time>
      </trkpt>
      <trkpt lat="44.95007" lon="6.17588">
        <ele>1411.3</ele>
        <time>2023-07-23T13:11:39Z</time>
      </trkpt>
      <trkpt lat="44.95007" lon="6.17588">
        <ele>1411.3</ele>
        <time>2023-07-23T13:11:40Z</time>
      </trkpt>
      <trkpt lat="44.95009" lon="6.17586">
        <ele>1410.7</ele>
        <time>2023-07-23T13:12:25Z</time>
      </trkpt>
      <trkpt lat="44.9501" lon="6.17585">
        <ele>1409.1</ele>
        <time>2023-07-23T13:12:32Z</time>
      </trkpt>
      <trkpt lat="44.95008" lon="6.17582">
        <ele>1407.3</ele>
        <time>2023-07-23T13:12:39Z</time>
      </trkpt>
      <trkpt lat="44.95004" lon="6.17579">
        <ele>1410.4</ele>
        <time>2023-07-23T13:12:46Z</time>
      </trkpt>
      <trkpt lat="44.95004" lon="6.17579">
        <ele>1411.7</ele>
        <time>2023-07-23T13:12:52Z</time>
      </trkpt>
      <trkpt lat="44.95004" lon="6.17577">
        <ele>1411.2</ele>
        <time>2023-07-23T13:13:00Z</time>
      </trkpt>
      <trkpt lat="44.95002" lon="6.17579">
        <ele>1410.3</ele>
        <time>2023-07-23T13:13:07Z</time>
      </trkpt>
      <trkpt lat="44.94997" lon="6.1758">
        <ele>1406.2</ele>
        <time>2023-07-23T13:13:14Z</time>
      </trkpt>
      <trkpt lat="44.94996" lon="6.17581">
        <ele>1408.6</ele>
        <time>2023-07-23T13:13:21Z</time>
      </trkpt>
      <trkpt lat="44.94992" lon="6.17581">
        <ele>1410.7</ele>
        <time>2023-07-23T13:13:28Z</time>
      </trkpt>
      <trkpt lat="44.94993" lon="6.17582">
        <ele>1415.5</ele>
        <time>2023-07-23T13:13:35Z</time>
      </trkpt>
      <trkpt lat="44.94991" lon="6.17583">
        <ele>1419</ele>
        <time>2023-07-23T13:13:42Z</time>
      </trkpt>
      <trkpt lat="44.94991" lon="6.17584">
        <ele>1418.9</ele>
        <time>2023-07-23T13:13:49Z</time>
      </trkpt>
      <trkpt lat="44.94991" lon="6.17583">
        <ele>1420.5</ele>
        <time>2023-07-23T13:13:56Z</time>
      </trkpt>
      <trkpt lat="44.94991" lon="6.17582">
        <ele>1423</ele>
        <time>2023-07-23T13:14:04Z</time>
      </trkpt>
      <trkpt lat="44.94991" lon="6.17581">
        <ele>1422.6</ele>
        <time>2023-07-23T13:14:11Z</time>
      </trkpt>
      <trkpt lat="44.94991" lon="6.17582">
        <ele>1423.7</ele>
        <time>2023-07-23T13:14:20Z</time>
      </trkpt>
      <trkpt lat="44.94989" lon="6.17581">
        <ele>1425.1</ele>
        <time>2023-07-23T13:14:27Z</time>
      </trkpt>
      <trkpt lat="44.94986" lon="6.1758">
        <ele>1427.7</ele>
        <time>2023-07-23T13:14:34Z</time>
      </trkpt>
      <trkpt lat="44.94982" lon="6.17577">
        <ele>1427.6</ele>
        <time>2023-07-23T13:14:41Z</time>
      </trkpt>
      <trkpt lat="44.94982" lon="6.17574">
        <ele>1430.2</ele>
        <time>2023-07-23T13:14:48Z</time>
      </trkpt>
      <trkpt lat="44.9498" lon="6.17576">
        <ele>1428.3</ele>
        <time>2023-07-23T13:14:55Z</time>
      </trkpt>
      <trkpt lat="44.9498" lon="6.17578">
        <ele>1427.1</ele>
        <time>2023-07-23T13:15:02Z</time>
      </trkpt>
      <trkpt lat="44.9498" lon="6.17578">
        <ele>1426.9</ele>
        <time>2023-07-23T13:15:03Z</time>
      </trkpt>
      <trkpt lat="44.94979" lon="6.17575">
        <ele>1425.2</ele>
        <time>2023-07-23T13:15:11Z</time>
      </trkpt>
      <trkpt lat="44.94979" lon="6.1757">
        <ele>1427</ele>
        <time>2023-07-23T13:15:18Z</time>
      </trkpt>
      <trkpt lat="44.94979" lon="6.17566">
        <ele>1426.1</ele>
        <time>2023-07-23T13:15:25Z</time>
      </trkpt>
      <trkpt lat="44.94979" lon="6.17563">
        <ele>1424.7</ele>
        <time>2023-07-23T13:15:32Z</time>
      </trkpt>
      <trkpt lat="44.94979" lon="6.17563">
        <ele>1424.5</ele>
        <time>2023-07-23T13:15:34Z</time>
      </trkpt>
      <trkpt lat="44.9498" lon="6.17558">
        <ele>1427</ele>
        <time>2023-07-23T13:15:42Z</time>
      </trkpt>
      <trkpt lat="44.94982" lon="6.17554">
        <ele>1427.3</ele>
        <time>2023-07-23T13:15:49Z</time>
      </trkpt>
      <trkpt lat="44.94982" lon="6.17551">
        <ele>1432</ele>
        <time>2023-07-23T13:15:56Z</time>
      </trkpt>
      <trkpt lat="44.94979" lon="6.17549">
        <ele>1435.4</ele>
        <time>2023-07-23T13:16:03Z</time>
      </trkpt>
      <trkpt lat="44.94979" lon="6.17547">
        <ele>1437.8</ele>
        <time>2023-07-23T13:16:09Z</time>
      </trkpt>
      <trkpt lat="44.94981" lon="6.17546">
        <ele>1438.7</ele>
        <time>2023-07-23T13:16:17Z</time>
      </trkpt>
      <trkpt lat="44.94982" lon="6.17546">
        <ele>1439.2</ele>
        <time>2023-07-23T13:16:20Z</time>
      </trkpt>
      <trkpt lat="44.94982" lon="6.17545">
        <ele>1441.5</ele>
        <time>2023-07-23T13:16:34Z</time>
      </trkpt>
      <trkpt lat="44.94982" lon="6.17545">
        <ele>1441.5</ele>
        <time>2023-07-23T13:16:35Z</time>
      </trkpt>
      <trkpt lat="44.94982" lon="6.17547">
        <ele>1442.1</ele>
        <time>2023-07-23T13:16:50Z</time>
      </trkpt>
      <trkpt lat="44.94981" lon="6.17548">
        <ele>1443.5</ele>
        <time>2023-07-23T13:16:57Z</time>
      </trkpt>
      <trkpt lat="44.9498" lon="6.17548">
        <ele>1443.4</ele>
        <time>2023-07-23T13:16:58Z</time>
      </trkpt>
      <trkpt lat="44.94979" lon="6.17542">
        <ele>1442.9</ele>
        <time>2023-07-23T13:17:31Z</time>
      </trkpt>
      <trkpt lat="44.94977" lon="6.17547">
        <ele>1441.3</ele>
        <time>2023-07-23T13:17:38Z</time>
      </trkpt>
      <trkpt lat="44.94971" lon="6.1755">
        <ele>1438.2</ele>
        <time>2023-07-23T13:17:45Z</time>
      </trkpt>
      <trkpt lat="44.94965" lon="6.17552">
        <ele>1437</ele>
        <time>2023-07-23T13:17:52Z</time>
      </trkpt>
      <trkpt lat="44.94962" lon="6.1755">
        <ele>1436.5</ele>
        <time>2023-07-23T13:17:59Z</time>
      </trkpt>
      <trkpt lat="44.94966" lon="6.17554">
        <ele>1436</ele>
        <time>2023-07-23T13:18:06Z</time>
      </trkpt>
      <trkpt lat="44.9497" lon="6.17556">
        <ele>1436.1</ele>
        <time>2023-07-23T13:18:13Z</time>
      </trkpt>
      <trkpt lat="44.94966" lon="6.17552">
        <ele>1437.6</ele>
        <time>2023-07-23T13:18:20Z</time>
      </trkpt>
      <trkpt lat="44.94964" lon="6.1755">
        <ele>1440.5</ele>
        <time>2023-07-23T13:18:27Z</time>
      </trkpt>
      <trkpt lat="44.94961" lon="6.17554">
        <ele>1439.1</ele>
        <time>2023-07-23T13:18:34Z</time>
      </trkpt>
      <trkpt lat="44.94961" lon="6.17552">
        <ele>1440.1</ele>
        <time>2023-07-23T13:18:41Z</time>
      </trkpt>
      <trkpt lat="44.94962" lon="6.17549">
        <ele>1436.4</ele>
        <time>2023-07-23T13:18:50Z</time>
      </trkpt>
      <trkpt lat="44.94964" lon="6.17546">
        <ele>1437.7</ele>
        <time>2023-07-23T13:18:57Z</time>
      </trkpt>
      <trkpt lat="44.94964" lon="6.17545">
        <ele>1435.7</ele>
        <time>2023-07-23T13:19:01Z</time>
      </trkpt>
      <trkpt lat="44.94966" lon="6.17546">
        <ele>1437.9</ele>
        <time>2023-07-23T13:19:11Z</time>
      </trkpt>
      <trkpt lat="44.94966" lon="6.17545">
        <ele>1437.5</ele>
        <time>2023-07-23T13:19:13Z</time>
      </trkpt>
      <trkpt lat="44.94966" lon="6.17544">
        <ele>1440</ele>
        <time>2023-07-23T13:19:26Z</time>
      </trkpt>
      <trkpt lat="44.94968" lon="6.17541">
        <ele>1442</ele>
        <time>2023-07-23T13:19:33Z</time>
      </trkpt>
      <trkpt lat="44.94966" lon="6.17543">
        <ele>1443.9</ele>
        <time>2023-07-23T13:19:40Z</time>
      </trkpt>
      <trkpt lat="44.94963" lon="6.17544">
        <ele>1441.5</ele>
        <time>2023-07-23T13:19:47Z</time>
      </trkpt>
      <trkpt lat="44.94963" lon="6.17545">
        <ele>1442.1</ele>
        <time>2023-07-23T13:19:54Z</time>
      </trkpt>
      <trkpt lat="44.94963" lon="6.17545">
        <ele>1442.1</ele>
        <time>2023-07-23T13:19:55Z</time>
      </trkpt>
      <trkpt lat="44.94957" lon="6.17546">
        <ele>1438.1</ele>
        <time>2023-07-23T13:20:22Z</time>
      </trkpt>
      <trkpt lat="44.94952" lon="6.17545">
        <ele>1438.1</ele>
        <time>2023-07-23T13:20:29Z</time>
      </trkpt>
      <trkpt lat="44.94947" lon="6.17543">
        <ele>1441.3</ele>
        <time>2023-07-23T13:20:36Z</time>
      </trkpt>
      <trkpt lat="44.94946" lon="6.17548">
        <ele>1445.5</ele>
        <time>2023-07-23T13:20:43Z</time>
      </trkpt>
      <trkpt lat="44.9494" lon="6.1755">
        <ele>1446.3</ele>
        <time>2023-07-23T13:20:50Z</time>
      </trkpt>
      <trkpt lat="44.94941" lon="6.17549">
        <ele>1444.6</ele>
        <time>2023-07-23T13:20:57Z</time>
      </trkpt>
      <trkpt lat="44.94941" lon="6.17548">
        <ele>1446.2</ele>
        <time>2023-07-23T13:21:00Z</time>
      </trkpt>
      <trkpt lat="44.9494" lon="6.17549">
        <ele>1447.8</ele>
        <time>2023-07-23T13:21:08Z</time>
      </trkpt>
      <trkpt lat="44.9494" lon="6.17549">
        <ele>1448.4</ele>
        <time>2023-07-23T13:21:09Z</time>
      </trkpt>
      <trkpt lat="44.94938" lon="6.1755">
        <ele>1452.4</ele>
        <time>2023-07-23T13:21:18Z</time>
      </trkpt>
      <trkpt lat="44.94938" lon="6.1755">
        <ele>1453.2</ele>
        <time>2023-07-23T13:21:19Z</time>
      </trkpt>
      <trkpt lat="44.9494" lon="6.17553">
        <ele>1456.7</ele>
        <time>2023-07-23T13:21:26Z</time>
      </trkpt>
      <trkpt lat="44.94939" lon="6.17553">
        <ele>1457.6</ele>
        <time>2023-07-23T13:21:29Z</time>
      </trkpt>
      <trkpt lat="44.94936" lon="6.17554">
        <ele>1458.8</ele>
        <time>2023-07-23T13:21:37Z</time>
      </trkpt>
      <trkpt lat="44.94933" lon="6.17554">
        <ele>1458.6</ele>
        <time>2023-07-23T13:21:44Z</time>
      </trkpt>
      <trkpt lat="44.94933" lon="6.17554">
        <ele>1458.1</ele>
        <time>2023-07-23T13:21:48Z</time>
      </trkpt>
      <trkpt lat="44.94933" lon="6.17555">
        <ele>1459.1</ele>
        <time>2023-07-23T13:22:02Z</time>
      </trkpt>
      <trkpt lat="44.94933" lon="6.17555">
        <ele>1459.1</ele>
        <time>2023-07-23T13:22:03Z</time>
      </trkpt>
      <trkpt lat="44.94932" lon="6.17557">
        <ele>1457.9</ele>
        <time>2023-07-23T13:22:31Z</time>
      </trkpt>
      <trkpt lat="44.94932" lon="6.17557">
        <ele>1457.9</ele>
        <time>2023-07-23T13:22:32Z</time>
      </trkpt>
      <trkpt lat="44.94933" lon="6.17557">
        <ele>1458.5</ele>
        <time>2023-07-23T13:22:54Z</time>
      </trkpt>
      <trkpt lat="44.94933" lon="6.17557">
        <ele>1458.1</ele>
        <time>2023-07-23T13:22:55Z</time>
      </trkpt>
      <trkpt lat="44.94933" lon="6.17559">
        <ele>1456.9</ele>
        <time>2023-07-23T13:23:13Z</time>
      </trkpt>
      <trkpt lat="44.94932" lon="6.17563">
        <ele>1455.7</ele>
        <time>2023-07-23T13:23:20Z</time>
      </trkpt>
      <trkpt lat="44.9493" lon="6.17564">
        <ele>1455.5</ele>
        <time>2023-07-23T13:23:27Z</time>
      </trkpt>
      <trkpt lat="44.94929" lon="6.17566">
        <ele>1457.5</ele>
        <time>2023-07-23T13:23:34Z</time>
      </trkpt>
      <trkpt lat="44.9493" lon="6.17568">
        <ele>1459.5</ele>
        <time>2023-07-23T13:23:41Z</time>
      </trkpt>
      <trkpt lat="44.94928" lon="6.17566">
        <ele>1461.4</ele>
        <time>2023-07-23T13:23:48Z</time>
      </trkpt>
      <trkpt lat="44.94927" lon="6.17566">
        <ele>1463.6</ele>
        <time>2023-07-23T13:23:55Z</time>
      </trkpt>
      <trkpt lat="44.94928" lon="6.17564">
        <ele>1459.9</ele>
        <time>2023-07-23T13:24:02Z</time>
      </trkpt>
      <trkpt lat="44.94928" lon="6.17564">
        <ele>1460.2</ele>
        <time>2023-07-23T13:24:03Z</time>
      </trkpt>
      <trkpt lat="44.9493" lon="6.17562">
        <ele>1462.8</ele>
        <time>2023-07-23T13:24:11Z</time>
      </trkpt>
      <trkpt lat="44.9493" lon="6.17562">
        <ele>1464</ele>
        <time>2023-07-23T13:24:13Z</time>
      </trkpt>
      <trkpt lat="44.94929" lon="6.17561">
        <ele>1464.6</ele>
        <time>2023-07-23T13:24:22Z</time>
      </trkpt>
      <trkpt lat="44.94929" lon="6.17556">
        <ele>1465.8</ele>
        <time>2023-07-23T13:24:29Z</time>
      </trkpt>
      <trkpt lat="44.94932" lon="6.1755">
        <ele>1469.1</ele>
        <time>2023-07-23T13:24:36Z</time>
      </trkpt>
      <trkpt lat="44.94934" lon="6.17545">
        <ele>1471.3</ele>
        <time>2023-07-23T13:24:43Z</time>
      </trkpt>
      <trkpt lat="44.94933" lon="6.1754">
        <ele>1472.3</ele>
        <time>2023-07-23T13:24:50Z</time>
      </trkpt>
      <trkpt lat="44.94933" lon="6.17535">
        <ele>1470.1</ele>
        <time>2023-07-23T13:24:57Z</time>
      </trkpt>
      <trkpt lat="44.94929" lon="6.17526">
        <ele>1471.5</ele>
        <time>2023-07-23T13:25:04Z</time>
      </trkpt>
      <trkpt lat="44.94927" lon="6.17519">
        <ele>1468.2</ele>
        <time>2023-07-23T13:25:11Z</time>
      </trkpt>
      <trkpt lat="44.94929" lon="6.17518">
        <ele>1470.9</ele>
        <time>2023-07-23T13:25:18Z</time>
      </trkpt>
      <trkpt lat="44.94929" lon="6.17518">
        <ele>1470.8</ele>
        <time>2023-07-23T13:25:24Z</time>
      </trkpt>
      <trkpt lat="44.94932" lon="6.17522">
        <ele>1468</ele>
        <time>2023-07-23T13:25:35Z</time>
      </trkpt>
      <trkpt lat="44.94931" lon="6.17522">
        <ele>1468.7</ele>
        <time>2023-07-23T13:25:42Z</time>
      </trkpt>
      <trkpt lat="44.94928" lon="6.17522">
        <ele>1469.9</ele>
        <time>2023-07-23T13:25:49Z</time>
      </trkpt>
      <trkpt lat="44.94929" lon="6.17523">
        <ele>1470.5</ele>
        <time>2023-07-23T13:25:56Z</time>
      </trkpt>
      <trkpt lat="44.94929" lon="6.17523">
        <ele>1471.4</ele>
        <time>2023-07-23T13:25:58Z</time>
      </trkpt>
      <trkpt lat="44.94928" lon="6.17521">
        <ele>1471.8</ele>
        <time>2023-07-23T13:26:10Z</time>
      </trkpt>
      <trkpt lat="44.94928" lon="6.17521">
        <ele>1470.5</ele>
        <time>2023-07-23T13:26:12Z</time>
      </trkpt>
      <trkpt lat="44.94926" lon="6.17523">
        <ele>1473.1</ele>
        <time>2023-07-23T13:26:35Z</time>
      </trkpt>
      <trkpt lat="44.94926" lon="6.17523">
        <ele>1473.1</ele>
        <time>2023-07-23T13:26:38Z</time>
      </trkpt>
      <trkpt lat="44.94924" lon="6.17523">
        <ele>1472.7</ele>
        <time>2023-07-23T13:27:51Z</time>
      </trkpt>
      <trkpt lat="44.94924" lon="6.17523">
        <ele>1472.7</ele>
        <time>2023-07-23T13:27:52Z</time>
      </trkpt>
      <trkpt lat="44.94925" lon="6.17523">
        <ele>1473.3</ele>
        <time>2023-07-23T13:30:14Z</time>
      </trkpt>
      <trkpt lat="44.94925" lon="6.17523">
        <ele>1473.2</ele>
        <time>2023-07-23T13:30:15Z</time>
      </trkpt>
      <trkpt lat="44.94925" lon="6.17525">
        <ele>1474.1</ele>
        <time>2023-07-23T13:31:34Z</time>
      </trkpt>
      <trkpt lat="44.94925" lon="6.17525">
        <ele>1474.2</ele>
        <time>2023-07-23T13:31:37Z</time>
      </trkpt>
      <trkpt lat="44.94925" lon="6.17524">
        <ele>1474.5</ele>
        <time>2023-07-23T13:32:46Z</time>
      </trkpt>
      <trkpt lat="44.94925" lon="6.17524">
        <ele>1474.5</ele>
        <time>2023-07-23T13:32:48Z</time>
      </trkpt>
      <trkpt lat="44.94928" lon="6.17528">
        <ele>1476.1</ele>
        <time>2023-07-23T13:35:57Z</time>
      </trkpt>
      <trkpt lat="44.94928" lon="6.17528">
        <ele>1476.1</ele>
        <time>2023-07-23T13:36:04Z</time>
      </trkpt>
      <trkpt lat="44.94925" lon="6.17526">
        <ele>1479.9</ele>
        <time>2023-07-23T13:39:30Z</time>
      </trkpt>
      <trkpt lat="44.94923" lon="6.17529">
        <ele>1478.9</ele>
        <time>2023-07-23T13:39:37Z</time>
      </trkpt>
      <trkpt lat="44.94919" lon="6.17528">
        <ele>1477.8</ele>
        <time>2023-07-23T13:39:44Z</time>
      </trkpt>
      <trkpt lat="44.94915" lon="6.17532">
        <ele>1478.2</ele>
        <time>2023-07-23T13:39:51Z</time>
      </trkpt>
      <trkpt lat="44.94909" lon="6.17534">
        <ele>1480.6</ele>
        <time>2023-07-23T13:39:58Z</time>
      </trkpt>
      <trkpt lat="44.94906" lon="6.17535">
        <ele>1483</ele>
        <time>2023-07-23T13:40:05Z</time>
      </trkpt>
      <trkpt lat="44.94903" lon="6.17536">
        <ele>1484.7</ele>
        <time>2023-07-23T13:40:12Z</time>
      </trkpt>
      <trkpt lat="44.94903" lon="6.17539">
        <ele>1483</ele>
        <time>2023-07-23T13:40:19Z</time>
      </trkpt>
      <trkpt lat="44.94903" lon="6.17539">
        <ele>1483.7</ele>
        <time>2023-07-23T13:40:20Z</time>
      </trkpt>
      <trkpt lat="44.94905" lon="6.17539">
        <ele>1486.1</ele>
        <time>2023-07-23T13:40:28Z</time>
      </trkpt>
      <trkpt lat="44.94906" lon="6.17539">
        <ele>1486.8</ele>
        <time>2023-07-23T13:40:29Z</time>
      </trkpt>
      <trkpt lat="44.94903" lon="6.17541">
        <ele>1487.9</ele>
        <time>2023-07-23T13:40:37Z</time>
      </trkpt>
      <trkpt lat="44.949" lon="6.17542">
        <ele>1489.6</ele>
        <time>2023-07-23T13:40:44Z</time>
      </trkpt>
      <trkpt lat="44.94898" lon="6.17545">
        <ele>1491.5</ele>
        <time>2023-07-23T13:40:51Z</time>
      </trkpt>
      <trkpt lat="44.94895" lon="6.17549">
        <ele>1493</ele>
        <time>2023-07-23T13:40:58Z</time>
      </trkpt>
      <trkpt lat="44.94895" lon="6.17553">
        <ele>1496</ele>
        <time>2023-07-23T13:41:05Z</time>
      </trkpt>
      <trkpt lat="44.94894" lon="6.17553">
        <ele>1495</ele>
        <time>2023-07-23T13:41:11Z</time>
      </trkpt>
      <trkpt lat="44.94893" lon="6.17556">
        <ele>1494.2</ele>
        <time>2023-07-23T13:41:19Z</time>
      </trkpt>
      <trkpt lat="44.94889" lon="6.17557">
        <ele>1492.4</ele>
        <time>2023-07-23T13:41:26Z</time>
      </trkpt>
      <trkpt lat="44.94889" lon="6.17559">
        <ele>1495.4</ele>
        <time>2023-07-23T13:41:33Z</time>
      </trkpt>
      <trkpt lat="44.94889" lon="6.17559">
        <ele>1495.4</ele>
        <time>2023-07-23T13:41:34Z</time>
      </trkpt>
      <trkpt lat="44.94887" lon="6.17558">
        <ele>1495.7</ele>
        <time>2023-07-23T13:41:44Z</time>
      </trkpt>
      <trkpt lat="44.94885" lon="6.17559">
        <ele>1495.4</ele>
        <time>2023-07-23T13:41:51Z</time>
      </trkpt>
      <trkpt lat="44.94885" lon="6.17561">
        <ele>1496.6</ele>
        <time>2023-07-23T13:42:34Z</time>
      </trkpt>
      <trkpt lat="44.94885" lon="6.17562">
        <ele>1499.2</ele>
        <time>2023-07-23T13:42:38Z</time>
      </trkpt>
      <trkpt lat="44.94887" lon="6.17563">
        <ele>1500.7</ele>
        <time>2023-07-23T13:42:46Z</time>
      </trkpt>
      <trkpt lat="44.94887" lon="6.17563">
        <ele>1500.1</ele>
        <time>2023-07-23T13:42:47Z</time>
      </trkpt>
      <trkpt lat="44.9489" lon="6.17563">
        <ele>1501.5</ele>
        <time>2023-07-23T13:42:55Z</time>
      </trkpt>
      <trkpt lat="44.94888" lon="6.17559">
        <ele>1502.7</ele>
        <time>2023-07-23T13:43:02Z</time>
      </trkpt>
      <trkpt lat="44.94887" lon="6.17558">
        <ele>1503.1</ele>
        <time>2023-07-23T13:43:07Z</time>
      </trkpt>
      <trkpt lat="44.94885" lon="6.17558">
        <ele>1505</ele>
        <time>2023-07-23T13:43:15Z</time>
      </trkpt>
      <trkpt lat="44.94883" lon="6.17558">
        <ele>1504.7</ele>
        <time>2023-07-23T13:43:16Z</time>
      </trkpt>
      <trkpt lat="44.94883" lon="6.17557">
        <ele>1506</ele>
        <time>2023-07-23T13:43:25Z</time>
      </trkpt>
      <trkpt lat="44.94885" lon="6.17561">
        <ele>1508.3</ele>
        <time>2023-07-23T13:43:32Z</time>
      </trkpt>
      <trkpt lat="44.94883" lon="6.17562">
        <ele>1511.6</ele>
        <time>2023-07-23T13:43:39Z</time>
      </trkpt>
      <trkpt lat="44.94882" lon="6.17562">
        <ele>1511.5</ele>
        <time>2023-07-23T13:43:42Z</time>
      </trkpt>
      <trkpt lat="44.9488" lon="6.17563">
        <ele>1513.2</ele>
        <time>2023-07-23T13:43:50Z</time>
      </trkpt>
      <trkpt lat="44.94875" lon="6.17563">
        <ele>1512.4</ele>
        <time>2023-07-23T13:43:57Z</time>
      </trkpt>
      <trkpt lat="44.94874" lon="6.17565">
        <ele>1512.6</ele>
        <time>2023-07-23T13:44:04Z</time>
      </trkpt>
      <trkpt lat="44.94873" lon="6.17565">
        <ele>1514.1</ele>
        <time>2023-07-23T13:44:07Z</time>
      </trkpt>
      <trkpt lat="44.94872" lon="6.17564">
        <ele>1513.7</ele>
        <time>2023-07-23T13:44:15Z</time>
      </trkpt>
      <trkpt lat="44.94868" lon="6.17565">
        <ele>1512.4</ele>
        <time>2023-07-23T13:44:22Z</time>
      </trkpt>
      <trkpt lat="44.94863" lon="6.17563">
        <ele>1512.8</ele>
        <time>2023-07-23T13:44:29Z</time>
      </trkpt>
      <trkpt lat="44.9486" lon="6.17563">
        <ele>1511.9</ele>
        <time>2023-07-23T13:44:36Z</time>
      </trkpt>
      <trkpt lat="44.94857" lon="6.17559">
        <ele>1511.6</ele>
        <time>2023-07-23T13:44:43Z</time>
      </trkpt>
      <trkpt lat="44.94853" lon="6.17556">
        <ele>1511.4</ele>
        <time>2023-07-23T13:44:50Z</time>
      </trkpt>
      <trkpt lat="44.94847" lon="6.17557">
        <ele>1511.7</ele>
        <time>2023-07-23T13:44:57Z</time>
      </trkpt>
      <trkpt lat="44.94845" lon="6.17557">
        <ele>1514.9</ele>
        <time>2023-07-23T13:45:04Z</time>
      </trkpt>
      <trkpt lat="44.94843" lon="6.17555">
        <ele>1513.5</ele>
        <time>2023-07-23T13:45:11Z</time>
      </trkpt>
      <trkpt lat="44.9484" lon="6.17559">
        <ele>1510.6</ele>
        <time>2023-07-23T13:45:18Z</time>
      </trkpt>
      <trkpt lat="44.94837" lon="6.1756">
        <ele>1510.3</ele>
        <time>2023-07-23T13:45:25Z</time>
      </trkpt>
      <trkpt lat="44.94834" lon="6.17556">
        <ele>1510.3</ele>
        <time>2023-07-23T13:45:32Z</time>
      </trkpt>
      <trkpt lat="44.9483" lon="6.1755">
        <ele>1507.4</ele>
        <time>2023-07-23T13:45:39Z</time>
      </trkpt>
      <trkpt lat="44.94828" lon="6.17556">
        <ele>1509.9</ele>
        <time>2023-07-23T13:45:46Z</time>
      </trkpt>
      <trkpt lat="44.94824" lon="6.17563">
        <ele>1508.1</ele>
        <time>2023-07-23T13:45:53Z</time>
      </trkpt>
      <trkpt lat="44.9482" lon="6.17566">
        <ele>1514.2</ele>
        <time>2023-07-23T13:46:00Z</time>
      </trkpt>
      <trkpt lat="44.94818" lon="6.17568">
        <ele>1511.8</ele>
        <time>2023-07-23T13:46:07Z</time>
      </trkpt>
      <trkpt lat="44.94814" lon="6.17569">
        <ele>1512.5</ele>
        <time>2023-07-23T13:46:14Z</time>
      </trkpt>
      <trkpt lat="44.94812" lon="6.17577">
        <ele>1519.3</ele>
        <time>2023-07-23T13:46:21Z</time>
      </trkpt>
      <trkpt lat="44.94811" lon="6.1758">
        <ele>1520.5</ele>
        <time>2023-07-23T13:46:28Z</time>
      </trkpt>
      <trkpt lat="44.94811" lon="6.17586">
        <ele>1521.5</ele>
        <time>2023-07-23T13:46:35Z</time>
      </trkpt>
      <trkpt lat="44.94807" lon="6.17585">
        <ele>1525.4</ele>
        <time>2023-07-23T13:46:42Z</time>
      </trkpt>
      <trkpt lat="44.94807" lon="6.17585">
        <ele>1529.2</ele>
        <time>2023-07-23T13:46:49Z</time>
      </trkpt>
      <trkpt lat="44.94804" lon="6.17587">
        <ele>1530.2</ele>
        <time>2023-07-23T13:46:56Z</time>
      </trkpt>
      <trkpt lat="44.948" lon="6.17588">
        <ele>1534.6</ele>
        <time>2023-07-23T13:47:03Z</time>
      </trkpt>
      <trkpt lat="44.94799" lon="6.17592">
        <ele>1535</ele>
        <time>2023-07-23T13:47:09Z</time>
      </trkpt>
      <trkpt lat="44.94797" lon="6.17591">
        <ele>1537</ele>
        <time>2023-07-23T13:47:19Z</time>
      </trkpt>
      <trkpt lat="44.94796" lon="6.17596">
        <ele>1539.7</ele>
        <time>2023-07-23T13:47:26Z</time>
      </trkpt>
      <trkpt lat="44.94795" lon="6.17597">
        <ele>1537.8</ele>
        <time>2023-07-23T13:47:33Z</time>
      </trkpt>
      <trkpt lat="44.94797" lon="6.176">
        <ele>1539</ele>
        <time>2023-07-23T13:47:40Z</time>
      </trkpt>
      <trkpt lat="44.94797" lon="6.17601">
        <ele>1540.2</ele>
        <time>2023-07-23T13:47:44Z</time>
      </trkpt>
      <trkpt lat="44.94798" lon="6.17601">
        <ele>1537.3</ele>
        <time>2023-07-23T13:47:58Z</time>
      </trkpt>
      <trkpt lat="44.94798" lon="6.17601">
        <ele>1537.5</ele>
        <time>2023-07-23T13:47:59Z</time>
      </trkpt>
      <trkpt lat="44.94799" lon="6.17602">
        <ele>1536.9</ele>
        <time>2023-07-23T13:48:09Z</time>
      </trkpt>
      <trkpt lat="44.94799" lon="6.17602">
        <ele>1536.9</ele>
        <time>2023-07-23T13:48:10Z</time>
      </trkpt>
      <trkpt lat="44.94798" lon="6.17602">
        <ele>1538.3</ele>
        <time>2023-07-23T13:49:28Z</time>
      </trkpt>
      <trkpt lat="44.94798" lon="6.17602">
        <ele>1538.7</ele>
        <time>2023-07-23T13:49:29Z</time>
      </trkpt>
      <trkpt lat="44.94799" lon="6.17605">
        <ele>1543.2</ele>
        <time>2023-07-23T13:49:50Z</time>
      </trkpt>
      <trkpt lat="44.948" lon="6.1761">
        <ele>1540.9</ele>
        <time>2023-07-23T13:49:57Z</time>
      </trkpt>
      <trkpt lat="44.948" lon="6.17606">
        <ele>1540.1</ele>
        <time>2023-07-23T13:50:04Z</time>
      </trkpt>
      <trkpt lat="44.94799" lon="6.17603">
        <ele>1537.1</ele>
        <time>2023-07-23T13:50:11Z</time>
      </trkpt>
      <trkpt lat="44.94799" lon="6.17603">
        <ele>1536.9</ele>
        <time>2023-07-23T13:50:14Z</time>
      </trkpt>
      <trkpt lat="44.94799" lon="6.17607">
        <ele>1536.8</ele>
        <time>2023-07-23T13:50:58Z</time>
      </trkpt>
      <trkpt lat="44.94799" lon="6.17609">
        <ele>1536.3</ele>
        <time>2023-07-23T13:51:05Z</time>
      </trkpt>
      <trkpt lat="44.94799" lon="6.17609">
        <ele>1536.3</ele>
        <time>2023-07-23T13:51:06Z</time>
      </trkpt>
      <trkpt lat="44.94798" lon="6.17609">
        <ele>1537.2</ele>
        <time>2023-07-23T13:52:37Z</time>
      </trkpt>
      <trkpt lat="44.94798" lon="6.17609">
        <ele>1537.1</ele>
        <time>2023-07-23T13:52:38Z</time>
      </trkpt>
      <trkpt lat="44.94798" lon="6.17609">
        <ele>1537.4</ele>
        <time>2023-07-23T13:54:07Z</time>
      </trkpt>
      <trkpt lat="44.94798" lon="6.17609">
        <ele>1537.4</ele>
        <time>2023-07-23T13:54:08Z</time>
      </trkpt>
      <trkpt lat="44.94798" lon="6.1761">
        <ele>1537.2</ele>
        <time>2023-07-23T13:54:27Z</time>
      </trkpt>
      <trkpt lat="44.94798" lon="6.1761">
        <ele>1537.2</ele>
        <time>2023-07-23T13:54:28Z</time>
      </trkpt>
      <trkpt lat="44.94797" lon="6.17608">
        <ele>1537.6</ele>
        <time>2023-07-23T13:55:12Z</time>
      </trkpt>
      <trkpt lat="44.94796" lon="6.17608">
        <ele>1536.3</ele>
        <time>2023-07-23T13:55:15Z</time>
      </trkpt>
      <trkpt lat="44.94795" lon="6.17607">
        <ele>1534.4</ele>
        <time>2023-07-23T13:55:23Z</time>
      </trkpt>
      <trkpt lat="44.9479" lon="6.1761">
        <ele>1532.6</ele>
        <time>2023-07-23T13:55:30Z</time>
      </trkpt>
      <trkpt lat="44.94789" lon="6.17614">
        <ele>1537.4</ele>
        <time>2023-07-23T13:55:37Z</time>
      </trkpt>
      <trkpt lat="44.94785" lon="6.17617">
        <ele>1541.6</ele>
        <time>2023-07-23T13:55:44Z</time>
      </trkpt>
      <trkpt lat="44.94782" lon="6.17616">
        <ele>1543.3</ele>
        <time>2023-07-23T13:55:51Z</time>
      </trkpt>
      <trkpt lat="44.9478" lon="6.17619">
        <ele>1544.3</ele>
        <time>2023-07-23T13:55:58Z</time>
      </trkpt>
      <trkpt lat="44.94777" lon="6.17622">
        <ele>1544</ele>
        <time>2023-07-23T13:56:05Z</time>
      </trkpt>
      <trkpt lat="44.94776" lon="6.17622">
        <ele>1541.3</ele>
        <time>2023-07-23T13:56:12Z</time>
      </trkpt>
      <trkpt lat="44.94776" lon="6.17622">
        <ele>1542.1</ele>
        <time>2023-07-23T13:56:13Z</time>
      </trkpt>
      <trkpt lat="44.94773" lon="6.17623">
        <ele>1542.9</ele>
        <time>2023-07-23T13:56:20Z</time>
      </trkpt>
      <trkpt lat="44.94769" lon="6.17626">
        <ele>1543.8</ele>
        <time>2023-07-23T13:56:27Z</time>
      </trkpt>
      <trkpt lat="44.94767" lon="6.17627">
        <ele>1545.3</ele>
        <time>2023-07-23T13:56:34Z</time>
      </trkpt>
      <trkpt lat="44.94767" lon="6.17631">
        <ele>1549.9</ele>
        <time>2023-07-23T13:56:41Z</time>
      </trkpt>
      <trkpt lat="44.94766" lon="6.17633">
        <ele>1551.1</ele>
        <time>2023-07-23T13:56:48Z</time>
      </trkpt>
      <trkpt lat="44.94766" lon="6.17636">
        <ele>1552.7</ele>
        <time>2023-07-23T13:56:55Z</time>
      </trkpt>
      <trkpt lat="44.94766" lon="6.17636">
        <ele>1556</ele>
        <time>2023-07-23T13:57:02Z</time>
      </trkpt>
      <trkpt lat="44.94766" lon="6.17636">
        <ele>1556.4</ele>
        <time>2023-07-23T13:57:04Z</time>
      </trkpt>
      <trkpt lat="44.94766" lon="6.17637">
        <ele>1562.4</ele>
        <time>2023-07-23T13:57:12Z</time>
      </trkpt>
      <trkpt lat="44.94764" lon="6.17639">
        <ele>1566.3</ele>
        <time>2023-07-23T13:57:19Z</time>
      </trkpt>
      <trkpt lat="44.94761" lon="6.17639">
        <ele>1566.3</ele>
        <time>2023-07-23T13:57:26Z</time>
      </trkpt>
      <trkpt lat="44.9476" lon="6.17639">
        <ele>1567.2</ele>
        <time>2023-07-23T13:57:29Z</time>
      </trkpt>
      <trkpt lat="44.94754" lon="6.17641">
        <ele>1562.7</ele>
        <time>2023-07-23T13:57:36Z</time>
      </trkpt>
      <trkpt lat="44.94754" lon="6.17646">
        <ele>1562.1</ele>
        <time>2023-07-23T13:57:43Z</time>
      </trkpt>
      <trkpt lat="44.94758" lon="6.17649">
        <ele>1561.8</ele>
        <time>2023-07-23T13:57:50Z</time>
      </trkpt>
      <trkpt lat="44.94757" lon="6.17651">
        <ele>1558.6</ele>
        <time>2023-07-23T13:57:57Z</time>
      </trkpt>
      <trkpt lat="44.94755" lon="6.17649">
        <ele>1561.5</ele>
        <time>2023-07-23T13:58:04Z</time>
      </trkpt>
      <trkpt lat="44.94754" lon="6.17649">
        <ele>1564.7</ele>
        <time>2023-07-23T13:58:11Z</time>
      </trkpt>
      <trkpt lat="44.94757" lon="6.1765">
        <ele>1562</ele>
        <time>2023-07-23T13:58:18Z</time>
      </trkpt>
      <trkpt lat="44.94753" lon="6.17653">
        <ele>1561.5</ele>
        <time>2023-07-23T13:58:25Z</time>
      </trkpt>
      <trkpt lat="44.94752" lon="6.17653">
        <ele>1561.3</ele>
        <time>2023-07-23T13:58:32Z</time>
      </trkpt>
      <trkpt lat="44.94747" lon="6.17652">
        <ele>1560.9</ele>
        <time>2023-07-23T13:58:39Z</time>
      </trkpt>
      <trkpt lat="44.94744" lon="6.17652">
        <ele>1564.2</ele>
        <time>2023-07-23T13:58:46Z</time>
      </trkpt>
      <trkpt lat="44.94743" lon="6.17657">
        <ele>1563.1</ele>
        <time>2023-07-23T13:58:53Z</time>
      </trkpt>
      <trkpt lat="44.94747" lon="6.17661">
        <ele>1559.9</ele>
        <time>2023-07-23T13:59:00Z</time>
      </trkpt>
      <trkpt lat="44.94747" lon="6.17665">
        <ele>1563.7</ele>
        <time>2023-07-23T13:59:07Z</time>
      </trkpt>
      <trkpt lat="44.94742" lon="6.17667">
        <ele>1566.4</ele>
        <time>2023-07-23T13:59:14Z</time>
      </trkpt>
      <trkpt lat="44.94746" lon="6.17667">
        <ele>1568.6</ele>
        <time>2023-07-23T13:59:21Z</time>
      </trkpt>
      <trkpt lat="44.94746" lon="6.17668">
        <ele>1569.2</ele>
        <time>2023-07-23T13:59:28Z</time>
      </trkpt>
      <trkpt lat="44.94745" lon="6.17668">
        <ele>1569.2</ele>
        <time>2023-07-23T13:59:30Z</time>
      </trkpt>
      <trkpt lat="44.9474" lon="6.17671">
        <ele>1569.3</ele>
        <time>2023-07-23T13:59:38Z</time>
      </trkpt>
      <trkpt lat="44.94733" lon="6.17674">
        <ele>1571.6</ele>
        <time>2023-07-23T13:59:42Z</time>
      </trkpt>
      <trkpt lat="44.94735" lon="6.17677">
        <ele>1572</ele>
        <time>2023-07-23T13:59:49Z</time>
      </trkpt>
      <trkpt lat="44.94735" lon="6.17677">
        <ele>1572.2</ele>
        <time>2023-07-23T13:59:51Z</time>
      </trkpt>
      <trkpt lat="44.94733" lon="6.17676">
        <ele>1573.2</ele>
        <time>2023-07-23T14:00:30Z</time>
      </trkpt>
      <trkpt lat="44.94731" lon="6.17677">
        <ele>1571.9</ele>
        <time>2023-07-23T14:00:37Z</time>
      </trkpt>
      <trkpt lat="44.94731" lon="6.17677">
        <ele>1571.9</ele>
        <time>2023-07-23T14:00:39Z</time>
      </trkpt>
      <trkpt lat="44.94731" lon="6.17681">
        <ele>1574.9</ele>
        <time>2023-07-23T14:01:16Z</time>
      </trkpt>
      <trkpt lat="44.94739" lon="6.17686">
        <ele>1580.1</ele>
        <time>2023-07-23T14:01:22Z</time>
      </trkpt>
      <trkpt lat="44.94738" lon="6.1769">
        <ele>1579.1</ele>
        <time>2023-07-23T14:01:29Z</time>
      </trkpt>
      <trkpt lat="44.94731" lon="6.17686">
        <ele>1579.4</ele>
        <time>2023-07-23T14:01:35Z</time>
      </trkpt>
      <trkpt lat="44.94726" lon="6.17687">
        <ele>1577.1</ele>
        <time>2023-07-23T14:01:42Z</time>
      </trkpt>
      <trkpt lat="44.94723" lon="6.17685">
        <ele>1577.9</ele>
        <time>2023-07-23T14:01:49Z</time>
      </trkpt>
      <trkpt lat="44.9472" lon="6.17686">
        <ele>1578.4</ele>
        <time>2023-07-23T14:01:56Z</time>
      </trkpt>
      <trkpt lat="44.94716" lon="6.17685">
        <ele>1576.9</ele>
        <time>2023-07-23T14:02:03Z</time>
      </trkpt>
      <trkpt lat="44.94716" lon="6.17692">
        <ele>1575.8</ele>
        <time>2023-07-23T14:02:10Z</time>
      </trkpt>
      <trkpt lat="44.9472" lon="6.17696">
        <ele>1576.2</ele>
        <time>2023-07-23T14:02:17Z</time>
      </trkpt>
      <trkpt lat="44.94721" lon="6.17696">
        <ele>1577.6</ele>
        <time>2023-07-23T14:02:22Z</time>
      </trkpt>
      <trkpt lat="44.94722" lon="6.17696">
        <ele>1579.8</ele>
        <time>2023-07-23T14:02:30Z</time>
      </trkpt>
      <trkpt lat="44.94722" lon="6.17692">
        <ele>1580.6</ele>
        <time>2023-07-23T14:02:37Z</time>
      </trkpt>
      <trkpt lat="44.94722" lon="6.17693">
        <ele>1582</ele>
        <time>2023-07-23T14:02:41Z</time>
      </trkpt>
      <trkpt lat="44.9472" lon="6.17688">
        <ele>1582.8</ele>
        <time>2023-07-23T14:02:48Z</time>
      </trkpt>
      <trkpt lat="44.94719" lon="6.17683">
        <ele>1584.5</ele>
        <time>2023-07-23T14:02:55Z</time>
      </trkpt>
      <trkpt lat="44.94719" lon="6.17682">
        <ele>1584.9</ele>
        <time>2023-07-23T14:03:00Z</time>
      </trkpt>
      <trkpt lat="44.94722" lon="6.17679">
        <ele>1584.6</ele>
        <time>2023-07-23T14:03:09Z</time>
      </trkpt>
      <trkpt lat="44.94723" lon="6.17673">
        <ele>1587.1</ele>
        <time>2023-07-23T14:03:16Z</time>
      </trkpt>
      <trkpt lat="44.94722" lon="6.17667">
        <ele>1587.6</ele>
        <time>2023-07-23T14:03:23Z</time>
      </trkpt>
      <trkpt lat="44.94723" lon="6.17668">
        <ele>1587.3</ele>
        <time>2023-07-23T14:03:30Z</time>
      </trkpt>
      <trkpt lat="44.94723" lon="6.17668">
        <ele>1587.6</ele>
        <time>2023-07-23T14:03:32Z</time>
      </trkpt>
      <trkpt lat="44.94724" lon="6.17667">
        <ele>1590.1</ele>
        <time>2023-07-23T14:04:28Z</time>
      </trkpt>
      <trkpt lat="44.94724" lon="6.17667">
        <ele>1590.1</ele>
        <time>2023-07-23T14:04:29Z</time>
      </trkpt>
      <trkpt lat="44.94716" lon="6.1767">
        <ele>1589.4</ele>
        <time>2023-07-23T14:04:40Z</time>
      </trkpt>
      <trkpt lat="44.9471" lon="6.17665">
        <ele>1587.1</ele>
        <time>2023-07-23T14:04:47Z</time>
      </trkpt>
      <trkpt lat="44.94708" lon="6.17668">
        <ele>1586.4</ele>
        <time>2023-07-23T14:04:54Z</time>
      </trkpt>
      <trkpt lat="44.9471" lon="6.17672">
        <ele>1589.1</ele>
        <time>2023-07-23T14:05:01Z</time>
      </trkpt>
      <trkpt lat="44.94711" lon="6.17671">
        <ele>1591.1</ele>
        <time>2023-07-23T14:05:04Z</time>
      </trkpt>
      <trkpt lat="44.94714" lon="6.17667">
        <ele>1590.6</ele>
        <time>2023-07-23T14:05:13Z</time>
      </trkpt>
      <trkpt lat="44.94713" lon="6.17664">
        <ele>1591.8</ele>
        <time>2023-07-23T14:05:20Z</time>
      </trkpt>
      <trkpt lat="44.94711" lon="6.17662">
        <ele>1592.7</ele>
        <time>2023-07-23T14:05:28Z</time>
      </trkpt>
      <trkpt lat="44.94709" lon="6.17663">
        <ele>1590.4</ele>
        <time>2023-07-23T14:05:35Z</time>
      </trkpt>
      <trkpt lat="44.94709" lon="6.17663">
        <ele>1590.3</ele>
        <time>2023-07-23T14:05:39Z</time>
      </trkpt>
      <trkpt lat="44.9471" lon="6.17665">
        <ele>1590.4</ele>
        <time>2023-07-23T14:05:47Z</time>
      </trkpt>
      <trkpt lat="44.9471" lon="6.17665">
        <ele>1590.4</ele>
        <time>2023-07-23T14:05:48Z</time>
      </trkpt>
      <trkpt lat="44.94711" lon="6.17666">
        <ele>1591.3</ele>
        <time>2023-07-23T14:06:56Z</time>
      </trkpt>
      <trkpt lat="44.94711" lon="6.17666">
        <ele>1591.3</ele>
        <time>2023-07-23T14:06:57Z</time>
      </trkpt>
      <trkpt lat="44.94711" lon="6.17667">
        <ele>1593.6</ele>
        <time>2023-07-23T14:07:28Z</time>
      </trkpt>
      <trkpt lat="44.94711" lon="6.17667">
        <ele>1593.6</ele>
        <time>2023-07-23T14:07:29Z</time>
      </trkpt>
      <trkpt lat="44.94711" lon="6.17668">
        <ele>1592.8</ele>
        <time>2023-07-23T14:08:35Z</time>
      </trkpt>
      <trkpt lat="44.94711" lon="6.17668">
        <ele>1593</ele>
        <time>2023-07-23T14:08:36Z</time>
      </trkpt>
      <trkpt lat="44.94712" lon="6.17671">
        <ele>1593.1</ele>
        <time>2023-07-23T14:09:39Z</time>
      </trkpt>
      <trkpt lat="44.94711" lon="6.17671">
        <ele>1592.6</ele>
        <time>2023-07-23T14:09:41Z</time>
      </trkpt>
      <trkpt lat="44.94711" lon="6.1767">
        <ele>1591</ele>
        <time>2023-07-23T14:09:49Z</time>
      </trkpt>
      <trkpt lat="44.94712" lon="6.17671">
        <ele>1592.8</ele>
        <time>2023-07-23T14:09:54Z</time>
      </trkpt>
      <trkpt lat="44.94712" lon="6.17671">
        <ele>1591.4</ele>
        <time>2023-07-23T14:10:04Z</time>
      </trkpt>
      <trkpt lat="44.94712" lon="6.17671">
        <ele>1591.3</ele>
        <time>2023-07-23T14:10:05Z</time>
      </trkpt>
      <trkpt lat="44.94712" lon="6.17672">
        <ele>1594.6</ele>
        <time>2023-07-23T14:10:23Z</time>
      </trkpt>
      <trkpt lat="44.94712" lon="6.17672">
        <ele>1594.6</ele>
        <time>2023-07-23T14:10:24Z</time>
      </trkpt>
      <trkpt lat="44.94711" lon="6.17673">
        <ele>1594.7</ele>
        <time>2023-07-23T14:10:32Z</time>
      </trkpt>
      <trkpt lat="44.94711" lon="6.17674">
        <ele>1594.3</ele>
        <time>2023-07-23T14:10:33Z</time>
      </trkpt>
      <trkpt lat="44.94712" lon="6.17677">
        <ele>1595</ele>
        <time>2023-07-23T14:10:40Z</time>
      </trkpt>
      <trkpt lat="44.94712" lon="6.17677">
        <ele>1595.6</ele>
        <time>2023-07-23T14:10:42Z</time>
      </trkpt>
      <trkpt lat="44.94712" lon="6.17677">
        <ele>1595.8</ele>
        <time>2023-07-23T14:10:52Z</time>
      </trkpt>
      <trkpt lat="44.94712" lon="6.17677">
        <ele>1595.8</ele>
        <time>2023-07-23T14:10:53Z</time>
      </trkpt>
      <trkpt lat="44.9471" lon="6.17675">
        <ele>1593.5</ele>
        <time>2023-07-23T14:11:52Z</time>
      </trkpt>
      <trkpt lat="44.9471" lon="6.17675">
        <ele>1593.5</ele>
        <time>2023-07-23T14:11:53Z</time>
      </trkpt>
      <trkpt lat="44.94711" lon="6.17672">
        <ele>1595.8</ele>
        <time>2023-07-23T14:12:02Z</time>
      </trkpt>
      <trkpt lat="44.94711" lon="6.17672">
        <ele>1596.3</ele>
        <time>2023-07-23T14:12:04Z</time>
      </trkpt>
      <trkpt lat="44.94708" lon="6.17667">
        <ele>1592.4</ele>
        <time>2023-07-23T14:12:16Z</time>
      </trkpt>
      <trkpt lat="44.94705" lon="6.17669">
        <ele>1594.2</ele>
        <time>2023-07-23T14:12:23Z</time>
      </trkpt>
      <trkpt lat="44.94705" lon="6.17669">
        <ele>1594.7</ele>
        <time>2023-07-23T14:12:27Z</time>
      </trkpt>
      <trkpt lat="44.94701" lon="6.1767">
        <ele>1597.3</ele>
        <time>2023-07-23T14:12:36Z</time>
      </trkpt>
      <trkpt lat="44.94703" lon="6.17671">
        <ele>1597.2</ele>
        <time>2023-07-23T14:12:43Z</time>
      </trkpt>
      <trkpt lat="44.94702" lon="6.17671">
        <ele>1595.2</ele>
        <time>2023-07-23T14:12:50Z</time>
      </trkpt>
      <trkpt lat="44.94702" lon="6.1767">
        <ele>1593.6</ele>
        <time>2023-07-23T14:12:54Z</time>
      </trkpt>
      <trkpt lat="44.947" lon="6.17667">
        <ele>1592.5</ele>
        <time>2023-07-23T14:13:02Z</time>
      </trkpt>
      <trkpt lat="44.947" lon="6.17661">
        <ele>1594.8</ele>
        <time>2023-07-23T14:13:09Z</time>
      </trkpt>
      <trkpt lat="44.947" lon="6.17657">
        <ele>1598.4</ele>
        <time>2023-07-23T14:13:16Z</time>
      </trkpt>
      <trkpt lat="44.94698" lon="6.17653">
        <ele>1597.8</ele>
        <time>2023-07-23T14:13:23Z</time>
      </trkpt>
      <trkpt lat="44.94701" lon="6.17647">
        <ele>1600.5</ele>
        <time>2023-07-23T14:13:30Z</time>
      </trkpt>
      <trkpt lat="44.94703" lon="6.17642">
        <ele>1601.6</ele>
        <time>2023-07-23T14:13:37Z</time>
      </trkpt>
      <trkpt lat="44.94708" lon="6.17645">
        <ele>1602.8</ele>
        <time>2023-07-23T14:13:44Z</time>
      </trkpt>
      <trkpt lat="44.94709" lon="6.17644">
        <ele>1602.8</ele>
        <time>2023-07-23T14:13:51Z</time>
      </trkpt>
      <trkpt lat="44.94708" lon="6.1764">
        <ele>1602.5</ele>
        <time>2023-07-23T14:13:58Z</time>
      </trkpt>
      <trkpt lat="44.9471" lon="6.17637">
        <ele>1599.7</ele>
        <time>2023-07-23T14:14:05Z</time>
      </trkpt>
      <trkpt lat="44.94713" lon="6.17643">
        <ele>1600.5</ele>
        <time>2023-07-23T14:14:12Z</time>
      </trkpt>
      <trkpt lat="44.94715" lon="6.17646">
        <ele>1597.1</ele>
        <time>2023-07-23T14:14:19Z</time>
      </trkpt>
      <trkpt lat="44.94719" lon="6.17649">
        <ele>1606.8</ele>
        <time>2023-07-23T14:14:26Z</time>
      </trkpt>
      <trkpt lat="44.94724" lon="6.17645">
        <ele>1616</ele>
        <time>2023-07-23T14:14:33Z</time>
      </trkpt>
      <trkpt lat="44.94726" lon="6.17634">
        <ele>1613.4</ele>
        <time>2023-07-23T14:14:39Z</time>
      </trkpt>
      <trkpt lat="44.94728" lon="6.17631">
        <ele>1613.3</ele>
        <time>2023-07-23T14:14:46Z</time>
      </trkpt>
      <trkpt lat="44.94728" lon="6.17624">
        <ele>1614.5</ele>
        <time>2023-07-23T14:14:53Z</time>
      </trkpt>
      <trkpt lat="44.94726" lon="6.17619">
        <ele>1612.6</ele>
        <time>2023-07-23T14:15:00Z</time>
      </trkpt>
      <trkpt lat="44.94722" lon="6.17617">
        <ele>1612.6</ele>
        <time>2023-07-23T14:15:07Z</time>
      </trkpt>
      <trkpt lat="44.94719" lon="6.17617">
        <ele>1613.4</ele>
        <time>2023-07-23T14:15:14Z</time>
      </trkpt>
      <trkpt lat="44.94716" lon="6.17618">
        <ele>1617.1</ele>
        <time>2023-07-23T14:15:21Z</time>
      </trkpt>
      <trkpt lat="44.94716" lon="6.17619">
        <ele>1617.1</ele>
        <time>2023-07-23T14:15:28Z</time>
      </trkpt>
      <trkpt lat="44.94719" lon="6.17616">
        <ele>1615.7</ele>
        <time>2023-07-23T14:15:37Z</time>
      </trkpt>
      <trkpt lat="44.9472" lon="6.17617">
        <ele>1615.9</ele>
        <time>2023-07-23T14:15:41Z</time>
      </trkpt>
      <trkpt lat="44.9472" lon="6.17615">
        <ele>1615.7</ele>
        <time>2023-07-23T14:15:49Z</time>
      </trkpt>
      <trkpt lat="44.9472" lon="6.17615">
        <ele>1615.3</ele>
        <time>2023-07-23T14:15:50Z</time>
      </trkpt>
      <trkpt lat="44.9472" lon="6.17613">
        <ele>1616.3</ele>
        <time>2023-07-23T14:16:15Z</time>
      </trkpt>
      <trkpt lat="44.9472" lon="6.17613">
        <ele>1616.5</ele>
        <time>2023-07-23T14:16:16Z</time>
      </trkpt>
      <trkpt lat="44.9472" lon="6.17612">
        <ele>1617.9</ele>
        <time>2023-07-23T14:16:45Z</time>
      </trkpt>
      <trkpt lat="44.9472" lon="6.17612">
        <ele>1618.5</ele>
        <time>2023-07-23T14:16:46Z</time>
      </trkpt>
      <trkpt lat="44.94723" lon="6.17608">
        <ele>1618.1</ele>
        <time>2023-07-23T14:16:53Z</time>
      </trkpt>
      <trkpt lat="44.94724" lon="6.17611">
        <ele>1617.6</ele>
        <time>2023-07-23T14:17:00Z</time>
      </trkpt>
      <trkpt lat="44.94724" lon="6.17607">
        <ele>1618.5</ele>
        <time>2023-07-23T14:17:07Z</time>
      </trkpt>
      <trkpt lat="44.94728" lon="6.17607">
        <ele>1621.3</ele>
        <time>2023-07-23T14:17:14Z</time>
      </trkpt>
      <trkpt lat="44.94728" lon="6.17599">
        <ele>1622.6</ele>
        <time>2023-07-23T14:17:21Z</time>
      </trkpt>
      <trkpt lat="44.94731" lon="6.17601">
        <ele>1625</ele>
        <time>2023-07-23T14:17:28Z</time>
      </trkpt>
      <trkpt lat="44.94733" lon="6.17601">
        <ele>1625.7</ele>
        <time>2023-07-23T14:17:35Z</time>
      </trkpt>
      <trkpt lat="44.94736" lon="6.17597">
        <ele>1626.2</ele>
        <time>2023-07-23T14:17:42Z</time>
      </trkpt>
      <trkpt lat="44.94739" lon="6.17596">
        <ele>1626.8</ele>
        <time>2023-07-23T14:17:49Z</time>
      </trkpt>
      <trkpt lat="44.9474" lon="6.17595">
        <ele>1626.6</ele>
        <time>2023-07-23T14:17:56Z</time>
      </trkpt>
      <trkpt lat="44.9474" lon="6.17595">
        <ele>1627.2</ele>
        <time>2023-07-23T14:17:59Z</time>
      </trkpt>
      <trkpt lat="44.9474" lon="6.17591">
        <ele>1625.5</ele>
        <time>2023-07-23T14:18:06Z</time>
      </trkpt>
      <trkpt lat="44.94743" lon="6.17592">
        <ele>1626.1</ele>
        <time>2023-07-23T14:18:13Z</time>
      </trkpt>
      <trkpt lat="44.94746" lon="6.17591">
        <ele>1623.9</ele>
        <time>2023-07-23T14:18:20Z</time>
      </trkpt>
      <trkpt lat="44.94748" lon="6.17583">
        <ele>1626.8</ele>
        <time>2023-07-23T14:18:27Z</time>
      </trkpt>
      <trkpt lat="44.9475" lon="6.17581">
        <ele>1626</ele>
        <time>2023-07-23T14:18:34Z</time>
      </trkpt>
      <trkpt lat="44.94753" lon="6.1758">
        <ele>1626.3</ele>
        <time>2023-07-23T14:18:41Z</time>
      </trkpt>
      <trkpt lat="44.94754" lon="6.1758">
        <ele>1627.7</ele>
        <time>2023-07-23T14:18:43Z</time>
      </trkpt>
      <trkpt lat="44.94757" lon="6.17577">
        <ele>1631</ele>
        <time>2023-07-23T14:18:51Z</time>
      </trkpt>
      <trkpt lat="44.94754" lon="6.17572">
        <ele>1633.4</ele>
        <time>2023-07-23T14:18:58Z</time>
      </trkpt>
      <trkpt lat="44.94753" lon="6.17568">
        <ele>1634.3</ele>
        <time>2023-07-23T14:19:05Z</time>
      </trkpt>
      <trkpt lat="44.94751" lon="6.17566">
        <ele>1636.3</ele>
        <time>2023-07-23T14:19:12Z</time>
      </trkpt>
      <trkpt lat="44.94752" lon="6.17566">
        <ele>1636.4</ele>
        <time>2023-07-23T14:19:14Z</time>
      </trkpt>
      <trkpt lat="44.9475" lon="6.17566">
        <ele>1638.3</ele>
        <time>2023-07-23T14:19:21Z</time>
      </trkpt>
      <trkpt lat="44.94747" lon="6.17564">
        <ele>1634</ele>
        <time>2023-07-23T14:19:28Z</time>
      </trkpt>
      <trkpt lat="44.94746" lon="6.17565">
        <ele>1635.6</ele>
        <time>2023-07-23T14:19:35Z</time>
      </trkpt>
      <trkpt lat="44.94746" lon="6.17566">
        <ele>1636.5</ele>
        <time>2023-07-23T14:19:36Z</time>
      </trkpt>
      <trkpt lat="44.94743" lon="6.17566">
        <ele>1637.7</ele>
        <time>2023-07-23T14:19:44Z</time>
      </trkpt>
      <trkpt lat="44.94744" lon="6.17568">
        <ele>1638.7</ele>
        <time>2023-07-23T14:19:50Z</time>
      </trkpt>
      <trkpt lat="44.94742" lon="6.17566">
        <ele>1638.8</ele>
        <time>2023-07-23T14:19:57Z</time>
      </trkpt>
      <trkpt lat="44.94742" lon="6.17564">
        <ele>1639.3</ele>
        <time>2023-07-23T14:20:04Z</time>
      </trkpt>
      <trkpt lat="44.9474" lon="6.17559">
        <ele>1640</ele>
        <time>2023-07-23T14:20:11Z</time>
      </trkpt>
      <trkpt lat="44.94739" lon="6.17556">
        <ele>1640.5</ele>
        <time>2023-07-23T14:20:18Z</time>
      </trkpt>
      <trkpt lat="44.94738" lon="6.17556">
        <ele>1640.6</ele>
        <time>2023-07-23T14:20:25Z</time>
      </trkpt>
      <trkpt lat="44.9473" lon="6.1756">
        <ele>1640.3</ele>
        <time>2023-07-23T14:20:28Z</time>
      </trkpt>
      <trkpt lat="44.94728" lon="6.17566">
        <ele>1640.6</ele>
        <time>2023-07-23T14:20:35Z</time>
      </trkpt>
      <trkpt lat="44.94723" lon="6.17569">
        <ele>1640.6</ele>
        <time>2023-07-23T14:20:42Z</time>
      </trkpt>
      <trkpt lat="44.94718" lon="6.17568">
        <ele>1642.2</ele>
        <time>2023-07-23T14:20:49Z</time>
      </trkpt>
      <trkpt lat="44.94719" lon="6.17569">
        <ele>1644.4</ele>
        <time>2023-07-23T14:20:55Z</time>
      </trkpt>
      <trkpt lat="44.94717" lon="6.1757">
        <ele>1646.6</ele>
        <time>2023-07-23T14:21:05Z</time>
      </trkpt>
      <trkpt lat="44.94716" lon="6.17569">
        <ele>1648.5</ele>
        <time>2023-07-23T14:21:09Z</time>
      </trkpt>
      <trkpt lat="44.94716" lon="6.17571">
        <ele>1654.2</ele>
        <time>2023-07-23T14:21:19Z</time>
      </trkpt>
      <trkpt lat="44.94716" lon="6.17571">
        <ele>1654.7</ele>
        <time>2023-07-23T14:21:20Z</time>
      </trkpt>
      <trkpt lat="44.94717" lon="6.17571">
        <ele>1654.4</ele>
        <time>2023-07-23T14:21:36Z</time>
      </trkpt>
      <trkpt lat="44.94716" lon="6.17571">
        <ele>1654.1</ele>
        <time>2023-07-23T14:21:37Z</time>
      </trkpt>
      <trkpt lat="44.94716" lon="6.17572">
        <ele>1655.4</ele>
        <time>2023-07-23T14:21:48Z</time>
      </trkpt>
      <trkpt lat="44.94716" lon="6.17572">
        <ele>1655.4</ele>
        <time>2023-07-23T14:21:49Z</time>
      </trkpt>
      <trkpt lat="44.94714" lon="6.17564">
        <ele>1655.1</ele>
        <time>2023-07-23T14:21:56Z</time>
      </trkpt>
      <trkpt lat="44.94713" lon="6.17564">
        <ele>1656.4</ele>
        <time>2023-07-23T14:22:03Z</time>
      </trkpt>
      <trkpt lat="44.94714" lon="6.17562">
        <ele>1655.1</ele>
        <time>2023-07-23T14:22:10Z</time>
      </trkpt>
      <trkpt lat="44.94713" lon="6.17561">
        <ele>1655.5</ele>
        <time>2023-07-23T14:22:17Z</time>
      </trkpt>
      <trkpt lat="44.94713" lon="6.17561">
        <ele>1653.9</ele>
        <time>2023-07-23T14:23:11Z</time>
      </trkpt>
      <trkpt lat="44.94713" lon="6.17561">
        <ele>1653.9</ele>
        <time>2023-07-23T14:23:12Z</time>
      </trkpt>
      <trkpt lat="44.94715" lon="6.17563">
        <ele>1650.8</ele>
        <time>2023-07-23T14:25:43Z</time>
      </trkpt>
      <trkpt lat="44.94715" lon="6.17564">
        <ele>1649</ele>
        <time>2023-07-23T14:25:50Z</time>
      </trkpt>
      <trkpt lat="44.94716" lon="6.17566">
        <ele>1646.9</ele>
        <time>2023-07-23T14:26:00Z</time>
      </trkpt>
      <trkpt lat="44.94716" lon="6.17566">
        <ele>1646.9</ele>
        <time>2023-07-23T14:26:01Z</time>
      </trkpt>
      <trkpt lat="44.94716" lon="6.17567">
        <ele>1647.6</ele>
        <time>2023-07-23T14:26:19Z</time>
      </trkpt>
      <trkpt lat="44.94716" lon="6.17567">
        <ele>1647.6</ele>
        <time>2023-07-23T14:26:20Z</time>
      </trkpt>
      <trkpt lat="44.94716" lon="6.17565">
        <ele>1651.4</ele>
        <time>2023-07-23T14:26:35Z</time>
      </trkpt>
      <trkpt lat="44.94716" lon="6.17565">
        <ele>1652.2</ele>
        <time>2023-07-23T14:26:38Z</time>
      </trkpt>
      <trkpt lat="44.94716" lon="6.17566">
        <ele>1652.1</ele>
        <time>2023-07-23T14:26:51Z</time>
      </trkpt>
      <trkpt lat="44.94716" lon="6.17566">
        <ele>1651.9</ele>
        <time>2023-07-23T14:26:52Z</time>
      </trkpt>
      <trkpt lat="44.9472" lon="6.17564">
        <ele>1652</ele>
        <time>2023-07-23T14:28:38Z</time>
      </trkpt>
      <trkpt lat="44.9472" lon="6.17562">
        <ele>1652.7</ele>
        <time>2023-07-23T14:28:45Z</time>
      </trkpt>
      <trkpt lat="44.9472" lon="6.17562">
        <ele>1652.9</ele>
        <time>2023-07-23T14:28:49Z</time>
      </trkpt>
      <trkpt lat="44.94722" lon="6.17564">
        <ele>1654.7</ele>
        <time>2023-07-23T14:29:14Z</time>
      </trkpt>
      <trkpt lat="44.94722" lon="6.17564">
        <ele>1654.7</ele>
        <time>2023-07-23T14:29:15Z</time>
      </trkpt>
      <trkpt lat="44.94721" lon="6.17564">
        <ele>1653.3</ele>
        <time>2023-07-23T14:30:46Z</time>
      </trkpt>
      <trkpt lat="44.94721" lon="6.17564">
        <ele>1653.3</ele>
        <time>2023-07-23T14:30:47Z</time>
      </trkpt>
      <trkpt lat="44.94723" lon="6.17564">
        <ele>1653.3</ele>
        <time>2023-07-23T14:32:09Z</time>
      </trkpt>
      <trkpt lat="44.94723" lon="6.17564">
        <ele>1653.1</ele>
        <time>2023-07-23T14:32:11Z</time>
      </trkpt>
      <trkpt lat="44.94723" lon="6.17563">
        <ele>1652.6</ele>
        <time>2023-07-23T14:32:22Z</time>
      </trkpt>
      <trkpt lat="44.94723" lon="6.17563">
        <ele>1652.6</ele>
        <time>2023-07-23T14:32:23Z</time>
      </trkpt>
      <trkpt lat="44.94723" lon="6.17562">
        <ele>1652.4</ele>
        <time>2023-07-23T14:35:36Z</time>
      </trkpt>
      <trkpt lat="44.94723" lon="6.17562">
        <ele>1652.4</ele>
        <time>2023-07-23T14:35:37Z</time>
      </trkpt>
      <trkpt lat="44.94722" lon="6.17562">
        <ele>1653.3</ele>
        <time>2023-07-23T14:38:50Z</time>
      </trkpt>
      <trkpt lat="44.94722" lon="6.17562">
        <ele>1653.3</ele>
        <time>2023-07-23T14:38:51Z</time>
      </trkpt>
      <trkpt lat="44.94723" lon="6.17559">
        <ele>1652.3</ele>
        <time>2023-07-23T14:40:31Z</time>
      </trkpt>
      <trkpt lat="44.94721" lon="6.17557">
        <ele>1653.6</ele>
        <time>2023-07-23T14:40:38Z</time>
      </trkpt>
      <trkpt lat="44.94718" lon="6.17556">
        <ele>1653.3</ele>
        <time>2023-07-23T14:40:45Z</time>
      </trkpt>
      <trkpt lat="44.94713" lon="6.17556">
        <ele>1651.2</ele>
        <time>2023-07-23T14:40:52Z</time>
      </trkpt>
      <trkpt lat="44.94714" lon="6.17556">
        <ele>1655</ele>
        <time>2023-07-23T14:40:59Z</time>
      </trkpt>
      <trkpt lat="44.94715" lon="6.17556">
        <ele>1652.6</ele>
        <time>2023-07-23T14:41:06Z</time>
      </trkpt>
      <trkpt lat="44.94716" lon="6.17556">
        <ele>1652.5</ele>
        <time>2023-07-23T14:41:07Z</time>
      </trkpt>
      <trkpt lat="44.94715" lon="6.17555">
        <ele>1651.1</ele>
        <time>2023-07-23T14:41:15Z</time>
      </trkpt>
      <trkpt lat="44.94709" lon="6.17552">
        <ele>1651.9</ele>
        <time>2023-07-23T14:41:22Z</time>
      </trkpt>
      <trkpt lat="44.94711" lon="6.17553">
        <ele>1658.9</ele>
        <time>2023-07-23T14:41:29Z</time>
      </trkpt>
      <trkpt lat="44.94706" lon="6.1755">
        <ele>1657.8</ele>
        <time>2023-07-23T14:41:36Z</time>
      </trkpt>
      <trkpt lat="44.94704" lon="6.17547">
        <ele>1655.9</ele>
        <time>2023-07-23T14:41:43Z</time>
      </trkpt>
      <trkpt lat="44.94708" lon="6.17547">
        <ele>1658.2</ele>
        <time>2023-07-23T14:41:50Z</time>
      </trkpt>
      <trkpt lat="44.94716" lon="6.1755">
        <ele>1666.5</ele>
        <time>2023-07-23T14:41:57Z</time>
      </trkpt>
      <trkpt lat="44.94723" lon="6.1755">
        <ele>1671.2</ele>
        <time>2023-07-23T14:42:04Z</time>
      </trkpt>
      <trkpt lat="44.94726" lon="6.1755">
        <ele>1673.2</ele>
        <time>2023-07-23T14:42:11Z</time>
      </trkpt>
      <trkpt lat="44.94726" lon="6.17551">
        <ele>1673.4</ele>
        <time>2023-07-23T14:42:17Z</time>
      </trkpt>
      <trkpt lat="44.94726" lon="6.17554">
        <ele>1675.5</ele>
        <time>2023-07-23T14:42:58Z</time>
      </trkpt>
      <trkpt lat="44.94726" lon="6.17554">
        <ele>1676</ele>
        <time>2023-07-23T14:42:59Z</time>
      </trkpt>
      <trkpt lat="44.94733" lon="6.1755">
        <ele>1682.5</ele>
        <time>2023-07-23T14:43:07Z</time>
      </trkpt>
      <trkpt lat="44.94737" lon="6.17545">
        <ele>1686.5</ele>
        <time>2023-07-23T14:43:14Z</time>
      </trkpt>
      <trkpt lat="44.94733" lon="6.1754">
        <ele>1682.5</ele>
        <time>2023-07-23T14:43:21Z</time>
      </trkpt>
      <trkpt lat="44.9473" lon="6.17539">
        <ele>1684.6</ele>
        <time>2023-07-23T14:43:28Z</time>
      </trkpt>
      <trkpt lat="44.94733" lon="6.17536">
        <ele>1686.3</ele>
        <time>2023-07-23T14:43:35Z</time>
      </trkpt>
      <trkpt lat="44.94738" lon="6.17536">
        <ele>1691.1</ele>
        <time>2023-07-23T14:43:42Z</time>
      </trkpt>
      <trkpt lat="44.9474" lon="6.17529">
        <ele>1691.8</ele>
        <time>2023-07-23T14:43:49Z</time>
      </trkpt>
      <trkpt lat="44.9474" lon="6.1752">
        <ele>1689.1</ele>
        <time>2023-07-23T14:43:56Z</time>
      </trkpt>
      <trkpt lat="44.94739" lon="6.17521">
        <ele>1688.7</ele>
        <time>2023-07-23T14:44:03Z</time>
      </trkpt>
      <trkpt lat="44.94733" lon="6.17518">
        <ele>1685.3</ele>
        <time>2023-07-23T14:44:10Z</time>
      </trkpt>
      <trkpt lat="44.94737" lon="6.17521">
        <ele>1688.6</ele>
        <time>2023-07-23T14:44:17Z</time>
      </trkpt>
      <trkpt lat="44.94737" lon="6.17515">
        <ele>1686.2</ele>
        <time>2023-07-23T14:44:24Z</time>
      </trkpt>
      <trkpt lat="44.94737" lon="6.17514">
        <ele>1689</ele>
        <time>2023-07-23T14:44:31Z</time>
      </trkpt>
      <trkpt lat="44.94731" lon="6.17515">
        <ele>1688.8</ele>
        <time>2023-07-23T14:44:38Z</time>
      </trkpt>
      <trkpt lat="44.9473" lon="6.17512">
        <ele>1692.5</ele>
        <time>2023-07-23T14:44:45Z</time>
      </trkpt>
      <trkpt lat="44.94729" lon="6.17513">
        <ele>1690.3</ele>
        <time>2023-07-23T14:44:50Z</time>
      </trkpt>
      <trkpt lat="44.94733" lon="6.17516">
        <ele>1694.3</ele>
        <time>2023-07-23T14:44:58Z</time>
      </trkpt>
      <trkpt lat="44.94733" lon="6.17515">
        <ele>1694.9</ele>
        <time>2023-07-23T14:45:03Z</time>
      </trkpt>
      <trkpt lat="44.94731" lon="6.17514">
        <ele>1699</ele>
        <time>2023-07-23T14:45:11Z</time>
      </trkpt>
      <trkpt lat="44.94729" lon="6.17514">
        <ele>1697.9</ele>
        <time>2023-07-23T14:45:18Z</time>
      </trkpt>
      <trkpt lat="44.94729" lon="6.17513">
        <ele>1699</ele>
        <time>2023-07-23T14:45:20Z</time>
      </trkpt>
      <trkpt lat="44.94729" lon="6.1751">
        <ele>1702.4</ele>
        <time>2023-07-23T14:45:28Z</time>
      </trkpt>
      <trkpt lat="44.94729" lon="6.1751">
        <ele>1702.9</ele>
        <time>2023-07-23T14:45:29Z</time>
      </trkpt>
      <trkpt lat="44.94724" lon="6.17512">
        <ele>1703.2</ele>
        <time>2023-07-23T14:45:37Z</time>
      </trkpt>
      <trkpt lat="44.94724" lon="6.17512">
        <ele>1703.6</ele>
        <time>2023-07-23T14:45:44Z</time>
      </trkpt>
      <trkpt lat="44.94719" lon="6.17511">
        <ele>1702.1</ele>
        <time>2023-07-23T14:45:51Z</time>
      </trkpt>
      <trkpt lat="44.94714" lon="6.1751">
        <ele>1702.9</ele>
        <time>2023-07-23T14:45:58Z</time>
      </trkpt>
      <trkpt lat="44.94716" lon="6.17509">
        <ele>1706</ele>
        <time>2023-07-23T14:46:05Z</time>
      </trkpt>
      <trkpt lat="44.94719" lon="6.17506">
        <ele>1707.4</ele>
        <time>2023-07-23T14:46:12Z</time>
      </trkpt>
      <trkpt lat="44.9472" lon="6.17508">
        <ele>1706</ele>
        <time>2023-07-23T14:46:19Z</time>
      </trkpt>
      <trkpt lat="44.94721" lon="6.17507">
        <ele>1710</ele>
        <time>2023-07-23T14:46:26Z</time>
      </trkpt>
      <trkpt lat="44.94723" lon="6.17506">
        <ele>1709.7</ele>
        <time>2023-07-23T14:46:33Z</time>
      </trkpt>
      <trkpt lat="44.94724" lon="6.17503">
        <ele>1710.8</ele>
        <time>2023-07-23T14:46:40Z</time>
      </trkpt>
      <trkpt lat="44.94727" lon="6.17498">
        <ele>1711.2</ele>
        <time>2023-07-23T14:46:47Z</time>
      </trkpt>
      <trkpt lat="44.94728" lon="6.17496">
        <ele>1711.8</ele>
        <time>2023-07-23T14:46:54Z</time>
      </trkpt>
      <trkpt lat="44.94727" lon="6.17493">
        <ele>1717.1</ele>
        <time>2023-07-23T14:47:01Z</time>
      </trkpt>
      <trkpt lat="44.94726" lon="6.17491">
        <ele>1716</ele>
        <time>2023-07-23T14:47:08Z</time>
      </trkpt>
      <trkpt lat="44.94724" lon="6.17486">
        <ele>1715.6</ele>
        <time>2023-07-23T14:47:15Z</time>
      </trkpt>
      <trkpt lat="44.94726" lon="6.17483">
        <ele>1715.9</ele>
        <time>2023-07-23T14:47:22Z</time>
      </trkpt>
      <trkpt lat="44.94726" lon="6.17483">
        <ele>1716.1</ele>
        <time>2023-07-23T14:47:25Z</time>
      </trkpt>
      <trkpt lat="44.94723" lon="6.17484">
        <ele>1716.7</ele>
        <time>2023-07-23T14:47:37Z</time>
      </trkpt>
      <trkpt lat="44.94718" lon="6.17484">
        <ele>1718.6</ele>
        <time>2023-07-23T14:47:44Z</time>
      </trkpt>
      <trkpt lat="44.94714" lon="6.17481">
        <ele>1716.9</ele>
        <time>2023-07-23T14:47:51Z</time>
      </trkpt>
      <trkpt lat="44.94714" lon="6.17479">
        <ele>1720.2</ele>
        <time>2023-07-23T14:47:58Z</time>
      </trkpt>
      <trkpt lat="44.94711" lon="6.17479">
        <ele>1720.2</ele>
        <time>2023-07-23T14:48:05Z</time>
      </trkpt>
      <trkpt lat="44.94709" lon="6.17479">
        <ele>1721.1</ele>
        <time>2023-07-23T14:48:12Z</time>
      </trkpt>
      <trkpt lat="44.94711" lon="6.17477">
        <ele>1720</ele>
        <time>2023-07-23T14:48:20Z</time>
      </trkpt>
      <trkpt lat="44.94708" lon="6.17477">
        <ele>1718.7</ele>
        <time>2023-07-23T14:48:27Z</time>
      </trkpt>
      <trkpt lat="44.94709" lon="6.17477">
        <ele>1717.3</ele>
        <time>2023-07-23T14:48:34Z</time>
      </trkpt>
      <trkpt lat="44.94709" lon="6.17475">
        <ele>1716.8</ele>
        <time>2023-07-23T14:48:41Z</time>
      </trkpt>
      <trkpt lat="44.94709" lon="6.17472">
        <ele>1727.5</ele>
        <time>2023-07-23T14:48:48Z</time>
      </trkpt>
      <trkpt lat="44.94709" lon="6.17473">
        <ele>1731.3</ele>
        <time>2023-07-23T14:48:55Z</time>
      </trkpt>
      <trkpt lat="44.94711" lon="6.17474">
        <ele>1734.1</ele>
        <time>2023-07-23T14:49:02Z</time>
      </trkpt>
      <trkpt lat="44.94709" lon="6.17474">
        <ele>1737.2</ele>
        <time>2023-07-23T14:49:09Z</time>
      </trkpt>
      <trkpt lat="44.9471" lon="6.17474">
        <ele>1738.6</ele>
        <time>2023-07-23T14:49:12Z</time>
      </trkpt>
      <trkpt lat="44.94708" lon="6.17471">
        <ele>1743</ele>
        <time>2023-07-23T14:49:20Z</time>
      </trkpt>
      <trkpt lat="44.94708" lon="6.17471">
        <ele>1743.3</ele>
        <time>2023-07-23T14:49:21Z</time>
      </trkpt>
      <trkpt lat="44.94705" lon="6.17468">
        <ele>1742.1</ele>
        <time>2023-07-23T14:49:29Z</time>
      </trkpt>
      <trkpt lat="44.94705" lon="6.17464">
        <ele>1745.6</ele>
        <time>2023-07-23T14:49:36Z</time>
      </trkpt>
      <trkpt lat="44.94704" lon="6.17463">
        <ele>1744.8</ele>
        <time>2023-07-23T14:49:40Z</time>
      </trkpt>
      <trkpt lat="44.94702" lon="6.17467">
        <ele>1744</ele>
        <time>2023-07-23T14:49:50Z</time>
      </trkpt>
      <trkpt lat="44.94701" lon="6.17467">
        <ele>1743.5</ele>
        <time>2023-07-23T14:49:57Z</time>
      </trkpt>
      <trkpt lat="44.94701" lon="6.17467">
        <ele>1743.5</ele>
        <time>2023-07-23T14:49:59Z</time>
      </trkpt>
      <trkpt lat="44.94702" lon="6.1747">
        <ele>1737</ele>
        <time>2023-07-23T14:50:20Z</time>
      </trkpt>
      <trkpt lat="44.947" lon="6.17469">
        <ele>1732.3</ele>
        <time>2023-07-23T14:50:27Z</time>
      </trkpt>
      <trkpt lat="44.94699" lon="6.1747">
        <ele>1729.5</ele>
        <time>2023-07-23T14:50:32Z</time>
      </trkpt>
      <trkpt lat="44.94699" lon="6.17471">
        <ele>1729.1</ele>
        <time>2023-07-23T14:50:47Z</time>
      </trkpt>
      <trkpt lat="44.94699" lon="6.17471">
        <ele>1729.1</ele>
        <time>2023-07-23T14:50:48Z</time>
      </trkpt>
      <trkpt lat="44.94698" lon="6.17471">
        <ele>1727.5</ele>
        <time>2023-07-23T14:51:03Z</time>
      </trkpt>
      <trkpt lat="44.94698" lon="6.17471">
        <ele>1727.4</ele>
        <time>2023-07-23T14:51:04Z</time>
      </trkpt>
      <trkpt lat="44.94697" lon="6.17469">
        <ele>1725.6</ele>
        <time>2023-07-23T14:51:21Z</time>
      </trkpt>
      <trkpt lat="44.94697" lon="6.17469">
        <ele>1726.1</ele>
        <time>2023-07-23T14:51:22Z</time>
      </trkpt>
      <trkpt lat="44.94698" lon="6.1747">
        <ele>1725.5</ele>
        <time>2023-07-23T14:51:32Z</time>
      </trkpt>
      <trkpt lat="44.94698" lon="6.1747">
        <ele>1725.4</ele>
        <time>2023-07-23T14:51:33Z</time>
      </trkpt>
      <trkpt lat="44.94697" lon="6.17469">
        <ele>1724.8</ele>
        <time>2023-07-23T14:52:26Z</time>
      </trkpt>
      <trkpt lat="44.94697" lon="6.17469">
        <ele>1724.8</ele>
        <time>2023-07-23T14:52:27Z</time>
      </trkpt>
      <trkpt lat="44.94698" lon="6.17469">
        <ele>1724.8</ele>
        <time>2023-07-23T14:53:23Z</time>
      </trkpt>
      <trkpt lat="44.94698" lon="6.17469">
        <ele>1724.8</ele>
        <time>2023-07-23T14:53:24Z</time>
      </trkpt>
      <trkpt lat="44.94695" lon="6.17467">
        <ele>1723</ele>
        <time>2023-07-23T14:55:40Z</time>
      </trkpt>
      <trkpt lat="44.94695" lon="6.17467">
        <ele>1723</ele>
        <time>2023-07-23T14:55:41Z</time>
      </trkpt>
      <trkpt lat="44.94695" lon="6.17465">
        <ele>1723.1</ele>
        <time>2023-07-23T14:55:50Z</time>
      </trkpt>
      <trkpt lat="44.94695" lon="6.17465">
        <ele>1722.9</ele>
        <time>2023-07-23T14:55:51Z</time>
      </trkpt>
      <trkpt lat="44.94694" lon="6.17463">
        <ele>1723.3</ele>
        <time>2023-07-23T14:56:13Z</time>
      </trkpt>
      <trkpt lat="44.94694" lon="6.17463">
        <ele>1723.5</ele>
        <time>2023-07-23T14:56:15Z</time>
      </trkpt>
      <trkpt lat="44.94693" lon="6.17464">
        <ele>1722.4</ele>
        <time>2023-07-23T14:58:30Z</time>
      </trkpt>
      <trkpt lat="44.94693" lon="6.17464">
        <ele>1722.4</ele>
        <time>2023-07-23T14:58:31Z</time>
      </trkpt>
      <trkpt lat="44.94694" lon="6.17463">
        <ele>1722</ele>
        <time>2023-07-23T14:59:12Z</time>
      </trkpt>
      <trkpt lat="44.94694" lon="6.17463">
        <ele>1722</ele>
        <time>2023-07-23T14:59:13Z</time>
      </trkpt>
      <trkpt lat="44.94694" lon="6.17463">
        <ele>1722.5</ele>
        <time>2023-07-23T15:00:45Z</time>
      </trkpt>
      <trkpt lat="44.94695" lon="6.17463">
        <ele>1722.3</ele>
        <time>2023-07-23T15:00:47Z</time>
      </trkpt>
      <trkpt lat="44.94698" lon="6.17463">
        <ele>1723.4</ele>
        <time>2023-07-23T15:00:54Z</time>
      </trkpt>
      <trkpt lat="44.94698" lon="6.17455">
        <ele>1723.3</ele>
        <time>2023-07-23T15:01:01Z</time>
      </trkpt>
      <trkpt lat="44.94694" lon="6.17452">
        <ele>1723.3</ele>
        <time>2023-07-23T15:01:08Z</time>
      </trkpt>
      <trkpt lat="44.94693" lon="6.17446">
        <ele>1724.6</ele>
        <time>2023-07-23T15:01:15Z</time>
      </trkpt>
      <trkpt lat="44.94695" lon="6.17452">
        <ele>1724.4</ele>
        <time>2023-07-23T15:01:22Z</time>
      </trkpt>
      <trkpt lat="44.947" lon="6.17455">
        <ele>1725.3</ele>
        <time>2023-07-23T15:01:29Z</time>
      </trkpt>
      <trkpt lat="44.94707" lon="6.17452">
        <ele>1725.3</ele>
        <time>2023-07-23T15:01:36Z</time>
      </trkpt>
      <trkpt lat="44.94711" lon="6.17448">
        <ele>1725.6</ele>
        <time>2023-07-23T15:01:43Z</time>
      </trkpt>
      <trkpt lat="44.94716" lon="6.17447">
        <ele>1725.1</ele>
        <time>2023-07-23T15:01:50Z</time>
      </trkpt>
      <trkpt lat="44.9471" lon="6.17446">
        <ele>1729.2</ele>
        <time>2023-07-23T15:01:57Z</time>
      </trkpt>
      <trkpt lat="44.94705" lon="6.17445">
        <ele>1733.1</ele>
        <time>2023-07-23T15:02:04Z</time>
      </trkpt>
      <trkpt lat="44.94702" lon="6.17442">
        <ele>1734.6</ele>
        <time>2023-07-23T15:02:11Z</time>
      </trkpt>
      <trkpt lat="44.94698" lon="6.17439">
        <ele>1734.5</ele>
        <time>2023-07-23T15:02:18Z</time>
      </trkpt>
      <trkpt lat="44.94694" lon="6.17438">
        <ele>1734.3</ele>
        <time>2023-07-23T15:02:25Z</time>
      </trkpt>
      <trkpt lat="44.94688" lon="6.17441">
        <ele>1741.1</ele>
        <time>2023-07-23T15:02:32Z</time>
      </trkpt>
      <trkpt lat="44.94695" lon="6.1744">
        <ele>1741.6</ele>
        <time>2023-07-23T15:02:39Z</time>
      </trkpt>
      <trkpt lat="44.947" lon="6.17431">
        <ele>1744.3</ele>
        <time>2023-07-23T15:02:46Z</time>
      </trkpt>
      <trkpt lat="44.94707" lon="6.17425">
        <ele>1740.6</ele>
        <time>2023-07-23T15:02:51Z</time>
      </trkpt>
      <trkpt lat="44.94708" lon="6.17423">
        <ele>1739.8</ele>
        <time>2023-07-23T15:02:58Z</time>
      </trkpt>
      <trkpt lat="44.9471" lon="6.17423">
        <ele>1740.8</ele>
        <time>2023-07-23T15:03:05Z</time>
      </trkpt>
      <trkpt lat="44.9471" lon="6.17423">
        <ele>1741.2</ele>
        <time>2023-07-23T15:03:12Z</time>
      </trkpt>
      <trkpt lat="44.94711" lon="6.17419">
        <ele>1742.5</ele>
        <time>2023-07-23T15:03:19Z</time>
      </trkpt>
      <trkpt lat="44.94713" lon="6.17414">
        <ele>1747.3</ele>
        <time>2023-07-23T15:03:26Z</time>
      </trkpt>
      <trkpt lat="44.94713" lon="6.17411">
        <ele>1747</ele>
        <time>2023-07-23T15:03:33Z</time>
      </trkpt>
      <trkpt lat="44.94713" lon="6.17411">
        <ele>1747</ele>
        <time>2023-07-23T15:03:36Z</time>
      </trkpt>
      <trkpt lat="44.94711" lon="6.17414">
        <ele>1738.5</ele>
        <time>2023-07-23T15:05:09Z</time>
      </trkpt>
      <trkpt lat="44.94711" lon="6.17414">
        <ele>1741</ele>
        <time>2023-07-23T15:05:12Z</time>
      </trkpt>
      <trkpt lat="44.94709" lon="6.17412">
        <ele>1741.9</ele>
        <time>2023-07-23T15:06:10Z</time>
      </trkpt>
      <trkpt lat="44.94709" lon="6.17412">
        <ele>1742.5</ele>
        <time>2023-07-23T15:06:11Z</time>
      </trkpt>
      <trkpt lat="44.94707" lon="6.17412">
        <ele>1744</ele>
        <time>2023-07-23T15:06:30Z</time>
      </trkpt>
      <trkpt lat="44.94706" lon="6.17412">
        <ele>1743.5</ele>
        <time>2023-07-23T15:06:37Z</time>
      </trkpt>
      <trkpt lat="44.94706" lon="6.17412">
        <ele>1743.5</ele>
        <time>2023-07-23T15:06:38Z</time>
      </trkpt>
      <trkpt lat="44.94702" lon="6.1741">
        <ele>1739.9</ele>
        <time>2023-07-23T15:06:56Z</time>
      </trkpt>
      <trkpt lat="44.94701" lon="6.17404">
        <ele>1738</ele>
        <time>2023-07-23T15:07:03Z</time>
      </trkpt>
      <trkpt lat="44.94704" lon="6.17402">
        <ele>1732.3</ele>
        <time>2023-07-23T15:07:10Z</time>
      </trkpt>
      <trkpt lat="44.94708" lon="6.17405">
        <ele>1731.9</ele>
        <time>2023-07-23T15:07:17Z</time>
      </trkpt>
      <trkpt lat="44.94711" lon="6.17403">
        <ele>1731</ele>
        <time>2023-07-23T15:07:24Z</time>
      </trkpt>
      <trkpt lat="44.94718" lon="6.17397">
        <ele>1727.6</ele>
        <time>2023-07-23T15:07:29Z</time>
      </trkpt>
      <trkpt lat="44.9472" lon="6.17392">
        <ele>1727.2</ele>
        <time>2023-07-23T15:07:36Z</time>
      </trkpt>
      <trkpt lat="44.94719" lon="6.1739">
        <ele>1725.9</ele>
        <time>2023-07-23T15:07:42Z</time>
      </trkpt>
      <trkpt lat="44.94719" lon="6.17384">
        <ele>1729.3</ele>
        <time>2023-07-23T15:07:50Z</time>
      </trkpt>
      <trkpt lat="44.94719" lon="6.17382">
        <ele>1732.6</ele>
        <time>2023-07-23T15:07:57Z</time>
      </trkpt>
      <trkpt lat="44.94723" lon="6.17378">
        <ele>1732.4</ele>
        <time>2023-07-23T15:08:04Z</time>
      </trkpt>
      <trkpt lat="44.9472" lon="6.17372">
        <ele>1727.1</ele>
        <time>2023-07-23T15:08:11Z</time>
      </trkpt>
      <trkpt lat="44.94716" lon="6.17368">
        <ele>1727.3</ele>
        <time>2023-07-23T15:08:18Z</time>
      </trkpt>
      <trkpt lat="44.94718" lon="6.17369">
        <ele>1732.3</ele>
        <time>2023-07-23T15:08:25Z</time>
      </trkpt>
      <trkpt lat="44.94721" lon="6.17369">
        <ele>1732.2</ele>
        <time>2023-07-23T15:08:32Z</time>
      </trkpt>
      <trkpt lat="44.94723" lon="6.17369">
        <ele>1735</ele>
        <time>2023-07-23T15:08:39Z</time>
      </trkpt>
      <trkpt lat="44.94724" lon="6.17367">
        <ele>1735.7</ele>
        <time>2023-07-23T15:08:46Z</time>
      </trkpt>
      <trkpt lat="44.94726" lon="6.17366">
        <ele>1735.2</ele>
        <time>2023-07-23T15:08:53Z</time>
      </trkpt>
      <trkpt lat="44.94726" lon="6.17364">
        <ele>1736.9</ele>
        <time>2023-07-23T15:09:00Z</time>
      </trkpt>
      <trkpt lat="44.9472" lon="6.17364">
        <ele>1738.2</ele>
        <time>2023-07-23T15:09:07Z</time>
      </trkpt>
      <trkpt lat="44.94716" lon="6.17364">
        <ele>1737.3</ele>
        <time>2023-07-23T15:09:14Z</time>
      </trkpt>
      <trkpt lat="44.94712" lon="6.17363">
        <ele>1734.8</ele>
        <time>2023-07-23T15:09:21Z</time>
      </trkpt>
      <trkpt lat="44.9471" lon="6.17361">
        <ele>1739.4</ele>
        <time>2023-07-23T15:09:28Z</time>
      </trkpt>
      <trkpt lat="44.94711" lon="6.17361">
        <ele>1738.9</ele>
        <time>2023-07-23T15:09:30Z</time>
      </trkpt>
      <trkpt lat="44.94707" lon="6.17361">
        <ele>1743.2</ele>
        <time>2023-07-23T15:09:40Z</time>
      </trkpt>
      <trkpt lat="44.94704" lon="6.17361">
        <ele>1743.7</ele>
        <time>2023-07-23T15:09:47Z</time>
      </trkpt>
      <trkpt lat="44.94704" lon="6.17359">
        <ele>1743</ele>
        <time>2023-07-23T15:09:53Z</time>
      </trkpt>
      <trkpt lat="44.94701" lon="6.17357">
        <ele>1743.5</ele>
        <time>2023-07-23T15:10:02Z</time>
      </trkpt>
      <trkpt lat="44.94697" lon="6.17357">
        <ele>1745.4</ele>
        <time>2023-07-23T15:10:09Z</time>
      </trkpt>
      <trkpt lat="44.94695" lon="6.17354">
        <ele>1746.5</ele>
        <time>2023-07-23T15:10:16Z</time>
      </trkpt>
      <trkpt lat="44.94693" lon="6.17355">
        <ele>1745.1</ele>
        <time>2023-07-23T15:10:23Z</time>
      </trkpt>
      <trkpt lat="44.94692" lon="6.17352">
        <ele>1746.1</ele>
        <time>2023-07-23T15:10:30Z</time>
      </trkpt>
      <trkpt lat="44.94692" lon="6.17348">
        <ele>1746.9</ele>
        <time>2023-07-23T15:10:37Z</time>
      </trkpt>
      <trkpt lat="44.94692" lon="6.17346">
        <ele>1744</ele>
        <time>2023-07-23T15:10:44Z</time>
      </trkpt>
      <trkpt lat="44.94694" lon="6.17345">
        <ele>1743.4</ele>
        <time>2023-07-23T15:10:51Z</time>
      </trkpt>
      <trkpt lat="44.94694" lon="6.17344">
        <ele>1743</ele>
        <time>2023-07-23T15:10:52Z</time>
      </trkpt>
      <trkpt lat="44.94695" lon="6.17339">
        <ele>1743</ele>
        <time>2023-07-23T15:10:59Z</time>
      </trkpt>
      <trkpt lat="44.94691" lon="6.17334">
        <ele>1744.6</ele>
        <time>2023-07-23T15:11:06Z</time>
      </trkpt>
      <trkpt lat="44.94691" lon="6.1733">
        <ele>1748.3</ele>
        <time>2023-07-23T15:11:13Z</time>
      </trkpt>
      <trkpt lat="44.9469" lon="6.17324">
        <ele>1747.8</ele>
        <time>2023-07-23T15:11:20Z</time>
      </trkpt>
      <trkpt lat="44.94691" lon="6.17319">
        <ele>1751</ele>
        <time>2023-07-23T15:11:27Z</time>
      </trkpt>
      <trkpt lat="44.94688" lon="6.17316">
        <ele>1753.1</ele>
        <time>2023-07-23T15:11:34Z</time>
      </trkpt>
      <trkpt lat="44.9469" lon="6.17314">
        <ele>1752.7</ele>
        <time>2023-07-23T15:11:41Z</time>
      </trkpt>
      <trkpt lat="44.9469" lon="6.17313">
        <ele>1752.1</ele>
        <time>2023-07-23T15:11:45Z</time>
      </trkpt>
      <trkpt lat="44.94691" lon="6.17312">
        <ele>1752.2</ele>
        <time>2023-07-23T15:11:54Z</time>
      </trkpt>
      <trkpt lat="44.9469" lon="6.17307">
        <ele>1751</ele>
        <time>2023-07-23T15:12:01Z</time>
      </trkpt>
      <trkpt lat="44.94691" lon="6.17301">
        <ele>1749</ele>
        <time>2023-07-23T15:12:08Z</time>
      </trkpt>
      <trkpt lat="44.94691" lon="6.17294">
        <ele>1749.4</ele>
        <time>2023-07-23T15:12:15Z</time>
      </trkpt>
      <trkpt lat="44.94693" lon="6.17287">
        <ele>1750.9</ele>
        <time>2023-07-23T15:12:22Z</time>
      </trkpt>
      <trkpt lat="44.94696" lon="6.1728">
        <ele>1754.7</ele>
        <time>2023-07-23T15:12:29Z</time>
      </trkpt>
      <trkpt lat="44.94697" lon="6.17276">
        <ele>1760.6</ele>
        <time>2023-07-23T15:12:36Z</time>
      </trkpt>
      <trkpt lat="44.94695" lon="6.17272">
        <ele>1760.1</ele>
        <time>2023-07-23T15:12:43Z</time>
      </trkpt>
      <trkpt lat="44.94692" lon="6.17268">
        <ele>1761.4</ele>
        <time>2023-07-23T15:12:50Z</time>
      </trkpt>
      <trkpt lat="44.94692" lon="6.17266">
        <ele>1759.3</ele>
        <time>2023-07-23T15:12:57Z</time>
      </trkpt>
      <trkpt lat="44.94686" lon="6.17269">
        <ele>1759.3</ele>
        <time>2023-07-23T15:13:04Z</time>
      </trkpt>
      <trkpt lat="44.94685" lon="6.17268">
        <ele>1760.5</ele>
        <time>2023-07-23T15:13:11Z</time>
      </trkpt>
      <trkpt lat="44.94686" lon="6.17268">
        <ele>1760.5</ele>
        <time>2023-07-23T15:13:18Z</time>
      </trkpt>
      <trkpt lat="44.94686" lon="6.17268">
        <ele>1760.5</ele>
        <time>2023-07-23T15:13:22Z</time>
      </trkpt>
      <trkpt lat="44.94686" lon="6.17272">
        <ele>1768</ele>
        <time>2023-07-23T15:16:23Z</time>
      </trkpt>
      <trkpt lat="44.94684" lon="6.17273">
        <ele>1771.4</ele>
        <time>2023-07-23T15:16:30Z</time>
      </trkpt>
      <trkpt lat="44.94683" lon="6.17274">
        <ele>1771</ele>
        <time>2023-07-23T15:16:34Z</time>
      </trkpt>
      <trkpt lat="44.94682" lon="6.17274">
        <ele>1772.2</ele>
        <time>2023-07-23T15:16:43Z</time>
      </trkpt>
      <trkpt lat="44.94682" lon="6.17274">
        <ele>1772</ele>
        <time>2023-07-23T15:16:45Z</time>
      </trkpt>
      <trkpt lat="44.94679" lon="6.17274">
        <ele>1772.2</ele>
        <time>2023-07-23T15:18:14Z</time>
      </trkpt>
      <trkpt lat="44.94679" lon="6.17275">
        <ele>1772.7</ele>
        <time>2023-07-23T15:18:16Z</time>
      </trkpt>
      <trkpt lat="44.94684" lon="6.17275">
        <ele>1775.4</ele>
        <time>2023-07-23T15:18:26Z</time>
      </trkpt>
      <trkpt lat="44.94679" lon="6.17276">
        <ele>1776.7</ele>
        <time>2023-07-23T15:18:33Z</time>
      </trkpt>
      <trkpt lat="44.94678" lon="6.1728">
        <ele>1778.6</ele>
        <time>2023-07-23T15:18:40Z</time>
      </trkpt>
      <trkpt lat="44.94682" lon="6.17283">
        <ele>1782.4</ele>
        <time>2023-07-23T15:18:47Z</time>
      </trkpt>
      <trkpt lat="44.94676" lon="6.17283">
        <ele>1781.1</ele>
        <time>2023-07-23T15:18:54Z</time>
      </trkpt>
      <trkpt lat="44.94677" lon="6.17283">
        <ele>1781.8</ele>
        <time>2023-07-23T15:19:01Z</time>
      </trkpt>
      <trkpt lat="44.94677" lon="6.17283">
        <ele>1782.6</ele>
        <time>2023-07-23T15:19:02Z</time>
      </trkpt>
      <trkpt lat="44.94677" lon="6.17283">
        <ele>1782.1</ele>
        <time>2023-07-23T15:19:24Z</time>
      </trkpt>
      <trkpt lat="44.94677" lon="6.17283">
        <ele>1782</ele>
        <time>2023-07-23T15:19:25Z</time>
      </trkpt>
      <trkpt lat="44.94674" lon="6.17284">
        <ele>1781.5</ele>
        <time>2023-07-23T15:19:34Z</time>
      </trkpt>
      <trkpt lat="44.94674" lon="6.17284">
        <ele>1781.6</ele>
        <time>2023-07-23T15:19:35Z</time>
      </trkpt>
      <trkpt lat="44.94671" lon="6.17284">
        <ele>1779.3</ele>
        <time>2023-07-23T15:19:54Z</time>
      </trkpt>
      <trkpt lat="44.94671" lon="6.17284">
        <ele>1779.4</ele>
        <time>2023-07-23T15:19:55Z</time>
      </trkpt>
      <trkpt lat="44.94671" lon="6.17284">
        <ele>1779.4</ele>
        <time>2023-07-23T15:20:03Z</time>
      </trkpt>
      <trkpt lat="44.94671" lon="6.17284">
        <ele>1779.4</ele>
        <time>2023-07-23T15:20:04Z</time>
      </trkpt>
      <trkpt lat="44.94671" lon="6.17284">
        <ele>1779.9</ele>
        <time>2023-07-23T15:20:50Z</time>
      </trkpt>
      <trkpt lat="44.94671" lon="6.17284">
        <ele>1779.7</ele>
        <time>2023-07-23T15:20:51Z</time>
      </trkpt>
      <trkpt lat="44.94671" lon="6.17285">
        <ele>1779.9</ele>
        <time>2023-07-23T15:21:40Z</time>
      </trkpt>
      <trkpt lat="44.94671" lon="6.17285">
        <ele>1779.9</ele>
        <time>2023-07-23T15:21:41Z</time>
      </trkpt>
      <trkpt lat="44.94671" lon="6.17286">
        <ele>1778</ele>
        <time>2023-07-23T15:22:29Z</time>
      </trkpt>
      <trkpt lat="44.94671" lon="6.17286">
        <ele>1778</ele>
        <time>2023-07-23T15:22:30Z</time>
      </trkpt>
      <trkpt lat="44.9467" lon="6.17287">
        <ele>1779.1</ele>
        <time>2023-07-23T15:22:44Z</time>
      </trkpt>
      <trkpt lat="44.9467" lon="6.17287">
        <ele>1778.6</ele>
        <time>2023-07-23T15:22:45Z</time>
      </trkpt>
      <trkpt lat="44.9467" lon="6.17286">
        <ele>1777.9</ele>
        <time>2023-07-23T15:24:09Z</time>
      </trkpt>
      <trkpt lat="44.9467" lon="6.17286">
        <ele>1777.6</ele>
        <time>2023-07-23T15:24:10Z</time>
      </trkpt>
      <trkpt lat="44.94668" lon="6.17283">
        <ele>1778.7</ele>
        <time>2023-07-23T15:24:25Z</time>
      </trkpt>
      <trkpt lat="44.94668" lon="6.17283">
        <ele>1778.6</ele>
        <time>2023-07-23T15:24:27Z</time>
      </trkpt>
      <trkpt lat="44.94667" lon="6.17282">
        <ele>1777.6</ele>
        <time>2023-07-23T15:24:50Z</time>
      </trkpt>
      <trkpt lat="44.94667" lon="6.17282">
        <ele>1777.4</ele>
        <time>2023-07-23T15:24:51Z</time>
      </trkpt>
      <trkpt lat="44.94666" lon="6.1728">
        <ele>1779.1</ele>
        <time>2023-07-23T15:25:37Z</time>
      </trkpt>
      <trkpt lat="44.94666" lon="6.1728">
        <ele>1779.2</ele>
        <time>2023-07-23T15:25:38Z</time>
      </trkpt>
      <trkpt lat="44.94664" lon="6.1728">
        <ele>1780.1</ele>
        <time>2023-07-23T15:25:46Z</time>
      </trkpt>
      <trkpt lat="44.94664" lon="6.1728">
        <ele>1780</ele>
        <time>2023-07-23T15:25:47Z</time>
      </trkpt>
      <trkpt lat="44.94664" lon="6.17277">
        <ele>1780.7</ele>
        <time>2023-07-23T15:25:57Z</time>
      </trkpt>
      <trkpt lat="44.94664" lon="6.17277">
        <ele>1780.7</ele>
        <time>2023-07-23T15:25:59Z</time>
      </trkpt>
      <trkpt lat="44.94664" lon="6.17278">
        <ele>1781.3</ele>
        <time>2023-07-23T15:26:11Z</time>
      </trkpt>
      <trkpt lat="44.94664" lon="6.17278">
        <ele>1781.3</ele>
        <time>2023-07-23T15:26:12Z</time>
      </trkpt>
      <trkpt lat="44.94663" lon="6.17278">
        <ele>1781.2</ele>
        <time>2023-07-23T15:27:11Z</time>
      </trkpt>
      <trkpt lat="44.94663" lon="6.17278">
        <ele>1781.2</ele>
        <time>2023-07-23T15:27:13Z</time>
      </trkpt>
      <trkpt lat="44.94663" lon="6.17279">
        <ele>1781.8</ele>
        <time>2023-07-23T15:27:22Z</time>
      </trkpt>
      <trkpt lat="44.94663" lon="6.17279">
        <ele>1782.1</ele>
        <time>2023-07-23T15:27:23Z</time>
      </trkpt>
      <trkpt lat="44.94663" lon="6.1728">
        <ele>1783.2</ele>
        <time>2023-07-23T15:27:37Z</time>
      </trkpt>
      <trkpt lat="44.94663" lon="6.1728">
        <ele>1783.2</ele>
        <time>2023-07-23T15:27:38Z</time>
      </trkpt>
      <trkpt lat="44.94664" lon="6.1728">
        <ele>1784.4</ele>
        <time>2023-07-23T15:27:49Z</time>
      </trkpt>
      <trkpt lat="44.94664" lon="6.1728">
        <ele>1784.5</ele>
        <time>2023-07-23T15:27:50Z</time>
      </trkpt>
      <trkpt lat="44.94663" lon="6.1728">
        <ele>1785.2</ele>
        <time>2023-07-23T15:28:01Z</time>
      </trkpt>
      <trkpt lat="44.94663" lon="6.1728">
        <ele>1785.2</ele>
        <time>2023-07-23T15:28:02Z</time>
      </trkpt>
      <trkpt lat="44.94659" lon="6.1728">
        <ele>1784.7</ele>
        <time>2023-07-23T15:28:15Z</time>
      </trkpt>
      <trkpt lat="44.94656" lon="6.17282">
        <ele>1785.4</ele>
        <time>2023-07-23T15:28:22Z</time>
      </trkpt>
      <trkpt lat="44.94655" lon="6.17287">
        <ele>1789.8</ele>
        <time>2023-07-23T15:28:29Z</time>
      </trkpt>
      <trkpt lat="44.9465" lon="6.17288">
        <ele>1790.9</ele>
        <time>2023-07-23T15:28:36Z</time>
      </trkpt>
      <trkpt lat="44.94648" lon="6.17293">
        <ele>1791.8</ele>
        <time>2023-07-23T15:28:43Z</time>
      </trkpt>
      <trkpt lat="44.94648" lon="6.17292">
        <ele>1792.9</ele>
        <time>2023-07-23T15:28:50Z</time>
      </trkpt>
      <trkpt lat="44.94644" lon="6.17295">
        <ele>1789.2</ele>
        <time>2023-07-23T15:28:57Z</time>
      </trkpt>
      <trkpt lat="44.9464" lon="6.17299">
        <ele>1787</ele>
        <time>2023-07-23T15:29:04Z</time>
      </trkpt>
      <trkpt lat="44.94638" lon="6.17301">
        <ele>1787.4</ele>
        <time>2023-07-23T15:29:11Z</time>
      </trkpt>
      <trkpt lat="44.94637" lon="6.17304">
        <ele>1786.4</ele>
        <time>2023-07-23T15:29:18Z</time>
      </trkpt>
      <trkpt lat="44.94637" lon="6.17303">
        <ele>1786.4</ele>
        <time>2023-07-23T15:29:21Z</time>
      </trkpt>
      <trkpt lat="44.94637" lon="6.17305">
        <ele>1786.8</ele>
        <time>2023-07-23T15:29:33Z</time>
      </trkpt>
      <trkpt lat="44.94637" lon="6.17305">
        <ele>1786.6</ele>
        <time>2023-07-23T15:29:34Z</time>
      </trkpt>
      <trkpt lat="44.94637" lon="6.17305">
        <ele>1786.8</ele>
        <time>2023-07-23T15:30:35Z</time>
      </trkpt>
      <trkpt lat="44.94637" lon="6.17305">
        <ele>1786.9</ele>
        <time>2023-07-23T15:30:36Z</time>
      </trkpt>
      <trkpt lat="44.94632" lon="6.17304">
        <ele>1788.4</ele>
        <time>2023-07-23T15:31:00Z</time>
      </trkpt>
      <trkpt lat="44.94632" lon="6.17303">
        <ele>1790</ele>
        <time>2023-07-23T15:31:07Z</time>
      </trkpt>
      <trkpt lat="44.94631" lon="6.17299">
        <ele>1790.4</ele>
        <time>2023-07-23T15:31:14Z</time>
      </trkpt>
      <trkpt lat="44.94631" lon="6.17298">
        <ele>1793</ele>
        <time>2023-07-23T15:31:20Z</time>
      </trkpt>
      <trkpt lat="44.94629" lon="6.17298">
        <ele>1793</ele>
        <time>2023-07-23T15:31:28Z</time>
      </trkpt>
      <trkpt lat="44.94628" lon="6.17298">
        <ele>1792.6</ele>
        <time>2023-07-23T15:31:34Z</time>
      </trkpt>
      <trkpt lat="44.94625" lon="6.17298">
        <ele>1795.7</ele>
        <time>2023-07-23T15:31:43Z</time>
      </trkpt>
      <trkpt lat="44.94621" lon="6.17301">
        <ele>1797</ele>
        <time>2023-07-23T15:31:50Z</time>
      </trkpt>
      <trkpt lat="44.94618" lon="6.1731">
        <ele>1798</ele>
        <time>2023-07-23T15:31:57Z</time>
      </trkpt>
      <trkpt lat="44.94616" lon="6.17312">
        <ele>1798.6</ele>
        <time>2023-07-23T15:32:04Z</time>
      </trkpt>
      <trkpt lat="44.9461" lon="6.17313">
        <ele>1799.3</ele>
        <time>2023-07-23T15:32:11Z</time>
      </trkpt>
      <trkpt lat="44.94605" lon="6.17308">
        <ele>1799.9</ele>
        <time>2023-07-23T15:32:18Z</time>
      </trkpt>
      <trkpt lat="44.94606" lon="6.17311">
        <ele>1803.7</ele>
        <time>2023-07-23T15:32:25Z</time>
      </trkpt>
      <trkpt lat="44.94608" lon="6.17313">
        <ele>1805.7</ele>
        <time>2023-07-23T15:32:32Z</time>
      </trkpt>
      <trkpt lat="44.94608" lon="6.17313">
        <ele>1805.7</ele>
        <time>2023-07-23T15:32:36Z</time>
      </trkpt>
      <trkpt lat="44.94603" lon="6.17321">
        <ele>1804.9</ele>
        <time>2023-07-23T15:32:45Z</time>
      </trkpt>
      <trkpt lat="44.946" lon="6.17327">
        <ele>1804.6</ele>
        <time>2023-07-23T15:32:52Z</time>
      </trkpt>
      <trkpt lat="44.94595" lon="6.17323">
        <ele>1808.1</ele>
        <time>2023-07-23T15:32:59Z</time>
      </trkpt>
      <trkpt lat="44.94599" lon="6.17328">
        <ele>1813.1</ele>
        <time>2023-07-23T15:33:06Z</time>
      </trkpt>
      <trkpt lat="44.94599" lon="6.17329">
        <ele>1813.2</ele>
        <time>2023-07-23T15:33:13Z</time>
      </trkpt>
      <trkpt lat="44.94599" lon="6.17329">
        <ele>1813.2</ele>
        <time>2023-07-23T15:33:14Z</time>
      </trkpt>
      <trkpt lat="44.94597" lon="6.17327">
        <ele>1812.7</ele>
        <time>2023-07-23T15:34:00Z</time>
      </trkpt>
      <trkpt lat="44.94596" lon="6.17326">
        <ele>1813.7</ele>
        <time>2023-07-23T15:34:07Z</time>
      </trkpt>
      <trkpt lat="44.94596" lon="6.17326">
        <ele>1813.7</ele>
        <time>2023-07-23T15:34:08Z</time>
      </trkpt>
      <trkpt lat="44.94596" lon="6.17325">
        <ele>1814.3</ele>
        <time>2023-07-23T15:34:19Z</time>
      </trkpt>
      <trkpt lat="44.94596" lon="6.17325">
        <ele>1814.4</ele>
        <time>2023-07-23T15:34:20Z</time>
      </trkpt>
      <trkpt lat="44.94595" lon="6.17325">
        <ele>1814.2</ele>
        <time>2023-07-23T15:34:31Z</time>
      </trkpt>
      <trkpt lat="44.94595" lon="6.17325">
        <ele>1814.2</ele>
        <time>2023-07-23T15:34:32Z</time>
      </trkpt>
      <trkpt lat="44.94595" lon="6.17325">
        <ele>1814.5</ele>
        <time>2023-07-23T15:35:59Z</time>
      </trkpt>
      <trkpt lat="44.94595" lon="6.17325">
        <ele>1814.5</ele>
        <time>2023-07-23T15:36:00Z</time>
      </trkpt>
      <trkpt lat="44.94595" lon="6.17323">
        <ele>1814.8</ele>
        <time>2023-07-23T15:36:48Z</time>
      </trkpt>
      <trkpt lat="44.94595" lon="6.17323">
        <ele>1814.8</ele>
        <time>2023-07-23T15:36:49Z</time>
      </trkpt>
      <trkpt lat="44.94593" lon="6.17321">
        <ele>1807.1</ele>
        <time>2023-07-23T15:40:42Z</time>
      </trkpt>
      <trkpt lat="44.94588" lon="6.17312">
        <ele>1808.1</ele>
        <time>2023-07-23T15:40:48Z</time>
      </trkpt>
      <trkpt lat="44.94583" lon="6.17319">
        <ele>1808.4</ele>
        <time>2023-07-23T15:40:55Z</time>
      </trkpt>
      <trkpt lat="44.94583" lon="6.17319">
        <ele>1809.9</ele>
        <time>2023-07-23T15:40:59Z</time>
      </trkpt>
      <trkpt lat="44.94584" lon="6.1732">
        <ele>1807.6</ele>
        <time>2023-07-23T15:41:08Z</time>
      </trkpt>
      <trkpt lat="44.94584" lon="6.1732">
        <ele>1807.9</ele>
        <time>2023-07-23T15:41:09Z</time>
      </trkpt>
      <trkpt lat="44.94578" lon="6.17317">
        <ele>1808.4</ele>
        <time>2023-07-23T15:41:16Z</time>
      </trkpt>
      <trkpt lat="44.94577" lon="6.1732">
        <ele>1810.9</ele>
        <time>2023-07-23T15:41:23Z</time>
      </trkpt>
      <trkpt lat="44.94577" lon="6.17323">
        <ele>1814.3</ele>
        <time>2023-07-23T15:41:30Z</time>
      </trkpt>
      <trkpt lat="44.94572" lon="6.17324">
        <ele>1811.5</ele>
        <time>2023-07-23T15:41:37Z</time>
      </trkpt>
      <trkpt lat="44.94568" lon="6.17323">
        <ele>1810.8</ele>
        <time>2023-07-23T15:41:44Z</time>
      </trkpt>
      <trkpt lat="44.94565" lon="6.17322">
        <ele>1815.1</ele>
        <time>2023-07-23T15:41:51Z</time>
      </trkpt>
      <trkpt lat="44.94565" lon="6.17323">
        <ele>1817.3</ele>
        <time>2023-07-23T15:41:58Z</time>
      </trkpt>
      <trkpt lat="44.94565" lon="6.17323">
        <ele>1818.2</ele>
        <time>2023-07-23T15:41:59Z</time>
      </trkpt>
      <trkpt lat="44.94562" lon="6.17323">
        <ele>1820.6</ele>
        <time>2023-07-23T15:42:08Z</time>
      </trkpt>
      <trkpt lat="44.9456" lon="6.17324">
        <ele>1822.1</ele>
        <time>2023-07-23T15:42:15Z</time>
      </trkpt>
      <trkpt lat="44.9456" lon="6.17325">
        <ele>1824</ele>
        <time>2023-07-23T15:42:19Z</time>
      </trkpt>
      <trkpt lat="44.94558" lon="6.17325">
        <ele>1824.7</ele>
        <time>2023-07-23T15:42:27Z</time>
      </trkpt>
      <trkpt lat="44.94557" lon="6.17327">
        <ele>1826.1</ele>
        <time>2023-07-23T15:42:34Z</time>
      </trkpt>
      <trkpt lat="44.94553" lon="6.1733">
        <ele>1826.8</ele>
        <time>2023-07-23T15:42:41Z</time>
      </trkpt>
      <trkpt lat="44.94553" lon="6.17332">
        <ele>1828.1</ele>
        <time>2023-07-23T15:42:48Z</time>
      </trkpt>
      <trkpt lat="44.94553" lon="6.17332">
        <ele>1828.9</ele>
        <time>2023-07-23T15:42:49Z</time>
      </trkpt>
      <trkpt lat="44.94551" lon="6.17331">
        <ele>1832.5</ele>
        <time>2023-07-23T15:42:57Z</time>
      </trkpt>
      <trkpt lat="44.9455" lon="6.17334">
        <ele>1829.9</ele>
        <time>2023-07-23T15:43:04Z</time>
      </trkpt>
      <trkpt lat="44.94548" lon="6.17334">
        <ele>1833.6</ele>
        <time>2023-07-23T15:43:11Z</time>
      </trkpt>
      <trkpt lat="44.94547" lon="6.17336">
        <ele>1832.6</ele>
        <time>2023-07-23T15:43:17Z</time>
      </trkpt>
      <trkpt lat="44.94545" lon="6.17344">
        <ele>1827.7</ele>
        <time>2023-07-23T15:43:24Z</time>
      </trkpt>
      <trkpt lat="44.94543" lon="6.1735">
        <ele>1826.4</ele>
        <time>2023-07-23T15:43:31Z</time>
      </trkpt>
      <trkpt lat="44.94542" lon="6.17352">
        <ele>1825.1</ele>
        <time>2023-07-23T15:43:38Z</time>
      </trkpt>
      <trkpt lat="44.94541" lon="6.17353">
        <ele>1824.6</ele>
        <time>2023-07-23T15:44:03Z</time>
      </trkpt>
      <trkpt lat="44.94541" lon="6.17353">
        <ele>1825.1</ele>
        <time>2023-07-23T15:44:05Z</time>
      </trkpt>
      <trkpt lat="44.94539" lon="6.1735">
        <ele>1825.5</ele>
        <time>2023-07-23T15:44:16Z</time>
      </trkpt>
      <trkpt lat="44.94539" lon="6.1735">
        <ele>1825.5</ele>
        <time>2023-07-23T15:44:23Z</time>
      </trkpt>
      <trkpt lat="44.94531" lon="6.1735">
        <ele>1827.3</ele>
        <time>2023-07-23T15:44:33Z</time>
      </trkpt>
      <trkpt lat="44.94526" lon="6.17346">
        <ele>1827.7</ele>
        <time>2023-07-23T15:44:40Z</time>
      </trkpt>
      <trkpt lat="44.94525" lon="6.17346">
        <ele>1827.6</ele>
        <time>2023-07-23T15:44:47Z</time>
      </trkpt>
      <trkpt lat="44.94523" lon="6.17348">
        <ele>1828</ele>
        <time>2023-07-23T15:44:54Z</time>
      </trkpt>
      <trkpt lat="44.94525" lon="6.17353">
        <ele>1825.6</ele>
        <time>2023-07-23T15:45:01Z</time>
      </trkpt>
      <trkpt lat="44.94527" lon="6.17358">
        <ele>1827.2</ele>
        <time>2023-07-23T15:45:08Z</time>
      </trkpt>
      <trkpt lat="44.94526" lon="6.17357">
        <ele>1827.3</ele>
        <time>2023-07-23T15:45:15Z</time>
      </trkpt>
      <trkpt lat="44.94526" lon="6.17359">
        <ele>1827.8</ele>
        <time>2023-07-23T15:45:22Z</time>
      </trkpt>
      <trkpt lat="44.94526" lon="6.17359">
        <ele>1827.3</ele>
        <time>2023-07-23T15:45:26Z</time>
      </trkpt>
      <trkpt lat="44.94521" lon="6.17361">
        <ele>1826.9</ele>
        <time>2023-07-23T15:45:40Z</time>
      </trkpt>
      <trkpt lat="44.9452" lon="6.17366">
        <ele>1826.9</ele>
        <time>2023-07-23T15:45:47Z</time>
      </trkpt>
      <trkpt lat="44.94521" lon="6.17374">
        <ele>1835.7</ele>
        <time>2023-07-23T15:45:54Z</time>
      </trkpt>
      <trkpt lat="44.94521" lon="6.17375">
        <ele>1833</ele>
        <time>2023-07-23T15:46:01Z</time>
      </trkpt>
      <trkpt lat="44.94519" lon="6.17371">
        <ele>1833.5</ele>
        <time>2023-07-23T15:46:08Z</time>
      </trkpt>
      <trkpt lat="44.94523" lon="6.17373">
        <ele>1835.8</ele>
        <time>2023-07-23T15:46:15Z</time>
      </trkpt>
      <trkpt lat="44.94521" lon="6.17371">
        <ele>1838.5</ele>
        <time>2023-07-23T15:46:22Z</time>
      </trkpt>
      <trkpt lat="44.94522" lon="6.17374">
        <ele>1837.2</ele>
        <time>2023-07-23T15:46:29Z</time>
      </trkpt>
      <trkpt lat="44.9452" lon="6.17381">
        <ele>1833.2</ele>
        <time>2023-07-23T15:46:36Z</time>
      </trkpt>
      <trkpt lat="44.94523" lon="6.17383">
        <ele>1843</ele>
        <time>2023-07-23T15:46:43Z</time>
      </trkpt>
      <trkpt lat="44.94525" lon="6.17383">
        <ele>1844.2</ele>
        <time>2023-07-23T15:46:50Z</time>
      </trkpt>
      <trkpt lat="44.94524" lon="6.17383">
        <ele>1842.4</ele>
        <time>2023-07-23T15:46:57Z</time>
      </trkpt>
      <trkpt lat="44.94524" lon="6.17383">
        <ele>1842.3</ele>
        <time>2023-07-23T15:47:02Z</time>
      </trkpt>
      <trkpt lat="44.94525" lon="6.17384">
        <ele>1842.4</ele>
        <time>2023-07-23T15:47:10Z</time>
      </trkpt>
      <trkpt lat="44.94521" lon="6.17392">
        <ele>1843.4</ele>
        <time>2023-07-23T15:47:17Z</time>
      </trkpt>
      <trkpt lat="44.94517" lon="6.17397">
        <ele>1844.2</ele>
        <time>2023-07-23T15:47:24Z</time>
      </trkpt>
      <trkpt lat="44.9451" lon="6.17401">
        <ele>1845.5</ele>
        <time>2023-07-23T15:47:30Z</time>
      </trkpt>
      <trkpt lat="44.94503" lon="6.17405">
        <ele>1844.4</ele>
        <time>2023-07-23T15:47:36Z</time>
      </trkpt>
      <trkpt lat="44.94501" lon="6.17411">
        <ele>1845.1</ele>
        <time>2023-07-23T15:47:43Z</time>
      </trkpt>
      <trkpt lat="44.94496" lon="6.17411">
        <ele>1845.1</ele>
        <time>2023-07-23T15:47:50Z</time>
      </trkpt>
      <trkpt lat="44.94497" lon="6.17415">
        <ele>1845.8</ele>
        <time>2023-07-23T15:47:57Z</time>
      </trkpt>
      <trkpt lat="44.94497" lon="6.17416">
        <ele>1848.4</ele>
        <time>2023-07-23T15:48:03Z</time>
      </trkpt>
      <trkpt lat="44.94495" lon="6.1742">
        <ele>1848.3</ele>
        <time>2023-07-23T15:48:11Z</time>
      </trkpt>
      <trkpt lat="44.94489" lon="6.17425">
        <ele>1852.2</ele>
        <time>2023-07-23T15:48:18Z</time>
      </trkpt>
      <trkpt lat="44.94489" lon="6.17426">
        <ele>1852.7</ele>
        <time>2023-07-23T15:48:25Z</time>
      </trkpt>
      <trkpt lat="44.94489" lon="6.17426">
        <ele>1850.5</ele>
        <time>2023-07-23T15:48:29Z</time>
      </trkpt>
      <trkpt lat="44.94489" lon="6.17428">
        <ele>1853.7</ele>
        <time>2023-07-23T15:48:43Z</time>
      </trkpt>
      <trkpt lat="44.94489" lon="6.17428">
        <ele>1854.4</ele>
        <time>2023-07-23T15:48:47Z</time>
      </trkpt>
      <trkpt lat="44.94492" lon="6.1743">
        <ele>1855.6</ele>
        <time>2023-07-23T15:48:55Z</time>
      </trkpt>
      <trkpt lat="44.94492" lon="6.1743">
        <ele>1846.9</ele>
        <time>2023-07-23T15:49:02Z</time>
      </trkpt>
    </trkseg>
  </trk>
</gpx>